BY7314 / G-FDZY 7700 Squawk Report (29th of June, 2022)

Aircraft B738 Reg No. G-FDZY Age 10 years old
Model 737 Jet engines 2 First flight 04-11-11
Registered 22-04-22 Rollout 28-10-11 Delivered 22-11-11
Construction No. 37261 Line No. 3844 Series 8K5
ADSHEX 40660C Airline name TUI Airways Owner TUI AG
Airfield based Luton~Beds~G First tracked N/A

Flight history for G-FDZY

Route Flight No Date Playback
Inezgane (AGA) - Birmingham (BHX) BY567 2022-08-12 01:16:00
Birmingham (BHX) - Inezgane (AGA) BY566 2022-08-11 20:31:00
Dionysios Solomos (ZTH) - Birmingham (BHX) TOM4526 2022-08-11 16:59:00
Birmingham (BHX) - Dionysios Solomos (ZTH) BY7312 2022-08-11 10:53:00
Kos (KGS) - Birmingham (BHX) BY7373 2022-08-11 07:40:00
Birmingham (BHX) - Kos (KGS) BY7372 2022-08-10 18:10:00
Pula (PUY) - Birmingham (BHX) TOM6159 2022-08-10 13:09:00
Birmingham (BHX) - Pula (PUY) BY2316 2022-08-10 08:03:00
Dubrovnik (DBV) - Gatwick (LGW) TOM4423 2022-08-10 05:03:00
Birmingham (BHX) - Dalaman (DLM) TOM4483 2022-08-09 23:44:00
Chania International Airport (CHQ) - Birmingham (BHX) BY1704 2022-08-09 18:37:00
Birmingham (BHX) - Chania International Airport (CHQ) N/A 2022-08-09 11:23:00
Dionysios Solomos (ZTH) - Birmingham (BHX) BY6243 2022-08-09 07:31:00
Birmingham (BHX) - Dionysios Solomos (ZTH) N/A 2022-08-08 20:22:00
Menorca (MAH) - Birmingham (BHX) BY7312 2022-08-08 15:59:00
Birmingham (BHX) - Menorca (MAH) BY7118 2022-08-08 09:28:00
Robin Hood Doncaster Sheffield Airport (DSA) - Tenerife Sur (TFS) BY3546 2022-08-08 00:54:00
Birmingham (BHX) - Sharm El Sheikh (SSH) BY522 2022-08-07 20:07:00
Faro (FAO) - Birmingham (BHX) BY7709 2022-08-07 13:03:00
Birmingham (BHX) - Faro (FAO) TOM7708 2022-08-07 09:07:00
Time Lat Lon Altitude Heading Speed Vertical Rate
2022-06-29 22:06:01 GMT 28.454350 -13.868272 0 0 0 0
2022-06-29 22:05:58 GMT 28.454346 -13.868274 0 272 0 0
2022-06-29 22:05:55 GMT 28.454350 -13.868272 0 272 0 0
2022-06-29 22:05:54 GMT 28.454346 -13.868274 0 272 0 0
2022-06-29 22:05:49 GMT 28.454346 -13.868287 0 272 2 0
2022-06-29 22:05:47 GMT 28.454346 -13.868287 0 272 2 0
2022-06-29 22:05:45 GMT 28.454350 -13.868272 0 272 5 0
2022-06-29 22:05:44 GMT 28.454350 -13.868245 0 272 7 0
2022-06-29 22:05:43 GMT 28.454350 -13.868232 0 272 7 0
2022-06-29 22:05:42 GMT 28.454338 -13.868193 0 272 7 0
2022-06-29 22:05:39 GMT 28.454334 -13.868072 0 272 8 0
2022-06-29 22:05:37 GMT 28.454338 -13.868008 0 272 8 0
2022-06-29 22:05:36 GMT 28.454338 -13.867968 0 272 8 0
2022-06-29 22:05:35 GMT 28.454338 -13.867889 0 272 9 0
2022-06-29 22:05:33 GMT 28.454334 -13.867843 0 270 9 0
2022-06-29 22:05:32 GMT 28.454334 -13.867802 0 267 9 0
2022-06-29 22:05:30 GMT 28.454327 -13.867691 0 258 8 0
2022-06-29 22:05:29 GMT 28.454327 -13.867651 0 253 8 0
2022-06-29 22:05:27 GMT 28.454338 -13.867572 0 241 8 0
2022-06-29 22:05:26 GMT 28.454350 -13.867532 0 236 8 0
2022-06-29 22:05:24 GMT 28.454372 -13.867466 0 222 8 0
2022-06-29 22:05:23 GMT 28.454414 -13.867412 0 205 8 0
2022-06-29 22:05:21 GMT 28.454441 -13.867361 0 194 8 0
2022-06-29 22:05:20 GMT 28.454508 -13.867345 0 182 9 0
2022-06-29 22:05:18 GMT 28.454533 -13.867345 0 180 10 0
2022-06-29 22:05:17 GMT 28.454578 -13.867334 0 180 11 0
2022-06-29 22:05:14 GMT 28.454718 -13.867331 0 182 15 0
2022-06-29 22:05:12 GMT 28.454823 -13.867331 0 182 17 0
2022-06-29 22:05:11 GMT 28.454899 -13.867321 0 182 18 0
2022-06-29 22:05:09 GMT 28.455059 -13.867321 0 180 18 0
2022-06-29 22:05:08 GMT 28.455151 -13.867321 0 180 17 0
2022-06-29 22:05:06 GMT 28.455299 -13.867318 0 180 17 0
2022-06-29 22:05:05 GMT 28.455368 -13.867308 0 180 17 0
2022-06-29 22:05:03 GMT 28.455528 -13.867308 0 182 16 0
2022-06-29 22:05:02 GMT 28.455608 -13.867308 0 182 16 0
2022-06-29 22:05:00 GMT 28.455742 -13.867304 0 182 15 0
2022-06-29 22:04:59 GMT 28.455826 -13.867295 0 182 15 0
2022-06-29 22:04:58 GMT 28.455963 -13.867295 0 182 14 0
2022-06-29 22:04:56 GMT 28.456045 -13.867291 0 182 14 0
2022-06-29 22:04:55 GMT 28.456181 -13.867281 0 180 14 0
2022-06-29 22:04:53 GMT 28.456249 -13.867281 0 180 13 0
2022-06-29 22:04:52 GMT 28.456295 -13.867281 0 180 13 0
2022-06-29 22:04:50 GMT 28.456429 -13.867277 0 180 12 0
2022-06-29 22:04:49 GMT 28.456533 -13.867277 0 182 12 0
2022-06-29 22:04:47 GMT 28.456581 -13.867281 0 185 11 0
2022-06-29 22:04:46 GMT 28.456696 -13.867268 0 191 11 0
2022-06-29 22:04:44 GMT 28.456743 -13.867264 0 196 10 0
2022-06-29 22:04:43 GMT 28.456833 -13.867242 0 208 10 0
2022-06-29 22:04:41 GMT 28.456879 -13.867215 0 216 10 0
2022-06-29 22:04:40 GMT 28.456959 -13.867176 0 230 10 0
2022-06-29 22:04:38 GMT 28.456999 -13.867116 0 236 10 0
2022-06-29 22:04:36 GMT 28.457058 -13.867035 0 247 10 0
2022-06-29 22:04:35 GMT 28.457073 -13.867017 0 250 10 0
2022-06-29 22:04:34 GMT 28.457104 -13.866968 0 255 10 0
2022-06-29 22:04:32 GMT 28.457119 -13.866872 0 264 10 0
2022-06-29 22:04:30 GMT 28.457130 -13.866766 0 270 10 0
2022-06-29 22:04:29 GMT 28.457127 -13.866712 0 272 10 0
2022-06-29 22:04:28 GMT 28.457130 -13.866674 0 272 10 0
2022-06-29 22:04:27 GMT 28.457130 -13.866582 0 272 10 0
2022-06-29 22:04:24 GMT 28.457127 -13.866510 0 272 10 0
2022-06-29 22:04:22 GMT 28.457119 -13.866410 0 272 10 0
2022-06-29 22:04:21 GMT 28.457119 -13.866370 0 272 10 0
2022-06-29 22:04:19 GMT 28.457115 -13.866281 0 270 10 0
2022-06-29 22:04:17 GMT 28.457115 -13.866214 0 270 10 0
2022-06-29 22:04:16 GMT 28.457119 -13.866093 0 267 10 0
2022-06-29 22:04:14 GMT 28.457119 -13.866014 0 258 10 0
2022-06-29 22:04:13 GMT 28.457115 -13.865971 0 253 10 0
2022-06-29 22:04:11 GMT 28.457130 -13.865868 0 241 11 0
2022-06-29 22:04:10 GMT 28.457153 -13.865816 0 233 11 0
2022-06-29 22:04:09 GMT 28.457176 -13.865776 0 227 11 0
2022-06-29 22:04:07 GMT 28.457222 -13.865697 0 216 11 0
2022-06-29 22:04:06 GMT 28.457243 -13.865662 0 210 11 0
2022-06-29 22:04:05 GMT 28.457336 -13.865594 0 196 11 0
2022-06-29 22:04:02 GMT 28.457485 -13.865552 0 182 11 0
2022-06-29 22:04:00 GMT 28.457523 -13.865554 0 180 12 0
2022-06-29 22:03:59 GMT 28.457611 -13.865552 0 180 15 0
2022-06-29 22:03:57 GMT 28.457668 -13.865552 0 182 16 0
2022-06-29 22:03:55 GMT 28.457813 -13.865540 0 182 20 0
2022-06-29 22:03:54 GMT 28.457977 -13.865538 0 182 22 0
2022-06-29 22:03:51 GMT 28.458160 -13.865538 0 182 24 0
2022-06-29 22:03:48 GMT 28.458481 -13.865525 0 182 24 0
2022-06-29 22:03:46 GMT 28.458710 -13.865512 0 182 24 0
2022-06-29 22:03:45 GMT 28.458824 -13.865512 0 182 24 0
2022-06-29 22:03:43 GMT 28.459053 -13.865499 0 182 23 0
2022-06-29 22:03:42 GMT 28.459133 -13.865499 0 182 23 0
2022-06-29 22:03:41 GMT 28.459232 -13.865500 0 182 23 0
2022-06-29 22:03:39 GMT 28.459465 -13.865486 0 182 22 0
2022-06-29 22:03:38 GMT 28.459568 -13.865486 0 182 22 0
2022-06-29 22:03:36 GMT 28.459768 -13.865473 0 182 21 0
2022-06-29 22:03:35 GMT 28.459873 -13.865473 0 182 21 0
2022-06-29 22:03:33 GMT 28.460060 -13.865472 0 182 19 0
2022-06-29 22:03:32 GMT 28.460154 -13.865460 0 182 18 0
2022-06-29 22:03:30 GMT 28.460339 -13.865460 0 182 16 0
2022-06-29 22:03:28 GMT 28.460503 -13.865460 0 182 15 0
2022-06-29 22:03:27 GMT 28.460632 -13.865446 0 180 13 0
2022-06-29 22:03:25 GMT 28.460688 -13.865446 0 182 13 0
2022-06-29 22:03:24 GMT 28.460747 -13.865446 0 182 12 0
2022-06-29 22:03:22 GMT 28.460861 -13.865433 0 182 11 0
2022-06-29 22:03:21 GMT 28.460918 -13.865433 0 185 10 0
2022-06-29 22:03:19 GMT 28.461061 -13.865419 0 194 9 0
2022-06-29 22:03:18 GMT 28.461061 -13.865419 0 194 9 0
2022-06-29 22:03:16 GMT 28.461142 -13.865406 0 205 8 0
2022-06-29 22:03:15 GMT 28.461178 -13.865406 0 208 8 0
2022-06-29 22:03:12 GMT 28.461296 -13.865327 0 230 7 0
2022-06-29 22:03:10 GMT 28.461329 -13.865298 0 239 7 0
2022-06-29 22:03:09 GMT 28.461342 -13.865274 0 241 7 0
2022-06-29 22:03:07 GMT 28.461376 -13.865221 0 253 7 0
2022-06-29 22:03:06 GMT 28.461399 -13.865195 0 255 7 0
2022-06-29 22:03:05 GMT 28.461422 -13.865129 0 267 8 0
2022-06-29 22:03:03 GMT 28.461422 -13.865089 0 272 8 0
2022-06-29 22:03:02 GMT 28.461433 -13.865002 0 286 9 0
2022-06-29 22:03:00 GMT 28.461433 -13.864957 0 292 10 0
2022-06-29 22:02:59 GMT 28.461420 -13.864908 0 300 10 0
2022-06-29 22:02:57 GMT 28.461386 -13.864854 -50 319 10 0
2022-06-29 22:02:56 GMT 28.461340 -13.864746 -50 323 12 0
2022-06-29 22:02:54 GMT 28.461296 -13.864706 0 326 12 0
2022-06-29 22:02:53 GMT 28.461250 -13.864667 0 329 14 0
2022-06-29 22:02:52 GMT 28.461155 -13.864598 0 329 15 0
2022-06-29 22:02:50 GMT 28.461102 -13.864561 0 329 18 0
2022-06-29 22:02:49 GMT 28.461048 -13.864531 0 329 20 0
2022-06-29 22:02:47 GMT 28.460907 -13.864442 0 331 21 0
2022-06-29 22:02:46 GMT 28.460829 -13.864396 0 331 23 0
2022-06-29 22:02:43 GMT 28.460548 -13.864221 0 331 25 0
2022-06-29 22:02:41 GMT 28.460358 -13.864125 0 334 25 0
2022-06-29 22:02:40 GMT 28.460258 -13.864073 0 337 25 0
2022-06-29 22:02:39 GMT 28.460049 -13.863967 0 340 25 0
2022-06-29 22:02:37 GMT 28.459946 -13.863927 0 340 25 0
2022-06-29 22:02:35 GMT 28.459717 -13.863835 0 343 24 0
2022-06-29 22:02:34 GMT 28.459602 -13.863809 0 345 24 0
2022-06-29 22:02:32 GMT 28.459351 -13.863736 0 348 23 0
2022-06-29 22:02:31 GMT 28.459232 -13.863696 0 348 23 0
2022-06-29 22:02:30 GMT 28.459042 -13.863663 0 351 22 0
2022-06-29 22:02:28 GMT 28.458942 -13.863642 0 351 22 0
2022-06-29 22:02:27 GMT 28.458733 -13.863615 0 354 22 0
2022-06-29 22:02:25 GMT 28.458641 -13.863597 0 357 22 0
2022-06-29 22:02:24 GMT 28.458538 -13.863597 0 357 22 0
2022-06-29 22:02:23 GMT 28.458338 -13.863588 0 0 23 0
2022-06-29 22:02:21 GMT 28.458241 -13.863597 0 0 23 0
2022-06-29 22:02:19 GMT 28.458046 -13.863602 0 0 23 0
2022-06-29 22:02:17 GMT 28.457714 -13.863597 0 0 25 0
2022-06-29 22:02:15 GMT 28.457581 -13.863602 0 0 25 0
2022-06-29 22:02:14 GMT 28.457531 -13.863597 0 0 26 0
2022-06-29 22:02:12 GMT 28.457256 -13.863610 0 0 27 0
2022-06-29 22:02:10 GMT 28.457062 -13.863610 0 0 28 0
2022-06-29 22:02:09 GMT 28.456936 -13.863610 0 0 29 0
2022-06-29 22:02:08 GMT 28.456833 -13.863610 0 0 29 0
2022-06-29 22:02:06 GMT 28.456501 -13.863624 0 0 32 0
2022-06-29 22:02:05 GMT 28.456409 -13.863624 0 0 32 0
2022-06-29 22:02:03 GMT 28.456139 -13.863642 0 2 35 0
2022-06-29 22:02:02 GMT 28.455929 -13.863650 0 2 36 0
2022-06-29 22:02:00 GMT 28.455614 -13.863669 0 2 39 0
2022-06-29 22:01:59 GMT 28.455450 -13.863669 0 2 43 0
2022-06-29 22:01:58 GMT 28.455288 -13.863682 0 0 47 0
2022-06-29 22:01:56 GMT 28.454987 -13.863696 0 2 56 0
2022-06-29 22:01:55 GMT 28.454763 -13.863696 0 2 59 0
2022-06-29 22:01:54 GMT 28.454496 -13.863709 0 0 63 0
2022-06-29 22:01:52 GMT 28.453960 -13.863723 0 0 72 0
2022-06-29 22:01:51 GMT 28.453671 -13.863736 0 0 76 0
2022-06-29 22:01:49 GMT 28.452927 -13.863750 -100 0 84 0
2022-06-29 22:01:47 GMT 28.452393 -13.863795 -100 1 87 0
2022-06-29 22:01:46 GMT 28.451614 -13.863795 -100 1 95 0
2022-06-29 22:01:44 GMT 28.451239 -13.863831 -100 1 99 0
2022-06-29 22:01:43 GMT 28.450308 -13.863831 -125 1 107 0
2022-06-29 22:01:41 GMT 28.449656 -13.863884 -125 1 116 0
2022-06-29 22:01:38 GMT 28.448318 -13.863901 -125 1 124 64
2022-06-29 22:01:37 GMT 28.447792 -13.863938 -125 1 128 64
2022-06-29 22:01:35 GMT 28.446350 -13.863938 -125 1 133 -64
2022-06-29 22:01:34 GMT 28.445745 -13.863992 -125 1 134 0
2022-06-29 22:01:32 GMT 28.444441 -13.864046 -100 1 135 -128
2022-06-29 22:01:31 GMT 28.443878 -13.864059 -100 1 134 -192
2022-06-29 22:01:30 GMT 28.442627 -13.864100 -75 1 134 -448
2022-06-29 22:01:28 GMT 28.442020 -13.864100 -75 1 134 -576
2022-06-29 22:01:24 GMT 28.439972 -13.864154 -25 1 134 -704
2022-06-29 22:01:23 GMT 28.439322 -13.864154 -25 1 133 -640
2022-06-29 22:01:22 GMT 28.438110 -13.864218 0 2 133 -640
2022-06-29 22:01:20 GMT 28.437469 -13.864218 0 2 133 -704
2022-06-29 22:01:18 GMT 28.436249 -13.864315 25 2 133 -576
2022-06-29 22:01:17 GMT 28.435684 -13.864324 50 2 133 -576
2022-06-29 22:01:15 GMT 28.434586 -13.864376 50 2 132 -704
2022-06-29 22:01:14 GMT 28.433735 -13.864423 75 1 132 -704
2022-06-29 22:01:13 GMT 28.432617 -13.864477 100 1 132 -640
2022-06-29 22:01:11 GMT 28.431976 -13.864482 100 1 132 -640
2022-06-29 22:01:09 GMT 28.430649 -13.864482 125 1 132 -640
2022-06-29 22:01:08 GMT 28.428568 -13.864585 175 1 132 -640
2022-06-29 22:01:05 GMT 28.428568 -13.864585 175 1 133 -640
2022-06-29 22:01:03 GMT 28.426987 -13.864640 200 1 134 -640
2022-06-29 22:01:02 GMT 28.426346 -13.864640 200 1 134 -704
2022-06-29 22:01:00 GMT 28.425121 -13.864692 225 1 135 -768
2022-06-29 22:00:59 GMT 28.424610 -13.864692 250 1 135 -768
2022-06-29 22:00:58 GMT 28.423447 -13.864746 275 1 135 -768
2022-06-29 22:00:56 GMT 28.422638 -13.864746 275 2 135 -768
2022-06-29 22:00:55 GMT 28.421310 -13.864799 300 2 135 -704
2022-06-29 22:00:53 GMT 28.420670 -13.864852 325 2 135 -640
2022-06-29 22:00:51 GMT 28.419069 -13.864908 350 1 135 -768
2022-06-29 22:00:49 GMT 28.418280 -13.864908 350 1 135 -768
2022-06-29 22:00:48 GMT 28.417648 -13.864957 375 1 135 -704
2022-06-29 22:00:47 GMT 28.417114 -13.864962 400 1 136 -768
2022-06-29 22:00:45 GMT 28.415766 -13.865015 400 0 136 -576
2022-06-29 22:00:44 GMT 28.415159 -13.865015 425 0 136 -576
2022-06-29 22:00:43 GMT 28.413902 -13.865015 450 0 136 -704
2022-06-29 22:00:41 GMT 28.413254 -13.865063 450 0 136 -704
2022-06-29 22:00:39 GMT 28.412109 -13.865063 475 1 136 -704
2022-06-29 22:00:38 GMT 28.411423 -13.865063 500 1 136 -704
2022-06-29 22:00:36 GMT 28.409527 -13.865123 525 1 136 -640
2022-06-29 22:00:35 GMT 28.409527 -13.865123 525 1 136 -704
2022-06-29 22:00:34 GMT 28.408176 -13.865177 550 1 136 -768
2022-06-29 22:00:32 GMT 28.406828 -13.865177 575 1 137 -768
2022-06-29 22:00:30 GMT 28.406315 -13.865231 575 1 137 -704
2022-06-29 22:00:29 GMT 28.405609 -13.865221 600 1 137 -640
2022-06-29 22:00:28 GMT 28.404360 -13.865285 625 1 137 -640
2022-06-29 22:00:26 GMT 28.403708 -13.865285 625 1 137 -704
2022-06-29 22:00:25 GMT 28.403000 -13.865327 650 1 137 -832
2022-06-29 22:00:24 GMT 28.401241 -13.865338 675 1 137 -768
2022-06-29 22:00:22 GMT 28.401241 -13.865338 675 1 137 -768
2022-06-29 22:00:21 GMT 28.399979 -13.865380 700 2 136 -704
2022-06-29 22:00:19 GMT 28.399286 -13.865446 725 2 136 -704
2022-06-29 22:00:18 GMT 28.398651 -13.865433 725 2 136 -704
2022-06-29 22:00:16 GMT 28.397284 -13.865500 750 2 135 -640
2022-06-29 22:00:15 GMT 28.396679 -13.865554 775 1 135 -640
2022-06-29 22:00:13 GMT 28.395609 -13.865554 775 1 135 -768
2022-06-29 22:00:12 GMT 28.394957 -13.865608 800 1 135 -768
2022-06-29 22:00:11 GMT 28.394350 -13.865608 800 1 135 -704
2022-06-29 22:00:09 GMT 28.393112 -13.865644 825 1 135 -768
2022-06-29 22:00:08 GMT 28.392397 -13.865662 850 1 135 -768
2022-06-29 22:00:07 GMT 28.391745 -13.865715 850 1 135 -768
2022-06-29 22:00:05 GMT 28.390488 -13.865715 875 1 135 -832
2022-06-29 22:00:04 GMT 28.389771 -13.865750 900 1 135 -768
2022-06-29 22:00:02 GMT 28.388489 -13.865802 925 1 135 -768
2022-06-29 22:00:01 GMT 28.387848 -13.865802 950 1 135 -832
2022-06-29 22:00:00 GMT 28.387276 -13.865823 950 1 135 -832
2022-06-29 21:59:58 GMT 28.385971 -13.865877 975 1 135 -704
2022-06-29 21:59:57 GMT 28.385366 -13.865877 1,000 1 135 -640
2022-06-29 21:59:55 GMT 28.383728 -13.865908 1,025 1 134 -704
2022-06-29 21:59:54 GMT 28.383728 -13.865908 1,025 2 133 -768
2022-06-29 21:59:51 GMT 28.381596 -13.865985 1,075 1 132 -768
2022-06-29 21:59:50 GMT 28.381073 -13.866014 1,075 1 131 -640
2022-06-29 21:59:48 GMT 28.379827 -13.866092 1,100 1 131 -640
2022-06-29 21:59:47 GMT 28.379288 -13.866067 1,100 1 131 -640
2022-06-29 21:59:45 GMT 28.377914 -13.866119 1,125 1 131 -704
2022-06-29 21:59:44 GMT 28.377220 -13.866146 1,150 1 131 -640
2022-06-29 21:59:43 GMT 28.376148 -13.866200 1,175 1 131 -640
2022-06-29 21:59:41 GMT 28.375534 -13.866172 1,175 1 131 -640
2022-06-29 21:59:39 GMT 28.374613 -13.866200 1,200 1 131 -640
2022-06-29 21:59:38 GMT 28.373682 -13.866254 1,225 1 132 -640
2022-06-29 21:59:37 GMT 28.373016 -13.866278 1,225 1 132 -640
2022-06-29 21:59:36 GMT 28.371866 -13.866308 1,250 1 132 -640
2022-06-29 21:59:34 GMT 28.371277 -13.866331 1,250 1 132 -640
2022-06-29 21:59:33 GMT 28.369911 -13.866416 1,275 1 132 -576
2022-06-29 21:59:31 GMT 28.369446 -13.866416 1,300 1 133 -576
2022-06-29 21:59:30 GMT 28.368793 -13.866416 1,300 2 133 -640
2022-06-29 21:59:28 GMT 28.367477 -13.866489 1,325 2 134 -768
2022-06-29 21:59:27 GMT 28.366884 -13.866523 1,325 2 134 -768
2022-06-29 21:59:26 GMT 28.365582 -13.866577 1,350 2 135 -704
2022-06-29 21:59:24 GMT 28.365116 -13.866577 1,375 2 135 -704
2022-06-29 21:59:23 GMT 28.363859 -13.866631 1,400 2 136 -576
2022-06-29 21:59:21 GMT 28.363209 -13.866685 1,400 2 136 -640
2022-06-29 21:59:20 GMT 28.361765 -13.866739 1,425 2 137 -768
2022-06-29 21:59:18 GMT 28.361067 -13.866739 1,450 2 138 -832
2022-06-29 21:59:17 GMT 28.360415 -13.866793 1,450 2 139 -768
2022-06-29 21:59:14 GMT 28.358505 -13.866859 1,475 2 141 -704
2022-06-29 21:59:11 GMT 28.356876 -13.866900 1,525 1 142 -768
2022-06-29 21:59:10 GMT 28.356272 -13.866954 1,525 1 143 -768
2022-06-29 21:59:09 GMT 28.355438 -13.866964 1,550 1 143 -768
2022-06-29 21:59:08 GMT 28.354706 -13.866964 1,550 1 144 -704
2022-06-29 21:59:07 GMT 28.352640 -13.867062 1,600 1 144 -768
2022-06-29 21:59:05 GMT 28.352640 -13.867062 1,600 1 144 -768
2022-06-29 21:59:04 GMT 28.352036 -13.867062 1,600 1 144 -832
2022-06-29 21:59:02 GMT 28.350592 -13.867116 1,650 1 146 -768
2022-06-29 21:59:00 GMT 28.348637 -13.867170 1,675 1 146 -832
2022-06-29 21:58:59 GMT 28.348637 -13.867170 1,675 1 147 -832
2022-06-29 21:58:58 GMT 28.347799 -13.867170 1,700 1 147 -832
2022-06-29 21:58:57 GMT 28.347473 -13.867176 1,700 1 147 -768
2022-06-29 21:58:55 GMT 28.345779 -13.867229 1,725 1 148 -832
2022-06-29 21:58:53 GMT 28.344540 -13.867277 1,750 1 148 -704
2022-06-29 21:58:52 GMT 28.343903 -13.867334 1,775 1 149 -576
2022-06-29 21:58:51 GMT 28.343283 -13.867331 1,775 1 149 -640
2022-06-29 21:58:49 GMT 28.341934 -13.867387 1,800 1 149 -704
2022-06-29 21:58:47 GMT 28.340286 -13.867440 1,825 2 149 -704
2022-06-29 21:58:45 GMT 28.337511 -13.867547 1,875 2 149 -768
2022-06-29 21:58:43 GMT 28.337511 -13.867547 1,875 2 149 -832
2022-06-29 21:58:41 GMT 28.336302 -13.867600 1,900 2 149 -832
2022-06-29 21:58:40 GMT 28.335602 -13.867654 1,925 2 149 -832
2022-06-29 21:58:38 GMT 28.334244 -13.867704 1,950 2 149 -768
2022-06-29 21:58:37 GMT 28.333321 -13.867762 1,950 2 149 -704
2022-06-29 21:58:30 GMT 28.328619 -13.867924 2,050 1 150 -832
2022-06-29 21:58:26 GMT 28.325781 -13.867977 2,100 0 150 -768
2022-06-29 21:58:19 GMT 28.321449 -13.868031 2,175 0 151 -768
2022-06-29 21:58:15 GMT 28.318705 -13.868085 2,250 0 150 -704
2022-06-29 21:58:10 GMT 28.314194 -13.868127 2,300 0 151 -704
2022-06-29 21:58:05 GMT 28.311674 -13.868139 2,350 0 151 -704
2022-06-29 21:57:59 GMT 28.307299 -13.868031 2,425 0 152 -768
2022-06-29 21:57:54 GMT 28.304214 -13.868021 2,500 0 151 -768
2022-06-29 21:57:49 GMT 28.300222 -13.868085 2,550 1 151 -384
2022-06-29 21:57:45 GMT 28.297615 -13.868139 2,575 1 150 -320
2022-06-29 21:57:38 GMT 28.292816 -13.868285 2,575 2 150 0
2022-06-29 21:57:35 GMT 28.290802 -13.868391 2,575 3 150 0
2022-06-29 21:57:29 GMT 28.285698 -13.868785 2,575 6 149 -64
2022-06-29 21:57:25 GMT 28.283752 -13.869024 2,575 8 149 0
2022-06-29 21:57:18 GMT 28.278622 -13.869970 2,575 12 149 64
2022-06-29 21:57:15 GMT 28.276611 -13.870451 2,575 12 149 64
2022-06-29 21:57:05 GMT 28.269871 -13.872016 2,550 12 149 64
2022-06-29 21:56:58 GMT 28.265076 -13.873356 2,550 11 150 -128
2022-06-29 21:56:54 GMT 28.262283 -13.874095 2,575 359 151 0
2022-06-29 21:56:45 GMT 28.256325 -13.872717 2,575 328 154 64
2022-06-29 21:56:43 GMT 28.255096 -13.871929 2,575 320 156 0
2022-06-29 21:56:38 GMT 28.251808 -13.868139 2,550 294 166 64
2022-06-29 21:56:35 GMT 28.251295 -13.867008 2,550 287 169 0
2022-06-29 21:56:33 GMT 28.250690 -13.865338 2,550 280 173 0
2022-06-29 21:56:25 GMT 28.249992 -13.857907 2,575 257 187 -128
2022-06-29 21:56:23 GMT 28.250273 -13.855860 2,575 254 188 -192
2022-06-29 21:56:15 GMT 28.252670 -13.848689 2,625 242 194 -704
2022-06-29 21:56:13 GMT 28.253723 -13.846471 2,675 241 194 -768
2022-06-29 21:56:05 GMT 28.257202 -13.839551 2,775 241 196 -704
2022-06-29 21:56:03 GMT 28.258186 -13.837603 2,775 241 196 -640
2022-06-29 21:55:55 GMT 28.261642 -13.830889 2,825 241 197 -128
2022-06-29 21:55:53 GMT 28.262833 -13.828460 2,825 241 196 0
2022-06-29 21:55:44 GMT 28.266937 -13.820262 2,825 240 189 -192
2022-06-29 21:55:41 GMT 28.268005 -13.818318 2,850 240 189 -256
2022-06-29 21:55:36 GMT 28.270430 -13.813638 2,850 240 188 -64
2022-06-29 21:55:33 GMT 28.271500 -13.811699 2,850 240 188 -128
2022-06-29 21:55:24 GMT 28.276062 -13.803083 2,875 238 191 -128
2022-06-29 21:55:14 GMT 28.281326 -13.794655 2,925 221 198 -256
2022-06-29 21:55:05 GMT 28.287188 -13.789565 2,975 207 201 -448
2022-06-29 21:55:03 GMT 28.288816 -13.788542 2,975 205 201 -448
2022-06-29 21:54:55 GMT 28.295708 -13.784988 3,050 205 203 -384
2022-06-29 21:54:53 GMT 28.297760 -13.783933 3,050 205 204 -384
2022-06-29 21:54:45 GMT 28.304413 -13.780518 3,100 204 207 -320
2022-06-29 21:54:43 GMT 28.306366 -13.779549 3,125 204 207 -320
2022-06-29 21:54:34 GMT 28.314049 -13.775617 3,175 206 210 -384
2022-06-29 21:54:32 GMT 28.315445 -13.774863 3,175 206 211 -384
2022-06-29 21:54:23 GMT 28.324631 -13.769831 3,250 205 216 -576
2022-06-29 21:54:12 GMT 28.333462 -13.765223 3,325 206 224 -448
2022-06-29 21:54:02 GMT 28.343609 -13.759784 3,375 206 231 -192
2022-06-29 21:53:53 GMT 28.351639 -13.755305 3,400 207 240 -320
2022-06-29 21:53:51 GMT 28.353897 -13.753967 3,425 207 241 -384
2022-06-29 21:53:43 GMT 28.361801 -13.749495 3,450 207 249 -256
2022-06-29 21:53:41 GMT 28.364372 -13.748043 3,475 207 251 -192
2022-06-29 21:53:32 GMT 28.374298 -13.742418 3,500 207 259 -256
2022-06-29 21:53:21 GMT 28.385553 -13.735980 3,575 207 264 -640
2022-06-29 21:53:13 GMT 28.394485 -13.730956 3,675 207 268 -704
2022-06-29 21:53:11 GMT 28.397377 -13.729302 3,700 207 269 -704
2022-06-29 21:53:03 GMT 28.405663 -13.724617 3,775 207 271 -576
2022-06-29 21:53:01 GMT 28.408127 -13.723191 3,800 207 274 -576
2022-06-29 21:52:53 GMT 28.417114 -13.718100 3,875 207 277 -512
2022-06-29 21:52:50 GMT 28.420349 -13.716272 3,900 207 278 -512
2022-06-29 21:52:41 GMT 28.431871 -13.709753 3,975 207 285 -448
2022-06-29 21:52:32 GMT 28.442642 -13.703754 4,050 207 291 -448
2022-06-29 21:52:29 GMT 28.445047 -13.702428 4,075 207 291 -448
2022-06-29 21:52:23 GMT 28.453262 -13.697944 4,125 207 296 -704
2022-06-29 21:52:20 GMT 28.456833 -13.695937 4,175 207 296 -960
2022-06-29 21:52:11 GMT 28.466833 -13.690311 4,350 207 296 -1408
2022-06-29 21:52:09 GMT 28.469421 -13.688859 4,400 207 296 -1472
2022-06-29 21:52:03 GMT 28.477707 -13.684211 4,575 207 295 -1664
2022-06-29 21:51:59 GMT 28.481644 -13.681993 4,625 207 295 -1600
2022-06-29 21:51:53 GMT 28.490156 -13.677225 4,825 207 296 -1216
2022-06-29 21:51:49 GMT 28.494205 -13.674963 4,900 207 296 -1792
2022-06-29 21:51:43 GMT 28.502197 -13.670478 5,125 207 294 -2112
2022-06-29 21:51:39 GMT 28.507187 -13.667626 5,275 207 294 -2112
2022-06-29 21:51:33 GMT 28.514557 -13.663506 5,450 207 294 -1856
2022-06-29 21:51:27 GMT 28.521744 -13.659386 5,650 207 294 -1920
2022-06-29 21:51:23 GMT 28.526747 -13.656544 5,775 207 295 -1984
2022-06-29 21:51:17 GMT 28.533730 -13.652559 5,975 207 295 -1856
2022-06-29 21:51:13 GMT 28.539230 -13.649456 6,125 207 295 -1856
2022-06-29 21:51:08 GMT 28.544724 -13.646340 6,250 207 295 -1856
2022-06-29 21:51:03 GMT 28.551361 -13.642590 6,425 207 296 -1920
2022-06-29 21:50:57 GMT 28.558594 -13.638523 6,625 207 296 -1984
2022-06-29 21:50:53 GMT 28.563538 -13.635723 6,750 207 296 -1856
2022-06-29 21:50:47 GMT 28.570770 -13.631604 6,925 207 296 -1728
2022-06-29 21:50:43 GMT 28.575672 -13.628809 7,025 207 297 -1792
2022-06-29 21:50:37 GMT 28.583075 -13.624555 7,200 207 298 -1856
2022-06-29 21:50:32 GMT 28.588894 -13.621270 7,350 207 298 -1856
2022-06-29 21:50:27 GMT 28.595364 -13.617608 7,500 207 299 -1792
2022-06-29 21:50:22 GMT 28.600950 -13.614430 7,650 207 300 -1920
2022-06-29 21:50:17 GMT 28.607933 -13.610499 7,800 207 302 -1088
2022-06-29 21:50:12 GMT 28.613205 -13.607518 7,875 207 304 -1024
2022-06-29 21:50:07 GMT 28.620176 -13.603552 7,975 207 306 -1152
2022-06-29 21:50:02 GMT 28.625902 -13.600320 8,050 207 307 -1088
2022-06-29 21:49:55 GMT 28.634445 -13.595475 8,175 207 309 -896
2022-06-29 21:49:52 GMT 28.639206 -13.592834 8,225 207 310 -1024
2022-06-29 21:49:45 GMT 28.647038 -13.588418 8,375 207 309 -1664
2022-06-29 21:49:42 GMT 28.651552 -13.585887 8,475 207 311 -1792
2022-06-29 21:49:38 GMT 28.659840 -13.581202 8,675 207 312 -1728
2022-06-29 21:49:32 GMT 28.664795 -13.578468 8,775 207 313 -1856
2022-06-29 21:49:26 GMT 28.678366 -13.570754 9,550 207 323 -768
2022-06-29 21:49:21 GMT 28.678366 -13.570754 9,150 207 313 -2560
2022-06-29 21:49:16 GMT 28.685907 -13.566500 9,375 207 313 -2112
2022-06-29 21:49:12 GMT 28.691116 -13.563520 9,450 207 317 -960
2022-06-29 21:49:05 GMT 28.700638 -13.558185 9,550 207 323 -768
2022-06-29 21:49:02 GMT 28.704668 -13.555944 9,575 207 325 -768
2022-06-29 21:48:55 GMT 28.713932 -13.550720 9,650 207 331 -704
2022-06-29 21:48:52 GMT 28.718353 -13.548255 9,700 207 335 -768
2022-06-29 21:48:46 GMT 28.726776 -13.543502 9,775 207 343 -832
2022-06-29 21:48:42 GMT 28.732635 -13.540227 9,825 207 349 -896
2022-06-29 21:48:36 GMT 28.745029 -13.533271 9,950 207 359 -832
2022-06-29 21:48:32 GMT 28.747421 -13.531934 9,975 207 361 -832
2022-06-29 21:48:25 GMT 28.757366 -13.526324 10,050 207 368 -704
2022-06-29 21:48:22 GMT 28.762114 -13.523631 10,100 207 374 -704
2022-06-29 21:48:16 GMT 28.773474 -13.517169 10,250 207 381 -1536
2022-06-29 21:48:12 GMT 28.778406 -13.514422 10,325 207 384 -1920
2022-06-29 21:48:05 GMT 28.794933 -13.505105 11,100 207 394 -3200
2022-06-29 21:48:01 GMT 28.794933 -13.505105 10,700 207 390 -2368
2022-06-29 21:47:56 GMT 28.807800 -13.497813 11,100 207 394 -3200
2022-06-29 21:47:51 GMT 28.811041 -13.496004 11,175 207 395 -3200
2022-06-29 21:47:45 GMT 28.822260 -13.489649 11,450 207 397 -3136
2022-06-29 21:47:41 GMT 28.827850 -13.486510 11,700 207 398 -3072
2022-06-29 21:47:35 GMT 28.844467 -13.477055 12,150 207 401 -3520
2022-06-29 21:47:31 GMT 28.844467 -13.477055 12,275 207 401 -3584
2022-06-29 21:47:26 GMT 28.852657 -13.472416 12,575 207 402 -3584
2022-06-29 21:47:24 GMT 28.856800 -13.470046 12,750 207 404 -3392
2022-06-29 21:47:21 GMT 28.860806 -13.467784 12,850 207 404 -3328
2022-06-29 21:47:16 GMT 28.870010 -13.462477 13,150 207 405 -3392
2022-06-29 21:47:14 GMT 28.874222 -13.460101 13,375 207 406 -3584
2022-06-29 21:47:11 GMT 28.878250 -13.457777 13,450 207 406 -3584
2022-06-29 21:47:04 GMT 28.890060 -13.451016 13,850 207 408 -3520
2022-06-29 21:47:01 GMT 28.894463 -13.448504 14,000 207 409 -3456
2022-06-29 21:46:56 GMT 28.903633 -13.443280 14,300 207 410 -3392
2022-06-29 21:46:53 GMT 28.909424 -13.439977 14,500 207 411 -3328
2022-06-29 21:46:50 GMT 28.912804 -13.438003 14,600 207 413 -3264
2022-06-29 21:46:45 GMT 28.921881 -13.432833 14,900 207 414 -3392
2022-06-29 21:46:41 GMT 28.929609 -13.428417 15,150 207 415 -3520
2022-06-29 21:46:36 GMT 28.937531 -13.423867 15,425 207 419 -3264
2022-06-29 21:46:31 GMT 28.946548 -13.418691 15,700 207 421 -2944
2022-06-29 21:46:25 GMT 28.956848 -13.412775 16,025 207 422 -3712
2022-06-29 21:46:21 GMT 28.964539 -13.408338 16,300 207 422 -4480
2022-06-29 21:46:16 GMT 28.972715 -13.403643 16,600 207 423 -2944
2022-06-29 21:46:11 GMT 28.981468 -13.398581 16,850 207 423 -3008
2022-06-29 21:46:06 GMT 28.990080 -13.393626 17,125 207 424 -3456
2022-06-29 21:46:01 GMT 28.999741 -13.388108 17,450 207 426 -3520
2022-06-29 21:45:55 GMT 29.008608 -13.383071 17,750 207 427 -3840
2022-06-29 21:45:51 GMT 29.017273 -13.378126 18,075 207 427 -3904
2022-06-29 21:45:46 GMT 29.026112 -13.373054 18,400 207 428 -3712
2022-06-29 21:45:41 GMT 29.035538 -13.367668 18,700 207 430 -3712
2022-06-29 21:45:36 GMT 29.043549 -13.363125 19,000 207 430 -3840
2022-06-29 21:45:31 GMT 29.053207 -13.357738 19,350 206 430 -3904
2022-06-29 21:45:26 GMT 29.061817 -13.352966 19,650 206 432 -3776
2022-06-29 21:45:21 GMT 29.071220 -13.347796 19,975 206 432 -3712
2022-06-29 21:45:10 GMT 29.090424 -13.337297 20,600 206 436 -3328
2022-06-29 21:45:06 GMT 29.097885 -13.333177 20,825 206 439 -3200
2022-06-29 21:45:00 GMT 29.107811 -13.327816 21,125 206 441 -3392
2022-06-29 21:44:56 GMT 29.116470 -13.323088 21,400 206 442 -3520
2022-06-29 21:44:50 GMT 29.127409 -13.317153 21,700 206 446 -3136
2022-06-29 21:44:46 GMT 29.134533 -13.313276 21,925 206 448 -3008
2022-06-29 21:44:40 GMT 29.146170 -13.306921 22,300 206 448 -4160
2022-06-29 21:44:36 GMT 29.154037 -13.302612 22,625 206 445 -5120
2022-06-29 21:44:31 GMT 29.163712 -13.297313 23,125 206 441 -6336
2022-06-29 21:44:29 GMT 29.165396 -13.296419 23,200 206 441 -6336
2022-06-29 21:44:25 GMT 29.172937 -13.292272 23,625 206 439 -6016
2022-06-29 21:44:19 GMT 29.184494 -13.285957 24,050 206 439 -4288
2022-06-29 21:44:16 GMT 29.190720 -13.282525 24,300 206 440 -2880
2022-06-29 21:44:09 GMT 29.203033 -13.275763 24,575 206 442 -2048
2022-06-29 21:44:06 GMT 29.209341 -13.272346 24,700 206 442 -2560
2022-06-29 21:44:00 GMT 29.221390 -13.265727 25,050 206 441 -3520
2022-06-29 21:43:55 GMT 29.228577 -13.261819 25,275 206 441 -3712
2022-06-29 21:43:49 GMT 29.240067 -13.255639 25,625 206 442 -2816
2022-06-29 21:43:46 GMT 29.246349 -13.252258 25,750 206 443 -2496
2022-06-29 21:43:39 GMT 29.259155 -13.245339 26,050 206 445 -2368
2022-06-29 21:43:36 GMT 29.264969 -13.242223 26,150 206 445 -2368
2022-06-29 21:43:29 GMT 29.278061 -13.235198 26,475 206 447 -2368
2022-06-29 21:43:26 GMT 29.283686 -13.232171 26,550 206 448 -2432
2022-06-29 21:43:20 GMT 29.293648 -13.226785 26,775 206 450 -2432
2022-06-29 21:43:18 GMT 29.297424 -13.224792 26,850 206 451 -2432
2022-06-29 21:43:15 GMT 29.303284 -13.221623 26,975 206 452 -2432
2022-06-29 21:43:10 GMT 29.312408 -13.216714 27,175 206 453 -2368
2022-06-29 21:43:06 GMT 29.321320 -13.211905 27,350 206 454 -2432
2022-06-29 21:43:02 GMT 29.328934 -13.207774 27,525 206 455 -2432
2022-06-29 21:42:58 GMT 29.336336 -13.203681 27,675 207 456 -2432
2022-06-29 21:42:54 GMT 29.341644 -13.200707 27,800 207 457 -2368
2022-06-29 21:42:48 GMT 29.355652 -13.192626 28,075 208 460 -2368
2022-06-29 21:42:45 GMT 29.359863 -13.190143 28,175 208 461 -2368
2022-06-29 21:42:40 GMT 29.369900 -13.184240 28,375 208 462 -2368
2022-06-29 21:42:38 GMT 29.375813 -13.180739 28,475 208 463 -2368
2022-06-29 21:42:35 GMT 29.378494 -13.179157 28,550 208 464 -2368
2022-06-29 21:42:29 GMT 29.389591 -13.172607 28,800 208 466 -2432
2022-06-29 21:42:25 GMT 29.398390 -13.167384 28,975 208 467 -2432
2022-06-29 21:42:19 GMT 29.408817 -13.161190 29,200 208 469 -2432
2022-06-29 21:42:15 GMT 29.417679 -13.155917 29,375 208 471 -2368
2022-06-29 21:42:10 GMT 29.427979 -13.149842 29,600 208 473 -2304
2022-06-29 21:42:07 GMT 29.440613 -13.142341 29,875 208 474 -2688
2022-06-29 21:41:59 GMT 29.447662 -13.138170 30,075 208 474 -3264
2022-06-29 21:41:55 GMT 29.456394 -13.132917 30,300 208 474 -3328
2022-06-29 21:41:49 GMT 29.468491 -13.125704 30,650 208 475 -3072
2022-06-29 21:41:44 GMT 29.477249 -13.120476 30,875 208 475 -2944
2022-06-29 21:41:40 GMT 29.485840 -13.115352 31,125 208 474 -3392
2022-06-29 21:41:35 GMT 29.495218 -13.109759 31,425 208 473 -3776
2022-06-29 21:41:26 GMT 29.512299 -13.099612 32,000 208 471 -3968
2022-06-29 21:41:24 GMT 29.517105 -13.096760 32,150 208 468 -4032
2022-06-29 21:41:15 GMT 29.534225 -13.086565 32,725 208 465 -3968
2022-06-29 21:41:10 GMT 29.544342 -13.080544 33,100 208 462 -4032
2022-06-29 21:41:04 GMT 29.555178 -13.074054 33,450 208 460 -3840
2022-06-29 21:41:00 GMT 29.563843 -13.068871 33,750 208 458 -3904
2022-06-29 21:40:55 GMT 29.572311 -13.063801 34,050 208 454 -4160
2022-06-29 21:40:49 GMT 29.583893 -13.056881 34,450 208 452 -4096
2022-06-29 21:40:44 GMT 29.592407 -13.051811 34,725 208 451 -3264
2022-06-29 21:40:40 GMT 29.600784 -13.046846 34,900 208 453 -1408
2022-06-29 21:40:35 GMT 29.611366 -13.040556 34,975 208 455 -192
2022-06-29 21:40:29 GMT 29.620377 -13.035173 34,975 208 457 0
2022-06-29 21:40:24 GMT 29.630732 -13.029031 34,975 208 460 0
2022-06-29 21:40:19 GMT 29.639206 -13.023969 35,000 208 461 -64
2022-06-29 21:40:14 GMT 29.649027 -13.018045 35,000 208 461 0
2022-06-29 21:40:10 GMT 29.657965 -13.012767 35,000 208 461 0
2022-06-29 21:40:05 GMT 29.666290 -13.007760 35,000 208 461 0
2022-06-29 21:40:03 GMT 29.669128 -13.006069 35,000 208 461 0
2022-06-29 21:39:58 GMT 29.678787 -13.000312 35,000 208 461 0
2022-06-29 21:39:55 GMT 29.685837 -12.996140 35,000 208 461 0
2022-06-29 21:39:53 GMT 29.688446 -12.994555 35,000 208 461 0
2022-06-29 21:39:49 GMT 29.695496 -12.990329 35,000 208 461 0
2022-06-29 21:39:45 GMT 29.704191 -12.985140 35,000 208 461 0
2022-06-29 21:39:43 GMT 29.707823 -12.982986 35,000 208 461 0
2022-06-29 21:39:39 GMT 29.714630 -12.978921 35,000 208 461 0
2022-06-29 21:39:35 GMT 29.723557 -12.973561 35,000 208 461 0
2022-06-29 21:39:33 GMT 29.727173 -12.971420 35,000 208 462 0
2022-06-29 21:39:29 GMT 29.733810 -12.967459 35,000 208 462 0
2022-06-29 21:39:23 GMT 29.746508 -12.959828 35,000 208 462 0
2022-06-29 21:39:18 GMT 29.754868 -12.954888 35,000 208 462 0
2022-06-29 21:39:12 GMT 29.766060 -12.948196 35,000 208 462 0
2022-06-29 21:39:08 GMT 29.773270 -12.943902 35,000 208 462 0
2022-06-29 21:39:02 GMT 29.786404 -12.936078 35,000 208 462 0
2022-06-29 21:38:58 GMT 29.791897 -12.932793 35,000 208 462 0
2022-06-29 21:38:52 GMT 29.804993 -12.924992 35,000 208 462 0
2022-06-29 21:38:48 GMT 29.810898 -12.921454 35,000 208 462 0
2022-06-29 21:38:41 GMT 29.825134 -12.912975 35,000 208 462 0
2022-06-29 21:38:38 GMT 29.829483 -12.910362 35,000 208 462 0
2022-06-29 21:38:31 GMT 29.844131 -12.901647 35,000 208 462 0
2022-06-29 21:38:28 GMT 29.849258 -12.898583 35,000 208 462 0
2022-06-29 21:38:24 GMT 29.857208 -12.893856 35,000 208 462 0
2022-06-29 21:38:22 GMT 29.863266 -12.890185 35,000 208 462 0
2022-06-29 21:38:19 GMT 29.866892 -12.888040 35,000 208 462 0
2022-06-29 21:38:15 GMT 29.874664 -12.883371 35,000 208 461 0
2022-06-29 21:38:09 GMT 29.886257 -12.876461 35,000 208 462 0
2022-06-29 21:38:05 GMT 29.894403 -12.871614 35,000 208 462 0
2022-06-29 21:37:58 GMT 29.905609 -12.864885 35,000 208 462 0
2022-06-29 21:37:52 GMT 29.918657 -12.857080 35,000 208 462 0
2022-06-29 21:37:49 GMT 29.924377 -12.853681 35,000 208 462 0
2022-06-29 21:37:39 GMT 29.944448 -12.841644 35,000 208 461 0
2022-06-29 21:37:29 GMT 29.963058 -12.830469 35,000 208 461 0
2022-06-29 21:37:19 GMT 29.981827 -12.819160 35,000 208 462 0
2022-06-29 21:37:12 GMT 29.992813 -12.812536 35,000 208 462 0
2022-06-29 21:37:09 GMT 30.000729 -12.807751 35,000 208 462 0
2022-06-29 21:37:04 GMT 30.009064 -12.802734 35,000 208 462 0
2022-06-29 21:37:01 GMT 30.015701 -12.798695 35,000 208 461 0
2022-06-29 21:36:58 GMT 30.020607 -12.795721 35,000 208 461 0
2022-06-29 21:36:54 GMT 30.028564 -12.790940 35,000 208 461 0
2022-06-29 21:36:48 GMT 30.038576 -12.784845 35,000 208 461 0
2022-06-29 21:36:44 GMT 30.047468 -12.779462 35,000 208 461 0
2022-06-29 21:36:40 GMT 30.055023 -12.774892 35,000 208 461 0
2022-06-29 21:36:37 GMT 30.058781 -12.772595 35,000 208 461 0
2022-06-29 21:36:31 GMT 30.072235 -12.764444 35,000 208 461 0
2022-06-29 21:36:27 GMT 30.078285 -12.760785 35,000 208 461 0
2022-06-29 21:36:23 GMT 30.085831 -12.756204 35,000 208 461 0
2022-06-29 21:36:17 GMT 30.096581 -12.749689 35,000 208 461 0
2022-06-29 21:36:14 GMT 30.103983 -12.745239 35,000 208 461 0
2022-06-29 21:36:07 GMT 30.116831 -12.737439 35,000 208 460 0
2022-06-29 21:36:03 GMT 30.124186 -12.732990 35,000 208 460 0
2022-06-29 21:35:57 GMT 30.135546 -12.726178 35,000 208 460 0
2022-06-29 21:35:53 GMT 30.142914 -12.721737 35,000 208 460 0
2022-06-29 21:35:47 GMT 30.154404 -12.714844 35,000 208 460 0
2022-06-29 21:35:37 GMT 30.173492 -12.703319 35,000 208 459 0
2022-06-29 21:35:28 GMT 30.193270 -12.691296 35,000 208 459 0
2022-06-29 21:35:17 GMT 30.212082 -12.679892 35,000 208 458 0
2022-06-29 21:35:07 GMT 30.231079 -12.668367 35,000 208 458 0
2022-06-29 21:34:56 GMT 30.250668 -12.656470 35,000 208 458 0
2022-06-29 21:34:47 GMT 30.270035 -12.644714 35,000 208 458 0
2022-06-29 21:34:37 GMT 30.287155 -12.634331 35,000 208 458 0
2022-06-29 21:34:26 GMT 30.308578 -12.621352 35,000 208 458 0
2022-06-29 21:34:15 GMT 30.328178 -12.609503 35,000 208 459 0
2022-06-29 21:34:06 GMT 30.347214 -12.598033 35,000 208 458 0
2022-06-29 21:33:57 GMT 30.361555 -12.589398 35,000 208 459 0
2022-06-29 21:33:55 GMT 30.366072 -12.586707 35,000 208 458 0
2022-06-29 21:33:47 GMT 30.382038 -12.576984 35,000 208 458 0
2022-06-29 21:33:45 GMT 30.386183 -12.574457 35,000 208 458 0
2022-06-29 21:33:34 GMT 30.405174 -12.562921 35,000 208 459 0
2022-06-29 21:33:27 GMT 30.417604 -12.555341 35,000 208 459 0
2022-06-29 21:33:25 GMT 30.423424 -12.551770 35,000 208 459 0
2022-06-29 21:33:22 GMT 30.427551 -12.549241 35,000 208 459 0
2022-06-29 21:33:17 GMT 30.436785 -12.543585 35,000 208 459 0
2022-06-29 21:33:14 GMT 30.443163 -12.539685 35,000 208 458 0
2022-06-29 21:33:04 GMT 30.462616 -12.527968 35,000 206 462 0
2022-06-29 21:32:53 GMT 30.486036 -12.515405 35,000 205 461 0
2022-06-29 21:32:46 GMT 30.496948 -12.509658 35,000 205 461 0
2022-06-29 21:32:41 GMT 30.506613 -12.504474 35,000 205 461 0
2022-06-29 21:32:33 GMT 30.522583 -12.495979 35,000 205 461 0
2022-06-29 21:32:23 GMT 30.542175 -12.485585 35,000 205 462 0
2022-06-29 21:32:15 GMT 30.556377 -12.478052 35,000 205 462 0
2022-06-29 21:32:12 GMT 30.564148 -12.473952 35,000 205 462 0
2022-06-29 21:32:02 GMT 30.583237 -12.463824 35,000 205 462 0
2022-06-29 21:31:52 GMT 30.616102 -12.446356 35,000 205 462 0
2022-06-29 21:31:44 GMT 30.616102 -12.446356 35,000 205 462 0
2022-06-29 21:31:41 GMT 30.622154 -12.443170 35,000 205 462 0
2022-06-29 21:31:33 GMT 30.645676 -12.430599 35,000 205 462 0
2022-06-29 21:31:21 GMT 30.661863 -12.422021 35,000 205 462 0
2022-06-29 21:30:46 GMT 30.728256 -12.386600 35,000 205 463 0
2022-06-29 21:30:39 GMT 30.741898 -12.379330 35,000 205 463 0
2022-06-29 21:30:30 GMT 30.760391 -12.369475 35,000 205 463 0
2022-06-29 21:30:20 GMT 30.780075 -12.359027 35,000 205 463 0
2022-06-29 21:30:00 GMT 30.818094 -12.338745 35,000 205 463 0
2022-06-29 21:29:59 GMT 30.820450 -12.337485 35,000 205 463 0
2022-06-29 21:29:50 GMT 30.839693 -12.327209 35,000 205 462 0
2022-06-29 21:29:33 GMT 30.873211 -12.309302 35,000 205 462 0
2022-06-29 21:29:30 GMT 30.879410 -12.305926 35,000 205 462 0
2022-06-29 21:29:19 GMT 30.899048 -12.295404 35,000 205 463 0
2022-06-29 21:29:09 GMT 30.919857 -12.284198 35,000 205 463 0
2022-06-29 21:26:57 GMT 31.175400 -12.146732 35,000 205 462 0
2022-06-29 21:26:55 GMT 31.179293 -12.144617 35,000 205 462 0
2022-06-29 21:26:45 GMT 31.198147 -12.134509 35,000 205 462 0
2022-06-29 21:26:36 GMT 31.217606 -12.124059 35,000 205 462 0
2022-06-29 21:26:26 GMT 31.236282 -12.114042 35,000 205 462 0
We lost coverage of the aircraft here for a total of 10 minutes
2022-06-29 21:16:00 GMT 32.455032 -11.445612 35,000 206 464 0
2022-06-29 21:15:59 GMT 32.456955 -11.444513 35,000 206 464 0
2022-06-29 21:15:50 GMT 32.474842 -11.434582 35,000 206 464 0
2022-06-29 21:15:39 GMT 32.495819 -11.422870 35,000 206 464 0
2022-06-29 21:15:19 GMT 32.535095 -11.401007 35,000 206 464 0
2022-06-29 21:15:06 GMT 32.559631 -11.387384 35,000 206 464 0
2022-06-29 21:14:38 GMT 32.613373 -11.357556 35,000 206 464 0
2022-06-29 21:14:35 GMT 32.620735 -11.353473 35,000 206 464 0
2022-06-29 21:14:27 GMT 32.634750 -11.345636 35,000 206 464 0
2022-06-29 21:14:18 GMT 32.653648 -11.335088 35,000 206 465 0
2022-06-29 21:14:07 GMT 32.674084 -11.323709 35,000 206 464 0
2022-06-29 21:13:27 GMT 32.752121 -11.280048 35,000 206 465 0
2022-06-29 21:13:13 GMT 32.780502 -11.264013 35,000 206 465 0
2022-06-29 21:13:06 GMT 32.792175 -11.257471 35,000 206 465 0
2022-06-29 21:12:55 GMT 32.813965 -11.245221 35,000 206 465 0
2022-06-29 21:12:46 GMT 32.831478 -11.235426 35,000 206 465 0
2022-06-29 21:12:35 GMT 32.852753 -11.223487 35,000 206 465 0
2022-06-29 21:12:14 GMT 32.894463 -11.200169 35,000 206 465 0
2022-06-29 21:10:13 GMT 33.131042 -11.066652 35,000 206 466 0
2022-06-29 21:10:03 GMT 33.148731 -11.056618 35,000 206 466 0
2022-06-29 21:09:53 GMT 33.169785 -11.044666 35,000 206 465 0
2022-06-29 21:09:43 GMT 33.188488 -11.034029 35,000 206 465 0
2022-06-29 21:09:32 GMT 33.209854 -11.021922 35,000 206 465 0
2022-06-29 21:09:12 GMT 33.249390 -10.999457 35,000 206 465 0
2022-06-29 21:09:02 GMT 33.268230 -10.988738 35,000 206 465 0
2022-06-29 21:08:52 GMT 33.287888 -10.977594 35,000 206 465 0
2022-06-29 21:08:40 GMT 33.310406 -10.964692 35,000 206 466 0
2022-06-29 21:08:31 GMT 33.328079 -10.954578 35,000 206 465 0
2022-06-29 21:08:21 GMT 33.347507 -10.943504 35,000 206 465 0
2022-06-29 21:08:11 GMT 33.368134 -10.931726 35,000 206 465 0
2022-06-29 21:07:41 GMT 33.425346 -10.899278 35,000 206 466 0
2022-06-29 21:07:23 GMT 33.461746 -10.878607 35,000 206 466 0
2022-06-29 21:07:20 GMT 33.466824 -10.875736 35,000 206 466 0
2022-06-29 21:07:10 GMT 33.486469 -10.864582 35,000 206 466 0
2022-06-29 21:06:50 GMT 33.525990 -10.842105 35,000 206 466 0
2022-06-29 21:06:39 GMT 33.545837 -10.830782 35,000 206 465 0
2022-06-29 21:06:29 GMT 33.565109 -10.819740 35,000 206 466 0
2022-06-29 21:06:17 GMT 33.589645 -10.805670 35,000 206 466 0
2022-06-29 21:06:07 GMT 33.609741 -10.794123 35,000 206 467 0
2022-06-29 21:05:57 GMT 33.627869 -10.783698 35,000 206 467 0
2022-06-29 21:05:48 GMT 33.645210 -10.773754 35,000 206 467 0
2022-06-29 21:05:39 GMT 33.664204 -10.762939 35,000 206 468 0
2022-06-29 21:05:28 GMT 33.684174 -10.751579 35,000 206 468 0
2022-06-29 21:05:18 GMT 33.703949 -10.740257 35,000 206 469 0
2022-06-29 21:05:05 GMT 33.730957 -10.724786 35,000 206 469 0
2022-06-29 21:04:58 GMT 33.744461 -10.717049 35,000 206 469 0
2022-06-29 21:04:48 GMT 33.763874 -10.705891 35,000 206 469 0
2022-06-29 21:04:37 GMT 33.784031 -10.694275 35,000 206 470 -64
2022-06-29 21:04:27 GMT 33.803814 -10.682774 35,000 206 470 0
2022-06-29 21:04:13 GMT 33.832764 -10.665931 35,000 206 469 0
2022-06-29 21:04:04 GMT 33.849438 -10.656338 35,000 206 469 0
2022-06-29 21:03:57 GMT 33.863342 -10.648274 35,000 206 470 0
2022-06-29 21:03:46 GMT 33.884350 -10.636196 35,000 206 470 0
2022-06-29 21:03:37 GMT 33.903389 -10.625210 35,000 206 470 0
2022-06-29 21:03:26 GMT 33.923965 -10.613308 35,000 206 470 0
2022-06-29 21:03:16 GMT 33.942993 -10.602367 35,000 206 470 64
2022-06-29 21:03:05 GMT 33.964600 -10.589923 35,000 206 470 0
2022-06-29 21:02:55 GMT 33.984833 -10.578265 35,000 206 471 0
2022-06-29 21:02:46 GMT 34.003510 -10.567502 35,000 206 470 0
2022-06-29 21:02:35 GMT 34.023743 -10.555787 35,000 206 470 0
2022-06-29 21:02:25 GMT 34.044582 -10.543785 35,000 206 470 0
2022-06-29 21:02:19 GMT 34.055149 -10.537605 35,000 206 470 0
2022-06-29 21:02:15 GMT 34.063202 -10.532913 35,000 206 470 0
2022-06-29 21:02:08 GMT 34.076565 -10.525246 35,000 206 470 0
2022-06-29 21:02:05 GMT 34.083664 -10.521147 35,000 206 470 0
2022-06-29 21:01:54 GMT 34.104122 -10.509396 35,000 206 471 64
2022-06-29 21:01:45 GMT 34.123581 -10.498109 35,000 206 470 0
2022-06-29 21:01:34 GMT 34.143402 -10.486618 35,000 206 470 0
2022-06-29 21:01:24 GMT 34.164642 -10.474377 35,000 206 470 0
2022-06-29 21:01:14 GMT 34.183868 -10.463132 35,000 206 471 0
2022-06-29 21:01:04 GMT 34.203278 -10.451754 35,000 206 471 0
2022-06-29 21:00:59 GMT 34.213531 -10.445812 35,000 206 471 0
2022-06-29 21:00:53 GMT 34.223923 -10.439702 35,000 206 472 0
2022-06-29 21:00:48 GMT 34.235912 -10.432720 35,000 206 472 0
2022-06-29 21:00:43 GMT 34.244980 -10.427427 35,000 206 472 0
2022-06-29 21:00:38 GMT 34.253834 -10.422249 35,000 206 472 0
2022-06-29 21:00:32 GMT 34.266220 -10.414983 35,000 206 472 0
2022-06-29 21:00:28 GMT 34.273499 -10.410723 35,000 206 472 0
2022-06-29 21:00:21 GMT 34.286865 -10.402932 35,000 206 472 0
2022-06-29 21:00:13 GMT 34.303757 -10.393010 35,000 206 472 0
2022-06-29 21:00:02 GMT 34.324631 -10.380735 35,000 206 472 0
2022-06-29 20:59:57 GMT 34.334091 -10.375214 35,000 206 472 0
2022-06-29 20:59:52 GMT 34.343719 -10.369580 35,000 206 472 0
2022-06-29 20:59:48 GMT 34.351410 -10.365040 35,000 206 472 0
2022-06-29 20:59:42 GMT 34.364044 -10.357641 35,000 206 473 0
2022-06-29 20:59:39 GMT 34.368759 -10.354895 35,000 206 473 0
2022-06-29 20:59:32 GMT 34.384136 -10.345917 35,000 206 473 0
2022-06-29 20:59:22 GMT 34.404648 -10.333987 35,000 206 473 0
2022-06-29 20:59:12 GMT 34.424194 -10.322552 35,000 206 473 0
2022-06-29 20:59:02 GMT 34.444153 -10.310893 35,000 206 474 0
2022-06-29 20:58:51 GMT 34.465275 -10.298538 35,000 206 474 0
2022-06-29 20:58:41 GMT 34.484619 -10.287183 35,000 206 474 0
2022-06-29 20:58:31 GMT 34.504623 -10.275468 35,000 206 475 -64
2022-06-29 20:58:21 GMT 34.524216 -10.263977 35,000 206 475 0
2022-06-29 20:58:11 GMT 34.544586 -10.251982 35,000 206 475 0
2022-06-29 20:58:02 GMT 34.562622 -10.241388 35,000 206 475 0
2022-06-29 20:58:00 GMT 34.565594 -10.239658 35,000 206 475 64
2022-06-29 20:57:50 GMT 34.586220 -10.227528 35,000 206 476 0
2022-06-29 20:57:40 GMT 34.605907 -10.216084 35,000 206 476 0
2022-06-29 20:57:30 GMT 34.625748 -10.204561 35,000 206 476 0
2022-06-29 20:57:24 GMT 34.638107 -10.197330 35,000 206 476 64
2022-06-29 20:57:20 GMT 34.645844 -10.192790 35,000 206 476 0
2022-06-29 20:57:14 GMT 34.658157 -10.185559 35,000 206 476 0
2022-06-29 20:57:09 GMT 34.666473 -10.180664 35,000 206 476 0
2022-06-29 20:57:05 GMT 34.676807 -10.174599 35,000 206 476 0
2022-06-29 20:56:59 GMT 34.686909 -10.168648 35,000 206 476 64
2022-06-29 20:56:54 GMT 34.698036 -10.162125 35,000 206 477 0
2022-06-29 20:56:52 GMT 34.701622 -10.160007 35,000 206 477 0
2022-06-29 20:56:49 GMT 34.706554 -10.157089 35,000 206 477 0
2022-06-29 20:56:44 GMT 34.717308 -10.150795 35,000 206 477 0
2022-06-29 20:56:39 GMT 34.726822 -10.145145 35,000 206 477 0
2022-06-29 20:56:33 GMT 34.738358 -10.138363 35,000 207 477 0
2022-06-29 20:56:29 GMT 34.747284 -10.133038 35,000 207 477 0
2022-06-29 20:56:23 GMT 34.758041 -10.126704 35,000 207 477 -64
2022-06-29 20:56:19 GMT 34.767166 -10.121269 35,000 207 477 0
2022-06-29 20:56:09 GMT 34.787018 -10.109440 35,000 207 478 0
2022-06-29 20:56:04 GMT 34.795563 -10.104389 35,000 207 478 0
2022-06-29 20:55:58 GMT 34.807293 -10.097351 35,000 207 478 0
2022-06-29 20:55:54 GMT 34.815674 -10.092430 35,000 207 478 0
2022-06-29 20:55:50 GMT 34.825195 -10.086738 35,000 207 478 0
2022-06-29 20:55:47 GMT 34.829174 -10.084362 35,000 207 478 0
2022-06-29 20:55:43 GMT 34.838531 -10.078812 35,000 207 479 0
2022-06-29 20:55:38 GMT 34.848122 -10.073090 35,000 207 479 0
2022-06-29 20:55:32 GMT 34.860271 -10.065880 35,000 206 479 0
2022-06-29 20:55:27 GMT 34.869862 -10.060215 35,000 206 479 0
2022-06-29 20:55:24 GMT 34.875824 -10.056694 35,000 207 479 0
2022-06-29 20:55:18 GMT 34.888641 -10.049127 35,000 207 480 0
2022-06-29 20:55:13 GMT 34.898392 -10.043298 35,000 207 480 0
2022-06-29 20:55:07 GMT 34.909607 -10.036683 35,000 206 480 0
2022-06-29 20:55:01 GMT 34.924000 -10.028172 35,000 207 480 0
2022-06-29 20:54:56 GMT 34.931168 -10.023903 35,000 207 480 0
2022-06-29 20:54:47 GMT 34.950768 -10.012321 35,000 207 480 0
2022-06-29 20:54:38 GMT 34.968750 -10.001650 35,000 207 480 0
2022-06-29 20:54:36 GMT 34.970970 -10.000362 35,000 207 480 0
2022-06-29 20:54:29 GMT 34.986374 -9.991225 35,000 206 480 0
2022-06-29 20:54:24 GMT 34.995987 -9.985563 35,000 206 480 0
2022-06-29 20:54:20 GMT 35.005375 -9.980049 35,000 206 480 0
2022-06-29 20:54:16 GMT 35.011780 -9.976259 35,000 206 480 64
2022-06-29 20:54:10 GMT 35.023994 -9.969063 35,000 207 480 0
2022-06-29 20:54:06 GMT 35.031815 -9.964428 35,000 207 480 0
2022-06-29 20:53:58 GMT 35.047211 -9.955295 35,000 207 480 0
2022-06-29 20:53:56 GMT 35.051788 -9.952548 35,000 207 480 0
2022-06-29 20:53:46 GMT 35.071804 -9.940681 35,000 207 480 0
2022-06-29 20:53:39 GMT 35.087399 -9.931412 35,000 207 480 0
2022-06-29 20:53:35 GMT 35.093590 -9.927692 35,000 207 480 0
2022-06-29 20:53:26 GMT 35.112305 -9.916506 35,000 207 480 0
2022-06-29 20:53:18 GMT 35.128876 -9.906635 35,000 207 480 0
2022-06-29 20:53:15 GMT 35.133068 -9.904118 35,000 207 480 0
2022-06-29 20:53:08 GMT 35.148056 -9.895150 35,000 207 480 0
2022-06-29 20:53:05 GMT 35.153412 -9.891955 35,000 207 480 0
2022-06-29 20:52:58 GMT 35.168587 -9.882889 35,000 207 479 -64
2022-06-29 20:52:55 GMT 35.174126 -9.879513 35,000 207 479 0
2022-06-29 20:52:48 GMT 35.189301 -9.870487 35,000 207 479 0
2022-06-29 20:52:45 GMT 35.193863 -9.867725 35,000 207 479 0
2022-06-29 20:52:37 GMT 35.209396 -9.858380 35,000 207 479 64
2022-06-29 20:52:34 GMT 35.215164 -9.854904 35,000 207 479 0
2022-06-29 20:52:27 GMT 35.229858 -9.846039 35,000 207 478 0
2022-06-29 20:52:24 GMT 35.234848 -9.843063 35,000 207 478 0
2022-06-29 20:52:17 GMT 35.250378 -9.833757 35,000 207 479 0
2022-06-29 20:52:14 GMT 35.255127 -9.830952 35,000 207 479 0
2022-06-29 20:52:07 GMT 35.269279 -9.822479 35,000 207 478 0
2022-06-29 20:52:04 GMT 35.274857 -9.819145 35,000 207 478 -64
2022-06-29 20:51:58 GMT 35.287014 -9.811901 35,000 207 479 0
2022-06-29 20:51:53 GMT 35.296188 -9.806385 35,000 207 478 0
2022-06-29 20:51:46 GMT 35.312302 -9.796772 35,000 207 478 0
2022-06-29 20:51:43 GMT 35.316109 -9.794487 35,000 207 478 0
2022-06-29 20:51:36 GMT 35.332638 -9.784611 35,000 207 478 0
2022-06-29 20:51:33 GMT 35.336407 -9.782332 35,000 206 479 0
2022-06-29 20:51:27 GMT 35.356339 -9.770451 35,000 207 478 0
2022-06-29 20:51:23 GMT 35.356339 -9.770451 35,000 207 478 0
2022-06-29 20:51:18 GMT 35.368111 -9.763456 35,000 207 478 0
2022-06-29 20:51:13 GMT 35.377670 -9.757690 35,000 207 478 0
2022-06-29 20:51:06 GMT 35.391220 -9.749565 35,000 207 478 -64
2022-06-29 20:51:03 GMT 35.397205 -9.745983 35,000 207 479 0
2022-06-29 20:50:58 GMT 35.407539 -9.739789 35,000 207 479 64
2022-06-29 20:50:54 GMT 35.416306 -9.734459 35,000 207 479 0
2022-06-29 20:50:48 GMT 35.427063 -9.727993 35,000 207 479 -64
2022-06-29 20:50:42 GMT 35.438030 -9.721381 35,000 207 480 -64
2022-06-29 20:50:38 GMT 35.453384 -9.712143 35,000 207 480 0
2022-06-29 20:50:32 GMT 35.457550 -9.709625 35,000 207 480 0
2022-06-29 20:50:28 GMT 35.467499 -9.703616 35,000 207 480 128
2022-06-29 20:50:22 GMT 35.478058 -9.697208 35,000 207 480 -64
2022-06-29 20:50:17 GMT 35.491241 -9.689240 35,000 207 480 0
2022-06-29 20:50:12 GMT 35.498409 -9.684916 35,000 207 480 0
2022-06-29 20:50:08 GMT 35.507626 -9.679423 35,000 207 481 64
2022-06-29 20:50:02 GMT 35.518570 -9.672775 35,000 207 481 0
2022-06-29 20:49:56 GMT 35.529179 -9.666391 35,000 207 481 0
2022-06-29 20:49:52 GMT 35.538803 -9.660645 35,000 207 481 0
2022-06-29 20:49:45 GMT 35.552399 -9.652462 35,000 207 481 0
2022-06-29 20:49:41 GMT 35.559402 -9.648228 35,000 207 482 0
2022-06-29 20:49:37 GMT 35.567959 -9.643016 35,000 207 482 -64
2022-06-29 20:49:31 GMT 35.579597 -9.636003 35,000 207 482 64
2022-06-29 20:49:25 GMT 35.593189 -9.627763 35,000 207 482 0
2022-06-29 20:49:21 GMT 35.600784 -9.623165 35,000 207 482 0
2022-06-29 20:49:17 GMT 35.608200 -9.618702 35,000 207 482 0
2022-06-29 20:49:14 GMT 35.617401 -9.613094 35,000 207 482 0
2022-06-29 20:49:11 GMT 35.623402 -9.609472 35,000 207 482 0
2022-06-29 20:49:05 GMT 35.633423 -9.603424 35,000 207 482 0
2022-06-29 20:49:03 GMT 35.636623 -9.601466 35,000 207 483 0
2022-06-29 20:49:00 GMT 35.648438 -9.594269 35,000 207 482 0
2022-06-29 20:48:57 GMT 35.648438 -9.594269 35,000 207 482 0
2022-06-29 20:48:55 GMT 35.653053 -9.591474 35,000 207 485 0
2022-06-29 20:48:51 GMT 35.661434 -9.586389 35,000 207 483 0
2022-06-29 20:48:47 GMT 35.668465 -9.582123 35,000 207 483 0
2022-06-29 20:48:45 GMT 35.673111 -9.579334 35,000 207 483 0
2022-06-29 20:48:39 GMT 35.684944 -9.572189 35,000 207 483 0
2022-06-29 20:48:36 GMT 35.690552 -9.568806 35,000 207 483 0
2022-06-29 20:48:30 GMT 35.703194 -9.561144 35,000 207 483 0
2022-06-29 20:48:27 GMT 35.709641 -9.557247 35,000 207 484 0
2022-06-29 20:48:20 GMT 35.722698 -9.549340 35,000 207 485 0
2022-06-29 20:48:17 GMT 35.729961 -9.544957 35,000 207 485 0
2022-06-29 20:48:10 GMT 35.743011 -9.537048 35,000 207 485 0
2022-06-29 20:48:07 GMT 35.749886 -9.532919 35,000 207 485 -64
2022-06-29 20:48:03 GMT 35.758915 -9.527367 35,000 207 485 64
2022-06-29 20:48:00 GMT 35.763153 -9.524854 35,000 207 485 0
2022-06-29 20:47:57 GMT 35.770386 -9.520397 35,000 207 485 0
2022-06-29 20:47:52 GMT 35.784073 -9.512100 35,000 207 485 0
2022-06-29 20:47:49 GMT 35.784073 -9.512100 35,000 207 485 0
2022-06-29 20:47:46 GMT 35.790104 -9.508433 35,000 207 485 0
2022-06-29 20:47:42 GMT 35.800003 -9.502487 35,000 207 486 0
2022-06-29 20:47:39 GMT 35.804211 -9.499901 35,000 207 485 0
2022-06-29 20:47:35 GMT 35.813095 -9.494534 35,000 207 485 0
2022-06-29 20:47:33 GMT 35.818130 -9.491444 35,000 207 485 0
2022-06-29 20:47:28 GMT 35.828201 -9.485321 35,000 207 485 0
2022-06-29 20:47:24 GMT 35.836658 -9.480208 35,000 207 485 0
2022-06-29 20:47:19 GMT 35.846512 -9.474163 35,000 207 485 0
2022-06-29 20:47:14 GMT 35.854385 -9.469414 35,000 207 486 0
2022-06-29 20:47:11 GMT 35.862446 -9.464488 35,000 207 486 64
2022-06-29 20:47:08 GMT 35.866882 -9.461803 35,000 207 486 0
2022-06-29 20:47:04 GMT 35.878788 -9.454553 35,000 207 486 0
2022-06-29 20:46:59 GMT 35.886654 -9.449762 35,000 207 486 0
2022-06-29 20:46:56 GMT 35.892101 -9.446431 35,000 207 486 0
2022-06-29 20:46:52 GMT 35.901352 -9.440804 35,000 207 486 0
2022-06-29 20:46:48 GMT 35.907417 -9.437139 35,000 207 486 0
2022-06-29 20:46:45 GMT 35.913666 -9.433308 35,000 207 486 0
2022-06-29 20:46:42 GMT 35.922546 -9.427906 35,000 207 486 0
2022-06-29 20:46:39 GMT 35.925568 -9.426041 35,000 207 486 0
2022-06-29 20:46:36 GMT 35.931995 -9.422120 35,000 207 486 0
2022-06-29 20:46:33 GMT 35.939484 -9.417572 35,000 207 486 0
2022-06-29 20:46:29 GMT 35.946335 -9.413355 35,000 207 486 0
2022-06-29 20:46:26 GMT 35.953365 -9.409030 35,000 207 485 0
2022-06-29 20:46:22 GMT 35.961044 -9.404354 35,000 207 486 0
2022-06-29 20:46:19 GMT 35.966259 -9.401200 35,000 207 486 0
2022-06-29 20:46:16 GMT 35.972717 -9.397259 35,000 207 486 0
2022-06-29 20:46:13 GMT 35.979992 -9.392785 35,000 207 486 0
2022-06-29 20:46:09 GMT 35.987438 -9.388285 35,000 207 486 0
2022-06-29 20:46:06 GMT 35.993912 -9.384327 35,000 207 486 0
2022-06-29 20:46:02 GMT 36.002747 -9.378948 35,000 207 486 0
2022-06-29 20:45:59 GMT 36.006821 -9.376488 35,000 207 486 0
2022-06-29 20:45:55 GMT 36.015091 -9.371455 35,000 207 486 -64
2022-06-29 20:45:52 GMT 36.021103 -9.367733 35,000 207 486 0
2022-06-29 20:45:48 GMT 36.031403 -9.361439 35,000 207 485 0
2022-06-29 20:45:45 GMT 36.034645 -9.359475 35,000 207 485 0
2022-06-29 20:45:42 GMT 36.041676 -9.355151 35,000 207 486 0
2022-06-29 20:45:37 GMT 36.051361 -9.349251 35,000 207 486 0
2022-06-29 20:45:34 GMT 36.055359 -9.346794 35,000 207 486 0
2022-06-29 20:45:31 GMT 36.062622 -9.342327 35,000 207 486 0
2022-06-29 20:45:28 GMT 36.076077 -9.333996 35,000 207 486 0
2022-06-29 20:45:24 GMT 36.076077 -9.333996 35,000 207 486 0
2022-06-29 20:45:22 GMT 36.082123 -9.330254 35,000 207 486 0
2022-06-29 20:45:18 GMT 36.089344 -9.325815 35,000 207 485 -64
2022-06-29 20:45:14 GMT 36.096420 -9.321432 35,000 207 485 0
2022-06-29 20:45:11 GMT 36.110664 -9.312608 35,000 207 486 0
2022-06-29 20:45:07 GMT 36.110664 -9.312608 35,000 207 486 0
2022-06-29 20:45:04 GMT 36.117920 -9.308109 35,000 207 486 0
2022-06-29 20:45:00 GMT 36.127331 -9.302206 35,000 201 488 0
2022-06-29 20:44:55 GMT 36.136414 -9.296608 35,000 206 486 0
2022-06-29 20:44:51 GMT 36.144924 -9.291629 35,000 204 487 0
2022-06-29 20:44:48 GMT 36.150284 -9.288712 35,000 204 487 0
2022-06-29 20:44:45 GMT 36.156937 -9.285200 35,000 202 487 0
2022-06-29 20:44:41 GMT 36.165131 -9.281285 35,000 201 487 0
2022-06-29 20:44:38 GMT 36.171696 -9.278246 35,000 201 488 0
2022-06-29 20:44:34 GMT 36.179306 -9.274750 35,000 201 488 -64
2022-06-29 20:44:27 GMT 36.193295 -9.268312 35,000 201 488 0
2022-06-29 20:44:23 GMT 36.200695 -9.264922 35,000 201 488 0
2022-06-29 20:44:19 GMT 36.211716 -9.259872 35,000 201 488 0
2022-06-29 20:44:14 GMT 36.220806 -9.255689 35,000 201 488 64
2022-06-29 20:44:09 GMT 36.232445 -9.250313 35,000 201 488 0
2022-06-29 20:44:06 GMT 36.237534 -9.248028 35,000 201 488 0
2022-06-29 20:44:03 GMT 36.254509 -9.240262 35,000 201 488 0
2022-06-29 20:43:59 GMT 36.254509 -9.240262 35,000 201 488 0
2022-06-29 20:43:54 GMT 36.263397 -9.236183 35,000 201 488 0
2022-06-29 20:43:44 GMT 36.285645 -9.225998 35,000 201 488 0
2022-06-29 20:43:37 GMT 36.302399 -9.218330 35,000 201 488 0
2022-06-29 20:43:33 GMT 36.308533 -9.215469 35,000 201 488 0
2022-06-29 20:43:26 GMT 36.323780 -9.208471 35,000 201 488 0
2022-06-29 20:43:23 GMT 36.331413 -9.204965 35,000 201 488 0
2022-06-29 20:43:16 GMT 36.344788 -9.198818 35,000 201 488 0
2022-06-29 20:43:13 GMT 36.351334 -9.195786 35,000 201 488 0
2022-06-29 20:43:07 GMT 36.364883 -9.189548 35,000 201 488 0
2022-06-29 20:43:03 GMT 36.372299 -9.186172 35,000 201 488 0
2022-06-29 20:42:56 GMT 36.387371 -9.179252 35,000 201 488 -64
2022-06-29 20:42:53 GMT 36.394135 -9.176159 35,000 201 488 -64
2022-06-29 20:42:47 GMT 36.406643 -9.170428 35,000 201 488 0
2022-06-29 20:42:44 GMT 36.412788 -9.167565 35,000 201 488 0
2022-06-29 20:42:37 GMT 36.427219 -9.160961 35,000 201 488 0
2022-06-29 20:42:32 GMT 36.439270 -9.155445 35,000 201 488 0
2022-06-29 20:42:25 GMT 36.453232 -9.148979 35,000 201 488 0
2022-06-29 20:42:22 GMT 36.459824 -9.145947 35,000 201 488 0
2022-06-29 20:42:18 GMT 36.468475 -9.141941 35,000 201 488 0
2022-06-29 20:42:14 GMT 36.477589 -9.137762 35,000 201 488 0
2022-06-29 20:42:07 GMT 36.491600 -9.131333 35,000 201 488 0
2022-06-29 20:42:04 GMT 36.497910 -9.128380 35,000 201 488 0
2022-06-29 20:42:01 GMT 36.504265 -9.125490 35,000 201 488 0
2022-06-29 20:41:58 GMT 36.512741 -9.121571 35,000 201 487 0
2022-06-29 20:41:55 GMT 36.525467 -9.115677 35,000 201 487 0
2022-06-29 20:41:52 GMT 36.525467 -9.115677 35,000 201 487 0
2022-06-29 20:41:46 GMT 36.534576 -9.111500 35,000 201 487 0
2022-06-29 20:41:43 GMT 36.541550 -9.108250 35,000 201 487 0
2022-06-29 20:41:39 GMT 36.549374 -9.104627 35,000 201 488 0
2022-06-29 20:41:36 GMT 36.563095 -9.098225 35,000 201 488 0
2022-06-29 20:41:33 GMT 36.563095 -9.098225 35,000 201 488 0
2022-06-29 20:41:30 GMT 36.568600 -9.095628 35,000 201 488 0
2022-06-29 20:41:24 GMT 36.580627 -9.089985 35,000 201 488 0
2022-06-29 20:41:21 GMT 36.590385 -9.085460 35,000 201 488 0
2022-06-29 20:41:15 GMT 36.599899 -9.081001 35,000 201 488 0
2022-06-29 20:41:12 GMT 36.612358 -9.075175 35,000 201 488 0
2022-06-29 20:41:10 GMT 36.612358 -9.075175 35,000 201 488 0
2022-06-29 20:41:06 GMT 36.620819 -9.071274 35,000 201 488 0
2022-06-29 20:41:03 GMT 36.626743 -9.068513 35,000 201 488 0
2022-06-29 20:41:01 GMT 36.632236 -9.065941 35,000 201 488 0
2022-06-29 20:40:56 GMT 36.641327 -9.061661 35,000 201 488 0
2022-06-29 20:40:53 GMT 36.648529 -9.058344 35,000 201 488 0
2022-06-29 20:40:50 GMT 36.653824 -9.055882 35,000 201 488 0
2022-06-29 20:40:46 GMT 36.662292 -9.051933 35,000 201 488 -64
2022-06-29 20:40:43 GMT 36.669895 -9.048352 35,000 201 488 0
2022-06-29 20:40:39 GMT 36.676254 -9.045410 35,000 201 488 0
2022-06-29 20:40:35 GMT 36.685120 -9.041222 35,000 201 488 0
2022-06-29 20:40:32 GMT 36.691452 -9.038258 35,000 201 488 0
2022-06-29 20:40:29 GMT 36.697998 -9.035168 35,000 201 488 0
2022-06-29 20:40:26 GMT 36.704346 -9.032223 35,000 201 488 0
2022-06-29 20:40:23 GMT 36.712189 -9.028530 35,000 201 489 0
2022-06-29 20:40:20 GMT 36.718544 -9.025561 35,000 201 489 0
2022-06-29 20:40:15 GMT 36.729538 -9.020462 35,000 201 489 -64
2022-06-29 20:40:12 GMT 36.734650 -9.018081 35,000 201 489 0
2022-06-29 20:40:09 GMT 36.740570 -9.015312 35,000 201 489 0
2022-06-29 20:40:04 GMT 36.751827 -9.010075 35,000 201 489 0
2022-06-29 20:40:01 GMT 36.757095 -9.007587 35,000 201 489 0
2022-06-29 20:39:58 GMT 36.764957 -9.003939 35,000 201 489 0
2022-06-29 20:39:55 GMT 36.770866 -9.001192 35,000 201 489 0
2022-06-29 20:39:52 GMT 36.777851 -8.997920 35,000 201 489 64
2022-06-29 20:39:48 GMT 36.784241 -8.994942 35,000 201 489 0
2022-06-29 20:39:45 GMT 36.791656 -8.991508 35,000 201 489 0
2022-06-29 20:39:42 GMT 36.805874 -8.984946 35,000 201 489 0
2022-06-29 20:39:39 GMT 36.805874 -8.984946 35,000 201 489 0
2022-06-29 20:39:35 GMT 36.812439 -8.981895 35,000 201 489 0
2022-06-29 20:39:32 GMT 36.818802 -8.978920 35,000 201 489 0
2022-06-29 20:39:30 GMT 36.823051 -8.976940 35,000 201 489 0
2022-06-29 20:39:26 GMT 36.842148 -8.968105 35,000 201 489 0
2022-06-29 20:39:21 GMT 36.842148 -8.968105 35,000 201 489 0
2022-06-29 20:39:17 GMT 36.851486 -8.963733 35,000 201 489 0
2022-06-29 20:39:14 GMT 36.857639 -8.960903 35,000 201 489 0
2022-06-29 20:39:11 GMT 36.862949 -8.958395 35,000 201 489 0
2022-06-29 20:39:07 GMT 36.871887 -8.954275 35,000 201 489 0
2022-06-29 20:39:04 GMT 36.878448 -8.951169 35,000 201 489 0
2022-06-29 20:39:01 GMT 36.885433 -8.947887 35,000 201 489 0
2022-06-29 20:38:55 GMT 36.897537 -8.942274 35,000 201 489 0
2022-06-29 20:38:52 GMT 36.914249 -8.934452 35,000 201 489 0
2022-06-29 20:38:48 GMT 36.914249 -8.934452 35,000 201 489 0
2022-06-29 20:38:45 GMT 36.928261 -8.927884 35,000 201 489 0
2022-06-29 20:38:40 GMT 36.928261 -8.927884 35,000 201 489 0
2022-06-29 20:38:36 GMT 36.947163 -8.919047 35,000 201 489 0
2022-06-29 20:38:32 GMT 36.947163 -8.919047 35,000 201 489 0
2022-06-29 20:38:30 GMT 36.950092 -8.917674 35,000 201 489 0
2022-06-29 20:38:27 GMT 36.957729 -8.914092 35,000 201 489 0
2022-06-29 20:38:22 GMT 36.967896 -8.909269 35,000 201 489 0
2022-06-29 20:38:19 GMT 36.973206 -8.906756 35,000 201 489 0
2022-06-29 20:38:16 GMT 36.979752 -8.903659 35,000 201 490 0
2022-06-29 20:38:13 GMT 36.988861 -8.899393 35,000 201 489 0
2022-06-29 20:38:10 GMT 36.991852 -8.897970 35,000 201 490 0
2022-06-29 20:38:07 GMT 37.001812 -8.893313 35,000 201 490 0
2022-06-29 20:38:04 GMT 37.004791 -8.891913 35,000 201 490 0
2022-06-29 20:38:01 GMT 37.012848 -8.888119 35,000 201 490 0
2022-06-29 20:37:55 GMT 37.026020 -8.881969 35,000 201 490 0
2022-06-29 20:37:52 GMT 37.031937 -8.879232 35,000 201 490 0
2022-06-29 20:37:49 GMT 37.036606 -8.877012 35,000 201 490 0
2022-06-29 20:37:44 GMT 37.048737 -8.871341 35,000 201 490 0
2022-06-29 20:37:39 GMT 37.058468 -8.866743 35,000 201 490 0
2022-06-29 20:37:36 GMT 37.072060 -8.860414 35,000 201 489 0
2022-06-29 20:37:33 GMT 37.072060 -8.860414 35,000 201 489 0
2022-06-29 20:37:29 GMT 37.080139 -8.856675 35,000 201 489 0
2022-06-29 20:37:24 GMT 37.091217 -8.851533 35,000 201 490 0
2022-06-29 20:37:21 GMT 37.096268 -8.849189 35,000 201 490 0
2022-06-29 20:37:18 GMT 37.103718 -8.845666 35,000 201 489 0
2022-06-29 20:37:12 GMT 37.115158 -8.840313 35,000 201 489 -64
2022-06-29 20:37:08 GMT 37.123875 -8.836232 35,000 201 488 0
2022-06-29 20:37:03 GMT 37.140564 -8.828391 35,000 201 488 0
2022-06-29 20:36:57 GMT 37.146915 -8.825365 35,000 201 488 0
2022-06-29 20:36:54 GMT 37.155155 -8.821484 35,000 201 488 0
2022-06-29 20:36:51 GMT 37.160660 -8.818924 35,000 201 488 0
2022-06-29 20:36:48 GMT 37.167446 -8.815692 35,000 201 488 0
2022-06-29 20:36:44 GMT 37.177128 -8.811095 35,000 201 487 0
2022-06-29 20:36:40 GMT 37.183273 -8.808230 35,000 201 487 0
2022-06-29 20:36:38 GMT 37.187881 -8.806020 35,000 201 487 0
2022-06-29 20:36:35 GMT 37.196541 -8.801959 35,000 201 487 0
2022-06-29 20:36:31 GMT 37.210464 -8.795374 35,000 201 487 0
2022-06-29 20:36:27 GMT 37.210464 -8.795374 35,000 201 487 0
2022-06-29 20:36:23 GMT 37.220188 -8.790794 35,000 201 487 0
2022-06-29 20:36:20 GMT 37.225662 -8.788186 35,000 201 487 0
2022-06-29 20:36:17 GMT 37.231339 -8.785498 35,000 201 487 0
2022-06-29 20:36:11 GMT 37.247589 -8.777842 35,000 201 487 0
2022-06-29 20:36:07 GMT 37.253242 -8.775150 35,000 201 486 0
2022-06-29 20:36:01 GMT 37.267395 -8.768523 35,000 201 486 0
2022-06-29 20:35:57 GMT 37.274551 -8.765161 35,000 201 486 0
2022-06-29 20:35:53 GMT 37.281685 -8.761776 35,000 201 486 0
2022-06-29 20:35:50 GMT 37.288670 -8.758492 35,000 201 486 0
2022-06-29 20:35:47 GMT 37.296024 -8.755029 35,000 201 486 0
2022-06-29 20:35:44 GMT 37.309708 -8.748623 35,000 201 486 0
2022-06-29 20:35:41 GMT 37.309708 -8.748623 35,000 201 485 0
2022-06-29 20:35:36 GMT 37.317249 -8.745057 35,000 201 485 0
2022-06-29 20:35:33 GMT 37.325455 -8.741202 35,000 201 485 0
2022-06-29 20:35:30 GMT 37.330719 -8.738747 35,000 201 485 0
2022-06-29 20:35:27 GMT 37.338043 -8.735241 35,000 201 484 0
2022-06-29 20:35:22 GMT 37.348938 -8.730099 35,000 201 484 0
2022-06-29 20:35:19 GMT 37.352959 -8.728220 35,000 201 484 0
2022-06-29 20:35:16 GMT 37.360474 -8.724664 35,000 201 483 0
2022-06-29 20:35:13 GMT 37.368832 -8.720696 35,000 201 483 0
2022-06-29 20:35:10 GMT 37.372192 -8.719112 35,000 201 483 0
2022-06-29 20:35:07 GMT 37.380142 -8.715382 35,000 201 483 0
2022-06-29 20:35:04 GMT 37.384518 -8.713293 35,000 201 483 0
2022-06-29 20:35:00 GMT 37.393925 -8.708815 35,000 201 482 0
2022-06-29 20:34:58 GMT 37.397690 -8.707016 35,000 201 481 0
2022-06-29 20:34:55 GMT 37.404144 -8.703918 35,000 201 481 0
2022-06-29 20:34:51 GMT 37.413940 -8.699243 35,000 201 481 0
2022-06-29 20:34:48 GMT 37.418747 -8.696964 35,000 201 481 0
2022-06-29 20:34:45 GMT 37.424744 -8.694101 35,000 201 480 0
2022-06-29 20:34:40 GMT 37.434982 -8.689230 35,000 201 480 0
2022-06-29 20:34:38 GMT 37.439964 -8.686842 35,000 201 480 0
2022-06-29 20:34:35 GMT 37.445343 -8.684283 35,000 201 480 0
2022-06-29 20:34:32 GMT 37.452438 -8.680871 35,000 201 480 0
2022-06-29 20:34:29 GMT 37.465897 -8.674466 35,000 201 479 0
2022-06-29 20:34:25 GMT 37.465897 -8.674466 35,000 201 479 0
2022-06-29 20:34:20 GMT 37.477764 -8.668810 35,000 201 479 0
2022-06-29 20:34:15 GMT 37.487686 -8.664064 35,000 201 479 0
2022-06-29 20:34:10 GMT 37.499313 -8.658512 35,000 201 479 0
2022-06-29 20:34:07 GMT 37.503834 -8.656331 35,000 201 478 0
2022-06-29 20:34:04 GMT 37.510258 -8.653286 35,000 201 477 0
2022-06-29 20:34:00 GMT 37.518539 -8.649337 35,000 201 477 0
2022-06-29 20:33:58 GMT 37.524361 -8.646598 35,000 201 477 0
2022-06-29 20:33:54 GMT 37.529949 -8.643971 35,000 201 477 0
2022-06-29 20:33:50 GMT 37.539261 -8.639553 35,000 201 477 0
2022-06-29 20:33:48 GMT 37.545456 -8.636598 35,000 201 477 0
2022-06-29 20:33:44 GMT 37.550629 -8.634144 35,000 201 476 0
2022-06-29 20:33:40 GMT 37.560116 -8.629582 35,000 201 476 0
2022-06-29 20:33:37 GMT 37.566074 -8.626716 35,000 201 476 0
2022-06-29 20:33:34 GMT 37.572914 -8.623491 35,000 201 476 0
2022-06-29 20:33:29 GMT 37.583202 -8.618595 35,000 201 476 0
2022-06-29 20:33:26 GMT 37.588184 -8.616207 35,000 201 476 0
2022-06-29 20:33:23 GMT 37.594143 -8.613341 35,000 201 476 0
2022-06-29 20:33:20 GMT 37.602585 -8.609307 35,000 201 476 0
2022-06-29 20:33:17 GMT 37.608948 -8.606269 35,000 201 476 0
2022-06-29 20:33:14 GMT 37.613277 -8.604206 35,000 201 476 0
2022-06-29 20:33:11 GMT 37.627056 -8.597578 35,000 201 476 0
2022-06-29 20:33:08 GMT 37.636318 -8.593160 35,000 201 476 0
2022-06-29 20:33:04 GMT 37.636318 -8.593160 35,000 201 475 0
2022-06-29 20:32:59 GMT 37.644745 -8.589099 35,000 201 475 0
2022-06-29 20:32:56 GMT 37.650925 -8.586166 35,000 201 475 0
2022-06-29 20:32:53 GMT 37.665298 -8.579270 35,000 201 475 0
2022-06-29 20:32:48 GMT 37.665298 -8.579270 35,000 201 475 0
2022-06-29 20:32:46 GMT 37.677425 -8.573456 35,000 201 475 0
2022-06-29 20:32:43 GMT 37.677425 -8.573456 35,000 201 475 0
2022-06-29 20:32:39 GMT 37.691574 -8.566706 35,000 201 475 0
2022-06-29 20:32:37 GMT 37.691574 -8.566706 35,000 201 474 0
2022-06-29 20:32:34 GMT 37.696095 -8.564559 35,000 201 474 0
2022-06-29 20:32:31 GMT 37.703476 -8.561038 35,000 201 473 0
2022-06-29 20:32:28 GMT 37.707592 -8.559066 35,000 201 474 0
2022-06-29 20:32:25 GMT 37.714760 -8.555603 35,000 201 474 0
2022-06-29 20:32:22 GMT 37.719090 -8.553573 35,000 201 474 0
2022-06-29 20:32:19 GMT 37.733597 -8.546604 35,000 201 474 0
2022-06-29 20:32:16 GMT 37.733597 -8.546604 35,000 201 473 0
2022-06-29 20:32:12 GMT 37.740177 -8.543423 35,000 201 473 0
2022-06-29 20:32:08 GMT 37.747925 -8.539708 35,000 201 473 0
2022-06-29 20:32:05 GMT 37.756519 -8.535541 35,000 201 473 0
2022-06-29 20:32:02 GMT 37.760849 -8.533451 35,000 201 473 0
2022-06-29 20:31:58 GMT 37.776581 -8.525917 35,000 201 472 0
2022-06-29 20:31:55 GMT 37.776581 -8.525917 35,000 201 472 0
2022-06-29 20:31:52 GMT 37.781708 -8.523462 35,000 201 472 0
2022-06-29 20:31:48 GMT 37.789478 -8.519718 35,000 201 472 0
2022-06-29 20:31:45 GMT 37.796860 -8.516216 35,000 201 472 0
2022-06-29 20:31:42 GMT 37.802765 -8.513352 35,000 201 472 0
2022-06-29 20:31:39 GMT 37.808098 -8.510822 35,000 201 472 0
2022-06-29 20:31:35 GMT 37.818340 -8.505926 35,000 201 472 0
2022-06-29 20:31:31 GMT 37.823456 -8.503476 35,000 201 472 0
2022-06-29 20:31:28 GMT 37.831421 -8.499656 35,000 201 472 0
2022-06-29 20:31:25 GMT 37.836540 -8.497208 35,000 201 472 0
2022-06-29 20:31:22 GMT 37.843277 -8.494009 35,000 201 472 0
2022-06-29 20:31:19 GMT 37.848358 -8.491555 35,000 201 472 0
2022-06-29 20:31:17 GMT 37.854092 -8.488789 35,000 201 472 0
2022-06-29 20:31:12 GMT 37.870247 -8.481147 35,000 201 472 0
2022-06-29 20:31:09 GMT 37.876575 -8.478102 35,000 201 472 0
2022-06-29 20:31:05 GMT 37.876575 -8.478102 35,000 201 472 0
2022-06-29 20:31:02 GMT 37.885609 -8.473803 35,000 201 472 0
2022-06-29 20:30:59 GMT 37.890728 -8.471414 35,000 201 472 0
2022-06-29 20:30:57 GMT 37.894779 -8.469444 35,000 201 472 0
2022-06-29 20:30:54 GMT 37.906860 -8.463680 35,000 201 472 0
2022-06-29 20:30:51 GMT 37.906860 -8.463680 35,000 201 472 0
2022-06-29 20:30:48 GMT 37.912560 -8.460965 35,000 201 472 0
2022-06-29 20:30:45 GMT 37.918304 -8.458245 35,000 201 472 0
2022-06-29 20:30:42 GMT 37.931973 -8.451711 35,000 201 472 0
2022-06-29 20:30:39 GMT 37.931973 -8.451711 35,000 201 472 0
2022-06-29 20:30:35 GMT 37.939564 -8.448128 35,000 201 471 0
2022-06-29 20:30:32 GMT 37.945679 -8.445214 35,000 201 471 0
2022-06-29 20:30:29 GMT 37.952820 -8.441766 35,000 201 471 0
2022-06-29 20:30:27 GMT 37.956879 -8.439829 35,000 201 471 0
2022-06-29 20:30:24 GMT 37.960976 -8.437858 35,000 201 471 0
2022-06-29 20:30:21 GMT 37.967308 -8.434813 35,000 201 470 0
2022-06-29 20:30:18 GMT 37.972595 -8.432299 35,000 201 470 0
2022-06-29 20:30:16 GMT 37.977676 -8.429845 35,000 201 470 0
2022-06-29 20:30:12 GMT 37.986053 -8.425812 35,000 202 471 0
2022-06-29 20:30:08 GMT 37.993793 -8.422036 35,000 202 471 0
2022-06-29 20:30:04 GMT 38.003525 -8.417319 35,000 202 471 0
2022-06-29 20:30:01 GMT 38.008438 -8.414943 35,000 202 470 0
2022-06-29 20:29:58 GMT 38.014324 -8.412064 35,000 202 470 0
2022-06-29 20:29:55 GMT 38.022034 -8.408339 35,000 202 470 0
2022-06-29 20:29:51 GMT 38.028351 -8.405301 35,000 202 470 0
2022-06-29 20:29:48 GMT 38.034622 -8.402203 35,000 202 470 0
2022-06-29 20:29:44 GMT 38.042953 -8.398152 35,000 202 470 0
2022-06-29 20:29:41 GMT 38.049454 -8.395016 35,000 202 470 0
2022-06-29 20:29:37 GMT 38.055569 -8.392062 35,000 202 470 0
2022-06-29 20:29:34 GMT 38.063278 -8.388295 35,000 201 470 0
2022-06-29 20:29:31 GMT 38.069347 -8.385315 35,000 201 470 0
2022-06-29 20:29:28 GMT 38.075455 -8.382393 35,000 201 470 0
2022-06-29 20:29:25 GMT 38.082138 -8.379121 35,000 201 469 0
2022-06-29 20:29:22 GMT 38.088623 -8.376000 35,000 201 469 0
2022-06-29 20:29:18 GMT 38.095699 -8.372537 35,000 201 469 0
2022-06-29 20:29:14 GMT 38.104218 -8.368417 35,000 202 469 0
2022-06-29 20:29:11 GMT 38.109695 -8.365738 35,000 202 469 0
2022-06-29 20:29:08 GMT 38.115761 -8.362745 35,000 202 469 0
2022-06-29 20:29:03 GMT 38.124893 -8.358317 35,000 202 469 0
2022-06-29 20:29:00 GMT 38.131989 -8.354869 35,000 202 469 0
2022-06-29 20:28:57 GMT 38.138432 -8.351699 35,000 202 468 0
2022-06-29 20:28:54 GMT 38.145355 -8.348382 35,000 202 468 0
2022-06-29 20:28:51 GMT 38.150803 -8.345694 35,000 202 468 0
2022-06-29 20:28:48 GMT 38.157074 -8.342597 35,000 202 468 0
2022-06-29 20:28:41 GMT 38.170807 -8.335935 35,000 202 468 0
2022-06-29 20:28:37 GMT 38.177902 -8.332487 35,000 202 468 0
2022-06-29 20:28:34 GMT 38.186417 -8.328338 35,000 202 468 0
2022-06-29 20:28:30 GMT 38.194702 -8.324306 35,000 202 468 0
2022-06-29 20:28:27 GMT 38.198719 -8.322323 35,000 202 468 0
2022-06-29 20:28:24 GMT 38.210266 -8.316709 35,000 202 468 0
2022-06-29 20:28:21 GMT 38.210266 -8.316709 35,000 202 468 0
2022-06-29 20:28:18 GMT 38.218140 -8.312910 35,000 202 468 0
2022-06-29 20:28:13 GMT 38.227673 -8.308291 35,000 201 467 0
2022-06-29 20:28:09 GMT 38.235764 -8.304320 35,000 201 467 0
2022-06-29 20:28:06 GMT 38.248306 -8.298242 35,000 201 467 0
2022-06-29 20:28:02 GMT 38.248306 -8.298242 35,000 201 467 0
2022-06-29 20:27:59 GMT 38.256210 -8.294439 35,000 201 467 0
2022-06-29 20:27:56 GMT 38.261425 -8.291871 35,000 201 467 0
2022-06-29 20:27:53 GMT 38.267532 -8.288951 35,000 201 467 0
2022-06-29 20:27:49 GMT 38.281860 -8.281960 35,000 201 467 0
2022-06-29 20:27:46 GMT 38.281860 -8.281960 35,000 201 467 0
2022-06-29 20:27:43 GMT 38.288544 -8.278724 35,000 201 467 0
2022-06-29 20:27:39 GMT 38.297455 -8.274437 35,000 202 468 0
2022-06-29 20:27:35 GMT 38.302902 -8.271750 35,000 201 467 0
2022-06-29 20:27:30 GMT 38.316448 -8.265182 35,000 201 467 0
2022-06-29 20:27:27 GMT 38.320267 -8.263271 35,000 201 467 0
2022-06-29 20:27:25 GMT 38.323105 -8.261953 35,000 201 467 0
2022-06-29 20:27:20 GMT 38.340050 -8.253658 35,000 202 467 0
2022-06-29 20:27:17 GMT 38.344101 -8.251688 35,000 202 467 0
2022-06-29 20:27:15 GMT 38.344101 -8.251688 35,000 202 467 0
2022-06-29 20:27:10 GMT 38.354782 -8.246466 35,000 202 467 0
2022-06-29 20:27:07 GMT 38.360641 -8.243603 35,000 202 467 0
2022-06-29 20:27:05 GMT 38.364677 -8.241657 35,000 202 467 0
2022-06-29 20:27:01 GMT 38.372360 -8.237876 35,000 202 467 0
2022-06-29 20:26:58 GMT 38.379993 -8.234134 35,000 202 467 0
2022-06-29 20:26:55 GMT 38.385269 -8.231565 35,000 202 467 0
2022-06-29 20:26:51 GMT 38.393539 -8.227506 35,000 201 466 0
2022-06-29 20:26:47 GMT 38.406063 -8.221416 35,000 201 467 0
2022-06-29 20:26:44 GMT 38.406063 -8.221416 35,000 201 467 0
2022-06-29 20:26:40 GMT 38.417953 -8.215684 35,000 201 467 0
2022-06-29 20:26:37 GMT 38.422394 -8.213534 35,000 201 467 0
2022-06-29 20:26:34 GMT 38.437344 -8.206299 35,000 201 467 0
2022-06-29 20:26:29 GMT 38.437344 -8.206299 35,000 201 467 0
2022-06-29 20:26:26 GMT 38.443211 -8.203430 35,000 201 467 0
2022-06-29 20:26:24 GMT 38.447433 -8.201413 35,000 201 467 0
2022-06-29 20:26:21 GMT 38.455734 -8.197388 35,000 201 467 0
2022-06-29 20:26:17 GMT 38.467667 -8.191621 35,000 201 467 0
2022-06-29 20:26:14 GMT 38.467667 -8.191621 35,000 201 467 0
2022-06-29 20:26:09 GMT 38.476730 -8.187203 35,000 201 466 0
2022-06-29 20:26:06 GMT 38.483200 -8.184082 35,000 201 466 0
2022-06-29 20:26:04 GMT 38.488274 -8.181641 35,000 201 466 0
2022-06-29 20:25:59 GMT 38.499344 -8.176216 35,000 201 466 0
2022-06-29 20:25:56 GMT 38.503590 -8.174194 35,000 201 466 0
2022-06-29 20:25:53 GMT 38.509033 -8.171509 35,000 201 466 0
2022-06-29 20:25:50 GMT 38.516922 -8.167678 35,000 201 466 0
2022-06-29 20:25:46 GMT 38.530029 -8.161316 35,000 201 466 0
2022-06-29 20:25:43 GMT 38.530029 -8.161316 35,000 201 466 0
2022-06-29 20:25:39 GMT 38.545765 -8.153625 35,000 201 466 0
2022-06-29 20:25:36 GMT 38.545765 -8.153625 35,000 202 467 0
2022-06-29 20:25:33 GMT 38.550613 -8.151258 35,000 202 467 0
2022-06-29 20:25:29 GMT 38.558075 -8.147616 35,000 202 467 0
2022-06-29 20:25:25 GMT 38.566761 -8.143311 35,000 202 467 0
2022-06-29 20:25:22 GMT 38.571789 -8.140869 35,000 202 467 0
2022-06-29 20:25:19 GMT 38.578445 -8.137573 35,000 202 467 0
2022-06-29 20:25:16 GMT 38.584728 -8.134460 35,000 202 467 0
2022-06-29 20:25:12 GMT 38.591572 -8.131042 35,000 202 467 0
2022-06-29 20:25:08 GMT 38.602654 -8.125549 35,000 202 467 0
2022-06-29 20:25:05 GMT 38.607677 -8.123047 35,000 202 467 0
2022-06-29 20:25:02 GMT 38.612549 -8.120628 35,000 202 467 0
2022-06-29 20:24:59 GMT 38.619411 -8.117188 35,000 202 467 0
2022-06-29 20:24:55 GMT 38.633743 -8.110060 35,000 202 467 0
2022-06-29 20:24:52 GMT 38.633743 -8.110060 35,000 202 468 0
2022-06-29 20:24:47 GMT 38.644226 -8.104865 35,000 202 468 0
2022-06-29 20:24:44 GMT 38.649490 -8.102238 35,000 202 468 0
2022-06-29 20:24:41 GMT 38.657959 -8.098058 35,000 202 468 0
2022-06-29 20:24:36 GMT 38.672340 -8.090942 35,000 202 468 0
2022-06-29 20:24:33 GMT 38.672340 -8.090942 35,000 202 468 0
2022-06-29 20:24:30 GMT 38.677368 -8.088440 35,000 202 468 0
2022-06-29 20:24:27 GMT 38.685471 -8.084385 35,000 202 469 0
2022-06-29 20:24:24 GMT 38.690506 -8.081877 35,000 202 469 0
2022-06-29 20:24:21 GMT 38.695385 -8.079529 35,000 202 469 0
2022-06-29 20:24:17 GMT 38.703690 -8.075429 35,000 202 469 0
2022-06-29 20:24:14 GMT 38.715820 -8.069398 35,000 202 469 0
2022-06-29 20:24:11 GMT 38.715820 -8.069398 35,000 202 469 0
2022-06-29 20:24:08 GMT 38.725132 -8.064819 35,000 202 469 0
2022-06-29 20:24:05 GMT 38.728363 -8.063189 35,000 202 469 0
2022-06-29 20:24:01 GMT 38.736282 -8.059308 35,000 202 469 0
2022-06-29 20:23:57 GMT 38.744358 -8.055298 35,000 202 469 0
2022-06-29 20:23:53 GMT 38.753296 -8.050903 35,000 202 469 0
2022-06-29 20:23:50 GMT 38.757156 -8.048978 35,000 202 469 0
2022-06-29 20:23:45 GMT 38.769077 -8.043091 35,000 202 469 0
2022-06-29 20:23:40 GMT 38.778214 -8.038529 35,000 202 469 0
2022-06-29 20:23:36 GMT 38.795006 -8.030212 35,000 202 469 0
2022-06-29 20:23:33 GMT 38.795006 -8.030212 35,000 202 469 0
2022-06-29 20:23:30 GMT 38.799454 -8.028020 35,000 202 469 0
2022-06-29 20:23:26 GMT 38.806362 -8.024597 35,000 202 469 0
2022-06-29 20:23:23 GMT 38.813438 -8.021118 35,000 202 469 0
2022-06-29 20:23:20 GMT 38.819725 -8.018005 35,000 202 469 0
2022-06-29 20:23:17 GMT 38.826847 -8.014526 35,000 202 469 0
2022-06-29 20:23:14 GMT 38.837585 -8.009212 35,000 202 469 0
2022-06-29 20:23:11 GMT 38.837585 -8.009212 35,000 202 469 0
2022-06-29 20:23:09 GMT 38.840626 -8.007751 35,000 202 469 0
2022-06-29 20:23:06 GMT 38.848122 -8.004028 35,000 202 469 0
2022-06-29 20:23:02 GMT 38.856037 -8.000183 35,000 202 469 0
2022-06-29 20:22:59 GMT 38.861111 -7.997681 35,000 202 469 0
2022-06-29 20:22:56 GMT 38.868393 -7.994046 35,000 202 469 0
2022-06-29 20:22:53 GMT 38.874470 -7.991089 35,000 202 469 0
2022-06-29 20:22:49 GMT 38.881592 -7.987610 35,000 202 469 0
2022-06-29 20:22:46 GMT 38.889862 -7.983478 35,000 201 469 0
2022-06-29 20:22:43 GMT 38.895142 -7.980896 35,000 201 469 0
2022-06-29 20:22:39 GMT 38.908127 -7.974548 35,000 201 469 0
2022-06-29 20:22:36 GMT 38.908127 -7.974548 35,000 201 469 0
2022-06-29 20:22:33 GMT 38.915203 -7.971069 35,000 201 469 0
2022-06-29 20:22:30 GMT 38.921265 -7.968073 35,000 201 469 0
2022-06-29 20:22:28 GMT 38.926331 -7.965576 35,000 201 469 0
2022-06-29 20:22:25 GMT 38.931610 -7.962998 35,000 201 469 0
2022-06-29 20:22:21 GMT 38.942139 -7.957803 35,000 202 468 0
2022-06-29 20:22:16 GMT 38.950424 -7.953743 35,000 202 468 0
2022-06-29 20:22:13 GMT 38.956078 -7.950928 35,000 202 468 0
2022-06-29 20:22:10 GMT 38.962360 -7.947815 35,000 202 467 0
2022-06-29 20:22:07 GMT 38.967590 -7.945205 35,000 202 467 0
2022-06-29 20:22:04 GMT 38.972626 -7.942697 35,000 202 467 0
2022-06-29 20:22:00 GMT 38.980701 -7.938660 35,000 202 467 0
2022-06-29 20:21:58 GMT 38.985729 -7.936157 35,000 202 467 0
2022-06-29 20:21:55 GMT 38.992805 -7.932617 35,000 202 467 0
2022-06-29 20:21:50 GMT 39.001045 -7.928467 35,000 202 467 0
2022-06-29 20:21:47 GMT 39.009518 -7.924255 35,000 202 467 0
2022-06-29 20:21:44 GMT 39.014374 -7.921859 35,000 202 467 0
2022-06-29 20:21:40 GMT 39.021622 -7.918213 35,000 202 466 0
2022-06-29 20:21:37 GMT 39.026825 -7.915649 35,000 202 466 0
2022-06-29 20:21:34 GMT 39.034286 -7.911888 35,000 202 466 0
2022-06-29 20:21:30 GMT 39.042160 -7.908007 35,000 202 466 0
2022-06-29 20:21:27 GMT 39.048386 -7.904902 35,000 202 466 0
2022-06-29 20:21:24 GMT 39.054794 -7.901678 35,000 202 466 0
2022-06-29 20:21:20 GMT 39.062447 -7.897888 35,000 202 466 0
2022-06-29 20:21:16 GMT 39.071274 -7.893438 35,000 202 464 0
2022-06-29 20:21:11 GMT 39.079926 -7.889139 35,000 202 465 0
2022-06-29 20:21:08 GMT 39.086151 -7.886034 35,000 202 465 0
2022-06-29 20:21:05 GMT 39.092010 -7.883168 35,000 202 465 0
2022-06-29 20:21:01 GMT 39.100018 -7.879150 35,000 202 464 0
2022-06-29 20:20:58 GMT 39.107071 -7.875645 35,000 202 465 0
2022-06-29 20:20:55 GMT 39.113052 -7.872620 35,000 202 465 0
2022-06-29 20:20:52 GMT 39.116867 -7.870689 35,000 202 464 0
2022-06-29 20:20:49 GMT 39.123711 -7.867310 35,000 202 464 0
2022-06-29 20:20:46 GMT 39.129482 -7.864380 35,000 202 464 0
2022-06-29 20:20:43 GMT 39.136734 -7.860777 35,000 202 464 0
2022-06-29 20:20:39 GMT 39.144928 -7.856658 35,000 202 464 0
2022-06-29 20:20:36 GMT 39.149918 -7.854150 35,000 202 464 0
2022-06-29 20:20:33 GMT 39.156761 -7.850708 35,000 202 464 0
2022-06-29 20:20:29 GMT 39.170151 -7.843999 35,000 202 464 0
2022-06-29 20:20:26 GMT 39.170151 -7.843999 35,000 202 464 0
2022-06-29 20:20:23 GMT 39.177757 -7.840149 35,000 202 464 0
2022-06-29 20:20:20 GMT 39.182968 -7.837551 35,000 202 464 0
2022-06-29 20:20:17 GMT 39.188976 -7.834534 35,000 202 464 0
2022-06-29 20:20:14 GMT 39.196796 -7.830627 35,000 202 464 0
2022-06-29 20:20:10 GMT 39.204391 -7.826863 35,000 202 464 0
2022-06-29 20:20:07 GMT 39.209972 -7.824036 35,000 202 464 0
2022-06-29 20:20:04 GMT 39.215000 -7.821533 35,000 202 464 0
2022-06-29 20:20:00 GMT 39.223984 -7.817017 35,000 202 464 0
2022-06-29 20:19:57 GMT 39.229614 -7.814265 35,000 202 464 0
2022-06-29 20:19:54 GMT 39.236206 -7.810981 35,000 202 464 0
2022-06-29 20:19:51 GMT 39.239391 -7.809387 35,000 202 463 0
2022-06-29 20:19:48 GMT 39.246796 -7.805664 35,000 202 463 0
2022-06-29 20:19:45 GMT 39.251999 -7.803099 35,000 202 463 0
2022-06-29 20:19:42 GMT 39.258179 -7.799994 35,000 202 463 0
2022-06-29 20:19:39 GMT 39.264206 -7.796997 35,000 202 463 0
2022-06-29 20:19:36 GMT 39.269989 -7.794083 35,000 202 463 0
2022-06-29 20:19:33 GMT 39.275803 -7.791217 35,000 202 463 0
2022-06-29 20:19:30 GMT 39.284176 -7.787048 35,000 202 463 0
2022-06-29 20:19:26 GMT 39.291161 -7.783569 35,000 202 463 0
2022-06-29 20:19:22 GMT 39.304939 -7.776672 35,000 202 462 0
2022-06-29 20:19:19 GMT 39.304939 -7.776672 35,000 202 462 0
2022-06-29 20:19:16 GMT 39.311687 -7.773254 35,000 202 462 0
2022-06-29 20:19:13 GMT 39.317688 -7.770260 35,000 202 462 0
2022-06-29 20:19:09 GMT 39.325466 -7.766357 35,000 202 462 -64
2022-06-29 20:19:06 GMT 39.329845 -7.764160 35,000 202 462 0
2022-06-29 20:19:03 GMT 39.338379 -7.759811 35,000 202 462 0
2022-06-29 20:19:00 GMT 39.341171 -7.758437 35,000 202 462 0
2022-06-29 20:18:57 GMT 39.348724 -7.754616 35,000 202 462 0
2022-06-29 20:18:54 GMT 39.359077 -7.749390 35,000 202 462 0
2022-06-29 20:18:51 GMT 39.366016 -7.745850 35,000 202 462 0
2022-06-29 20:18:48 GMT 39.366016 -7.745850 35,000 202 461 0
2022-06-29 20:18:45 GMT 39.372986 -7.742316 35,000 202 461 0
2022-06-29 20:18:41 GMT 39.381332 -7.738098 35,000 202 461 0
2022-06-29 20:18:37 GMT 39.386902 -7.735330 35,000 202 461 0
2022-06-29 20:18:34 GMT 39.393448 -7.731987 35,000 202 461 0
2022-06-29 20:18:31 GMT 39.399391 -7.729004 35,000 202 461 0
2022-06-29 20:18:28 GMT 39.406586 -7.725419 35,000 202 461 0
2022-06-29 20:18:23 GMT 39.416107 -7.720582 35,000 202 460 0
2022-06-29 20:18:20 GMT 39.422241 -7.717478 35,000 202 460 0
2022-06-29 20:18:16 GMT 39.430389 -7.713417 35,000 202 460 0
2022-06-29 20:18:13 GMT 39.441330 -7.707924 35,000 202 460 0
2022-06-29 20:18:10 GMT 39.441330 -7.707924 35,000 202 460 0
2022-06-29 20:18:07 GMT 39.446877 -7.705078 35,000 202 460 0
2022-06-29 20:18:04 GMT 39.454239 -7.701416 35,000 202 460 0
2022-06-29 20:18:01 GMT 39.461166 -7.697876 35,000 202 460 0
2022-06-29 20:17:58 GMT 39.465729 -7.695618 35,000 202 460 0
2022-06-29 20:17:55 GMT 39.470665 -7.693115 35,000 202 460 0
2022-06-29 20:17:52 GMT 39.478809 -7.689026 35,000 202 459 0
2022-06-29 20:17:49 GMT 39.482803 -7.687026 35,000 202 459 0
2022-06-29 20:17:46 GMT 39.489937 -7.683411 35,000 202 459 0
2022-06-29 20:17:42 GMT 39.496456 -7.680115 35,000 202 459 0
2022-06-29 20:17:38 GMT 39.505951 -7.675354 35,000 202 459 0
2022-06-29 20:17:35 GMT 39.511723 -7.672424 35,000 202 459 0
2022-06-29 20:17:32 GMT 39.516678 -7.669950 35,000 202 459 0
2022-06-29 20:17:28 GMT 39.524185 -7.666188 35,000 202 459 0
2022-06-29 20:17:25 GMT 39.532906 -7.661743 35,000 202 459 0
2022-06-29 20:17:21 GMT 39.537842 -7.659302 35,000 202 459 0
2022-06-29 20:17:18 GMT 39.545746 -7.655261 35,000 202 458 0
2022-06-29 20:17:15 GMT 39.550316 -7.652954 35,000 202 458 0
2022-06-29 20:17:12 GMT 39.556042 -7.650085 35,000 202 458 0
2022-06-29 20:17:09 GMT 39.563725 -7.646179 35,000 202 458 0
2022-06-29 20:17:05 GMT 39.577923 -7.638977 35,000 202 457 0
2022-06-29 20:17:01 GMT 39.577923 -7.638977 35,000 202 457 0
2022-06-29 20:16:57 GMT 39.586208 -7.634766 35,000 202 457 0
2022-06-29 20:16:54 GMT 39.591141 -7.632263 35,000 202 457 0
2022-06-29 20:16:51 GMT 39.597847 -7.628845 35,000 202 457 0
2022-06-29 20:16:47 GMT 39.605759 -7.624878 35,000 202 457 0
2022-06-29 20:16:42 GMT 39.616196 -7.619556 35,000 202 457 0
2022-06-29 20:16:39 GMT 39.622696 -7.616272 35,000 202 457 0
2022-06-29 20:16:36 GMT 39.626221 -7.614481 35,000 202 457 0
2022-06-29 20:16:33 GMT 39.634140 -7.610480 35,000 202 457 0
2022-06-29 20:16:29 GMT 39.643387 -7.605763 35,000 202 457 0
2022-06-29 20:16:26 GMT 39.646729 -7.604032 35,000 202 457 0
2022-06-29 20:16:23 GMT 39.654007 -7.600330 35,000 202 457 0
2022-06-29 20:16:19 GMT 39.662842 -7.595852 35,000 202 457 0
2022-06-29 20:16:16 GMT 39.666595 -7.593941 35,000 202 457 0
2022-06-29 20:16:13 GMT 39.673306 -7.590515 35,000 202 457 0
2022-06-29 20:16:10 GMT 39.678986 -7.587646 35,000 202 457 0
2022-06-29 20:16:06 GMT 39.685875 -7.584106 35,000 202 457 0
2022-06-29 20:16:03 GMT 39.694347 -7.579834 35,000 202 457 0
2022-06-29 20:16:00 GMT 39.698685 -7.577581 35,000 202 457 0
2022-06-29 20:15:57 GMT 39.705379 -7.574219 35,000 202 457 0
2022-06-29 20:15:51 GMT 39.716583 -7.568505 35,000 202 457 -64
2022-06-29 20:15:48 GMT 39.722717 -7.565400 35,000 202 457 -64
2022-06-29 20:15:45 GMT 39.726425 -7.563490 35,000 202 457 -64
2022-06-29 20:15:42 GMT 39.734291 -7.559448 35,000 202 456 0
2022-06-29 20:15:39 GMT 39.739014 -7.557041 35,000 202 456 0
2022-06-29 20:15:36 GMT 39.751602 -7.550653 35,000 202 456 0
2022-06-29 20:15:33 GMT 39.751602 -7.550653 35,000 202 456 0
2022-06-29 20:15:29 GMT 39.759293 -7.546772 35,000 202 457 0
2022-06-29 20:15:25 GMT 39.767155 -7.542786 35,000 202 457 0
2022-06-29 20:15:22 GMT 39.774628 -7.539009 35,000 202 457 0
2022-06-29 20:15:19 GMT 39.777771 -7.537415 35,000 202 457 0
2022-06-29 20:15:16 GMT 39.794296 -7.529053 35,000 202 457 0
2022-06-29 20:15:11 GMT 39.794296 -7.529053 35,000 202 457 0
2022-06-29 20:15:08 GMT 39.799438 -7.526411 35,000 202 457 0
2022-06-29 20:15:05 GMT 39.806305 -7.522948 35,000 202 457 0
2022-06-29 20:15:01 GMT 39.814178 -7.518947 35,000 202 457 0
2022-06-29 20:14:58 GMT 39.820087 -7.515991 35,000 202 457 0
2022-06-29 20:14:55 GMT 39.826813 -7.512559 35,000 202 457 0
2022-06-29 20:14:52 GMT 39.831722 -7.510071 35,000 202 457 0
2022-06-29 20:14:48 GMT 39.840382 -7.505676 35,000 202 456 0
2022-06-29 20:14:44 GMT 39.847271 -7.502197 35,000 202 456 0
2022-06-29 20:14:41 GMT 39.855148 -7.498169 35,000 202 457 0
2022-06-29 20:14:38 GMT 39.859470 -7.495972 35,000 202 457 0
2022-06-29 20:14:35 GMT 39.867104 -7.492004 35,000 202 457 0
2022-06-29 20:14:30 GMT 39.874786 -7.488078 35,000 202 456 0
2022-06-29 20:14:27 GMT 39.882607 -7.484070 35,000 202 456 0
2022-06-29 20:14:24 GMT 39.887741 -7.481391 35,000 202 456 0
2022-06-29 20:14:21 GMT 39.892822 -7.478764 35,000 202 456 0
2022-06-29 20:14:17 GMT 39.906555 -7.471718 35,000 202 456 0
2022-06-29 20:14:14 GMT 39.906555 -7.471718 35,000 202 457 0
2022-06-29 20:14:11 GMT 39.912071 -7.468933 35,000 202 456 0
2022-06-29 20:14:08 GMT 39.918961 -7.465389 35,000 202 456 0
2022-06-29 20:14:04 GMT 39.927383 -7.461060 35,000 202 456 0
2022-06-29 20:13:59 GMT 39.938370 -7.455444 35,000 202 456 0
2022-06-29 20:13:56 GMT 39.942516 -7.453287 35,000 202 456 0
2022-06-29 20:13:53 GMT 39.947407 -7.450790 35,000 202 456 0
2022-06-29 20:13:50 GMT 39.953506 -7.447669 35,000 202 455 0
2022-06-29 20:13:47 GMT 39.960159 -7.444275 35,000 202 456 0
2022-06-29 20:13:43 GMT 39.968399 -7.440063 35,000 202 456 0
2022-06-29 20:13:38 GMT 39.978642 -7.434810 35,000 202 456 0
2022-06-29 20:13:35 GMT 39.982956 -7.432617 35,000 202 456 0
2022-06-29 20:13:32 GMT 39.988045 -7.430004 35,000 202 456 0
2022-06-29 20:13:29 GMT 40.002571 -7.422576 35,000 202 456 0
2022-06-29 20:13:26 GMT 40.002571 -7.422576 35,000 202 456 0
2022-06-29 20:13:23 GMT 40.008671 -7.419454 35,000 202 456 0
2022-06-29 20:13:18 GMT 40.018120 -7.414585 35,000 202 456 0
2022-06-29 20:13:15 GMT 40.023426 -7.411901 35,000 202 456 0
2022-06-29 20:13:12 GMT 40.027954 -7.409607 35,000 202 456 0
2022-06-29 20:13:07 GMT 40.047226 -7.399719 35,000 202 457 0
2022-06-29 20:13:03 GMT 40.047226 -7.399719 35,000 202 457 0
2022-06-29 20:13:00 GMT 40.053127 -7.396670 35,000 202 457 0
2022-06-29 20:12:55 GMT 40.062561 -7.391846 35,000 202 457 0
2022-06-29 20:12:52 GMT 40.067459 -7.389343 35,000 202 457 0
2022-06-29 20:12:49 GMT 40.073181 -7.386414 35,000 202 457 0
2022-06-29 20:12:46 GMT 40.080048 -7.382874 35,000 202 457 0
2022-06-29 20:12:42 GMT 40.090256 -7.377625 35,000 202 457 0
2022-06-29 20:12:37 GMT 40.098141 -7.373574 35,000 202 457 0
2022-06-29 20:12:33 GMT 40.104813 -7.370117 35,000 202 457 0
2022-06-29 20:12:29 GMT 40.113464 -7.365723 35,000 202 456 0
2022-06-29 20:12:26 GMT 40.125469 -7.359529 35,000 202 456 0
2022-06-29 20:12:20 GMT 40.130768 -7.356812 35,000 202 456 0
2022-06-29 20:12:17 GMT 40.137039 -7.353577 35,000 202 456 0
2022-06-29 20:12:14 GMT 40.141754 -7.351196 35,000 202 456 0
2022-06-29 20:12:11 GMT 40.149395 -7.347232 35,000 202 456 0
2022-06-29 20:12:07 GMT 40.156860 -7.343445 35,000 202 455 0
2022-06-29 20:12:04 GMT 40.162949 -7.340271 35,000 202 456 0
2022-06-29 20:12:00 GMT 40.170391 -7.336433 35,000 202 456 0
2022-06-29 20:11:56 GMT 40.177654 -7.332687 35,000 202 456 0
2022-06-29 20:11:53 GMT 40.190002 -7.326355 35,000 202 456 0
2022-06-29 20:11:50 GMT 40.190002 -7.326355 35,000 202 456 0
2022-06-29 20:11:46 GMT 40.198837 -7.321777 35,000 202 456 0
2022-06-29 20:11:42 GMT 40.205292 -7.318420 35,000 202 456 0
2022-06-29 20:11:39 GMT 40.210190 -7.315918 35,000 202 456 0
2022-06-29 20:11:36 GMT 40.217651 -7.312073 35,000 202 455 0
2022-06-29 20:11:33 GMT 40.230164 -7.305534 35,000 202 455 0
2022-06-29 20:11:30 GMT 40.230164 -7.305534 35,000 202 455 0
2022-06-29 20:11:25 GMT 40.238777 -7.301102 35,000 202 455 0
2022-06-29 20:11:22 GMT 40.245247 -7.297731 35,000 202 455 0
2022-06-29 20:11:17 GMT 40.254639 -7.292847 35,000 202 455 0
2022-06-29 20:11:14 GMT 40.258759 -7.290710 35,000 202 455 0
2022-06-29 20:11:11 GMT 40.265213 -7.287415 35,000 202 455 0
2022-06-29 20:11:08 GMT 40.270889 -7.284424 35,000 202 455 0
2022-06-29 20:11:03 GMT 40.282394 -7.278442 35,000 202 455 0
2022-06-29 20:10:58 GMT 40.290207 -7.274414 35,000 202 454 0
2022-06-29 20:10:53 GMT 40.300972 -7.268829 35,000 202 454 0
2022-06-29 20:10:50 GMT 40.305859 -7.266270 35,000 202 453 0
2022-06-29 20:10:46 GMT 40.316193 -7.260902 35,000 202 454 0
2022-06-29 20:10:43 GMT 40.322021 -7.257874 35,000 202 454 0
2022-06-29 20:10:39 GMT 40.329071 -7.254272 35,000 202 453 0
2022-06-29 20:10:36 GMT 40.334908 -7.251226 35,000 202 453 0
2022-06-29 20:10:32 GMT 40.341339 -7.247864 35,000 202 453 0
2022-06-29 20:10:28 GMT 40.350456 -7.243111 35,000 202 451 0
2022-06-29 20:10:22 GMT 40.370270 -7.232788 35,000 202 451 0
2022-06-29 20:10:18 GMT 40.370270 -7.232788 35,000 202 451 0
2022-06-29 20:10:13 GMT 40.379059 -7.228271 35,000 202 451 0
2022-06-29 20:10:10 GMT 40.384857 -7.225259 35,000 202 451 0
2022-06-29 20:10:07 GMT 40.390686 -7.222229 35,000 202 451 0
2022-06-29 20:10:04 GMT 40.398685 -7.218080 35,000 202 451 0
2022-06-29 20:10:01 GMT 40.402954 -7.215881 35,000 202 451 0
2022-06-29 20:09:57 GMT 40.410919 -7.211731 35,000 202 451 0
2022-06-29 20:09:52 GMT 40.424515 -7.204651 35,000 202 451 0
2022-06-29 20:09:49 GMT 40.424515 -7.204651 35,000 202 451 0
2022-06-29 20:09:46 GMT 40.430511 -7.201538 35,000 202 451 0
2022-06-29 20:09:43 GMT 40.438477 -7.197449 35,000 202 451 0
2022-06-29 20:09:40 GMT 40.442348 -7.195421 35,000 202 451 0
2022-06-29 20:09:37 GMT 40.450104 -7.191406 35,000 202 451 0
2022-06-29 20:09:31 GMT 40.473213 -7.179378 35,000 202 450 0
2022-06-29 20:09:24 GMT 40.473213 -7.179378 35,000 202 451 0
2022-06-29 20:09:21 GMT 40.479965 -7.175883 35,000 202 450 0
2022-06-29 20:09:17 GMT 40.487732 -7.171814 35,000 202 450 0
2022-06-29 20:09:14 GMT 40.493511 -7.168766 35,000 202 448 0
2022-06-29 20:09:11 GMT 40.499142 -7.165895 35,000 202 449 0
2022-06-29 20:09:05 GMT 40.510162 -7.160156 35,000 202 448 0
2022-06-29 20:08:59 GMT 40.521908 -7.153972 35,000 202 448 0
2022-06-29 20:08:54 GMT 40.540203 -7.144484 35,000 202 447 0
2022-06-29 20:08:50 GMT 40.540203 -7.144484 35,000 202 447 0
2022-06-29 20:08:43 GMT 40.552540 -7.138055 35,000 202 446 0
2022-06-29 20:08:40 GMT 40.560013 -7.134155 35,000 202 446 0
2022-06-29 20:08:34 GMT 40.569996 -7.128941 35,000 202 446 0
2022-06-29 20:08:31 GMT 40.576538 -7.125549 35,000 202 446 0
2022-06-29 20:08:25 GMT 40.588989 -7.119016 35,000 202 445 0
2022-06-29 20:08:20 GMT 40.598557 -7.114014 35,000 202 445 0
2022-06-29 20:08:17 GMT 40.602394 -7.112024 35,000 202 444 0
2022-06-29 20:08:14 GMT 40.608681 -7.108716 35,000 202 444 0
2022-06-29 20:08:11 GMT 40.616913 -7.104431 35,000 202 444 0
2022-06-29 20:08:08 GMT 40.620552 -7.102536 35,000 202 444 0
2022-06-29 20:08:03 GMT 40.630280 -7.097412 35,000 202 443 0
2022-06-29 20:08:00 GMT 40.635216 -7.094858 35,000 202 443 0
2022-06-29 20:07:57 GMT 40.640213 -7.092224 35,000 202 443 0
2022-06-29 20:07:54 GMT 40.647629 -7.088318 35,000 202 442 0
2022-06-29 20:07:48 GMT 40.657513 -7.083123 35,000 202 442 0
2022-06-29 20:07:44 GMT 40.667221 -7.078064 35,000 202 442 0
2022-06-29 20:07:40 GMT 40.673904 -7.074585 35,000 202 442 0
2022-06-29 20:07:37 GMT 40.679810 -7.071472 35,000 202 442 0
2022-06-29 20:07:30 GMT 40.693497 -7.064270 35,000 202 442 0
2022-06-29 20:07:26 GMT 40.699924 -7.060901 35,000 202 442 0
2022-06-29 20:07:23 GMT 40.705994 -7.057678 35,000 202 442 0
2022-06-29 20:07:20 GMT 40.712074 -7.054534 35,000 202 442 0
2022-06-29 20:07:17 GMT 40.717026 -7.051941 35,000 202 441 0
2022-06-29 20:07:11 GMT 40.730507 -7.044858 35,000 202 441 0
2022-06-29 20:07:08 GMT 40.734283 -7.042847 35,000 202 441 0
2022-06-29 20:07:03 GMT 40.745686 -7.036868 35,000 202 441 0
2022-06-29 20:06:59 GMT 40.757088 -7.030875 35,000 202 441 0
2022-06-29 20:06:56 GMT 40.757088 -7.030875 35,000 202 441 0
2022-06-29 20:06:52 GMT 40.771473 -7.023260 35,000 202 441 0
2022-06-29 20:06:49 GMT 40.771473 -7.023260 35,000 202 441 0
2022-06-29 20:06:46 GMT 40.775665 -7.021057 35,000 202 441 0
2022-06-29 20:06:39 GMT 40.789116 -7.013959 35,000 202 442 0
2022-06-29 20:06:36 GMT 40.794846 -7.010986 35,000 202 442 0
2022-06-29 20:06:30 GMT 40.807755 -7.004150 35,000 202 442 0
2022-06-29 20:06:26 GMT 40.813614 -7.001038 35,000 202 442 0
2022-06-29 20:06:19 GMT 40.833389 -6.990675 35,000 202 442 0
2022-06-29 20:06:16 GMT 40.833389 -6.990675 35,000 202 442 0
2022-06-29 20:06:09 GMT 40.845909 -6.984059 35,000 202 442 0
2022-06-29 20:06:06 GMT 40.854103 -6.979752 35,000 202 442 0
2022-06-29 20:05:59 GMT 40.871201 -6.970764 35,000 202 442 0
2022-06-29 20:05:56 GMT 40.882187 -6.965027 35,000 202 442 0
2022-06-29 20:05:51 GMT 40.882187 -6.965027 35,000 202 442 0
2022-06-29 20:05:47 GMT 40.888870 -6.961487 35,000 202 442 0
2022-06-29 20:05:44 GMT 40.895508 -6.958008 35,000 202 442 0
2022-06-29 20:05:39 GMT 40.904068 -6.953552 35,000 202 441 0
2022-06-29 20:05:36 GMT 40.908245 -6.951349 35,000 202 441 0
2022-06-29 20:05:33 GMT 40.914482 -6.948041 35,000 202 441 0
2022-06-29 20:05:29 GMT 40.922836 -6.943665 35,000 202 441 0
2022-06-29 20:05:26 GMT 40.930435 -6.939636 35,000 202 441 0
2022-06-29 20:05:20 GMT 40.941994 -6.933559 35,000 202 441 0
2022-06-29 20:05:17 GMT 40.946136 -6.931374 35,000 202 441 0
2022-06-29 20:05:12 GMT 40.954285 -6.927067 35,000 202 441 0
2022-06-29 20:05:07 GMT 40.966389 -6.920638 35,000 202 441 0
2022-06-29 20:05:04 GMT 40.968658 -6.919434 35,000 202 441 0
2022-06-29 20:04:58 GMT 40.980587 -6.913085 35,000 202 440 0
2022-06-29 20:04:55 GMT 40.986237 -6.910095 35,000 202 441 0
2022-06-29 20:04:52 GMT 40.992874 -6.906555 35,000 203 440 0
2022-06-29 20:04:48 GMT 40.999832 -6.902832 35,000 203 440 0
2022-06-29 20:04:45 GMT 41.007568 -6.898743 35,000 202 439 0
2022-06-29 20:04:42 GMT 41.011356 -6.896730 35,000 202 439 0
2022-06-29 20:04:38 GMT 41.019287 -6.892517 35,000 202 439 0
2022-06-29 20:04:35 GMT 41.024002 -6.890015 35,000 202 439 0
2022-06-29 20:04:32 GMT 41.030594 -6.886536 35,000 202 438 0
2022-06-29 20:04:28 GMT 41.038498 -6.882310 35,000 202 438 0
2022-06-29 20:04:22 GMT 41.049809 -6.876318 35,000 202 438 0
2022-06-29 20:04:18 GMT 41.056549 -6.872742 35,000 202 438 0
2022-06-29 20:04:12 GMT 41.068954 -6.866150 35,000 202 437 64
2022-06-29 20:04:08 GMT 41.076485 -6.862148 35,000 202 437 64
2022-06-29 20:04:04 GMT 41.082870 -6.858765 35,000 202 437 0
2022-06-29 20:04:01 GMT 41.089054 -6.855469 35,000 202 437 0
2022-06-29 20:03:57 GMT 41.095230 -6.852173 35,000 202 437 0
2022-06-29 20:03:54 GMT 41.101044 -6.849060 35,000 202 437 0
2022-06-29 20:03:51 GMT 41.107628 -6.845606 35,000 202 437 0
2022-06-29 20:03:48 GMT 41.113998 -6.842224 35,000 202 437 0
2022-06-29 20:03:45 GMT 41.120361 -6.838806 35,000 202 437 0
2022-06-29 20:03:41 GMT 41.126770 -6.835449 35,000 202 436 0
2022-06-29 20:03:37 GMT 41.135193 -6.830933 35,000 202 436 0
2022-06-29 20:03:34 GMT 41.138912 -6.828939 35,000 202 436 0
2022-06-29 20:03:31 GMT 41.146042 -6.825195 35,000 202 436 0
2022-06-29 20:03:27 GMT 41.152039 -6.822010 35,000 202 436 0
2022-06-29 20:03:23 GMT 41.161011 -6.817261 35,000 202 436 0
2022-06-29 20:03:20 GMT 41.170940 -6.811960 35,000 202 436 0
2022-06-29 20:03:17 GMT 41.177132 -6.808652 35,000 202 435 0
2022-06-29 20:03:14 GMT 41.177132 -6.808652 35,000 202 435 0
2022-06-29 20:03:10 GMT 41.184219 -6.804871 35,000 202 435 0
2022-06-29 20:03:07 GMT 41.190033 -6.801819 35,000 202 435 0
2022-06-29 20:03:04 GMT 41.197102 -6.798040 35,000 202 435 0
2022-06-29 20:02:59 GMT 41.203667 -6.794545 35,000 202 435 0
2022-06-29 20:02:56 GMT 41.211674 -6.790237 35,000 202 435 0
2022-06-29 20:02:51 GMT 41.218422 -6.786679 35,000 202 435 0
2022-06-29 20:02:48 GMT 41.224731 -6.783264 35,000 203 434 0
2022-06-29 20:02:45 GMT 41.231457 -6.779688 35,000 203 434 0
2022-06-29 20:02:42 GMT 41.238556 -6.775879 35,000 203 434 0
2022-06-29 20:02:37 GMT 41.246399 -6.771698 35,000 203 434 0
2022-06-29 20:02:32 GMT 41.254028 -6.767639 35,000 202 434 0
2022-06-29 20:02:27 GMT 41.265953 -6.761273 35,000 202 434 0
2022-06-29 20:02:23 GMT 41.272842 -6.757568 35,000 202 434 0
2022-06-29 20:02:19 GMT 41.279591 -6.753970 35,000 203 434 0
2022-06-29 20:02:16 GMT 41.284607 -6.751282 35,000 203 434 0
2022-06-29 20:02:12 GMT 41.292255 -6.747228 35,000 203 434 0
2022-06-29 20:02:08 GMT 41.301006 -6.742547 35,000 203 434 0
2022-06-29 20:02:05 GMT 41.304886 -6.740417 35,000 203 434 0
2022-06-29 20:02:02 GMT 41.310654 -6.737366 35,000 202 434 0
2022-06-29 20:01:59 GMT 41.317577 -6.733683 35,000 202 434 0
2022-06-29 20:01:56 GMT 41.322235 -6.731201 35,000 202 434 0
2022-06-29 20:01:51 GMT 41.330612 -6.726692 35,000 202 434 0
2022-06-29 20:01:47 GMT 41.338440 -6.722534 35,000 202 434 64
2022-06-29 20:01:44 GMT 41.345673 -6.718628 35,000 202 434 64
2022-06-29 20:01:41 GMT 41.349419 -6.716642 35,000 202 434 64
2022-06-29 20:01:36 GMT 41.359287 -6.711336 35,000 203 434 0
2022-06-29 20:01:32 GMT 41.368423 -6.706482 35,000 203 434 0
2022-06-29 20:01:26 GMT 41.378281 -6.701161 35,000 203 434 0
2022-06-29 20:01:21 GMT 41.387192 -6.696292 35,000 203 434 -64
2022-06-29 20:01:16 GMT 41.397263 -6.690861 35,000 203 435 0
2022-06-29 20:01:11 GMT 41.405796 -6.686267 35,000 203 436 0
2022-06-29 20:01:06 GMT 41.416267 -6.680646 35,000 203 436 0
2022-06-29 20:01:00 GMT 41.425415 -6.675692 35,000 203 436 0
2022-06-29 20:00:55 GMT 41.435543 -6.670234 35,000 203 438 0
2022-06-29 20:00:51 GMT 41.444527 -6.665380 35,000 203 439 0
2022-06-29 20:00:45 GMT 41.453743 -6.660398 35,000 203 439 0
2022-06-29 20:00:40 GMT 41.464096 -6.654843 35,000 203 440 0
2022-06-29 20:00:34 GMT 41.474133 -6.649411 35,000 203 441 0
2022-06-29 20:00:29 GMT 41.483780 -6.644232 35,000 203 441 0
2022-06-29 20:00:25 GMT 41.492661 -6.639425 35,000 203 442 0
2022-06-29 20:00:19 GMT 41.502716 -6.634018 35,000 203 442 0
2022-06-29 20:00:15 GMT 41.510071 -6.629994 35,000 202 443 0
2022-06-29 20:00:10 GMT 41.521477 -6.623862 35,000 202 443 0
2022-06-29 20:00:06 GMT 41.529251 -6.619646 35,000 202 443 0
2022-06-29 19:59:59 GMT 41.541401 -6.613131 35,000 202 443 -64
2022-06-29 19:59:55 GMT 41.548828 -6.609150 35,000 202 442 0
2022-06-29 19:59:52 GMT 41.555466 -6.605592 35,000 202 442 0
2022-06-29 19:59:48 GMT 41.562881 -6.601660 35,000 202 442 0
2022-06-29 19:59:44 GMT 41.570297 -6.597665 35,000 202 442 0
2022-06-29 19:59:39 GMT 41.579994 -6.592499 35,000 203 442 64
2022-06-29 19:59:35 GMT 41.587601 -6.588426 35,000 203 442 0
2022-06-29 19:59:32 GMT 41.595154 -6.584369 35,000 203 442 64
2022-06-29 19:59:28 GMT 41.599731 -6.581872 35,000 203 442 0
2022-06-29 19:59:25 GMT 41.606735 -6.578126 35,000 203 442 0
2022-06-29 19:59:21 GMT 41.612640 -6.574943 35,000 203 442 0
2022-06-29 19:59:18 GMT 41.619278 -6.571385 35,000 203 442 0
2022-06-29 19:59:15 GMT 41.626465 -6.567515 35,000 203 442 0
2022-06-29 19:59:10 GMT 41.634247 -6.563270 35,000 203 442 0
2022-06-29 19:59:07 GMT 41.640518 -6.559899 35,000 203 442 0
2022-06-29 19:59:04 GMT 41.646378 -6.556716 35,000 203 442 -64
2022-06-29 19:59:01 GMT 41.652847 -6.553217 35,000 203 442 0
2022-06-29 19:58:57 GMT 41.658508 -6.550161 35,025 202 441 64
2022-06-29 19:58:53 GMT 41.666115 -6.546063 35,000 203 442 0
2022-06-29 19:58:47 GMT 41.677475 -6.539867 35,000 203 442 0
2022-06-29 19:58:43 GMT 41.687531 -6.534431 35,000 203 442 64
2022-06-29 19:58:37 GMT 41.697536 -6.529009 35,000 203 442 0
2022-06-29 19:58:34 GMT 41.704754 -6.525049 35,000 203 442 -64
2022-06-29 19:58:29 GMT 41.711552 -6.521344 35,000 203 441 0
2022-06-29 19:58:26 GMT 41.717045 -6.518406 35,000 203 441 -64
2022-06-29 19:58:22 GMT 41.724609 -6.514268 35,000 203 441 0
2022-06-29 19:58:16 GMT 41.735806 -6.508186 35,000 203 442 64
2022-06-29 19:58:13 GMT 41.742188 -6.504655 35,000 203 442 64
2022-06-29 19:58:06 GMT 41.755634 -6.497263 35,000 203 441 64
2022-06-29 19:58:03 GMT 41.762245 -6.493686 35,000 203 442 0
2022-06-29 19:57:57 GMT 41.774582 -6.486980 35,000 203 442 0
2022-06-29 19:57:52 GMT 41.781601 -6.483182 35,000 203 440 -64
2022-06-29 19:57:49 GMT 41.790318 -6.478484 35,000 202 441 0
2022-06-29 19:57:46 GMT 41.794098 -6.476440 35,000 202 441 -64
2022-06-29 19:57:43 GMT 41.800556 -6.472991 35,025 202 441 64
2022-06-29 19:57:35 GMT 41.814522 -6.465454 35,000 203 441 128
2022-06-29 19:57:32 GMT 41.820236 -6.462333 35,000 203 441 64
2022-06-29 19:57:25 GMT 41.832493 -6.455681 35,000 203 441 -64
2022-06-29 19:57:21 GMT 41.840057 -6.451596 35,000 203 441 0
2022-06-29 19:57:16 GMT 41.852695 -6.444695 35,000 203 440 64
2022-06-29 19:57:11 GMT 41.859306 -6.441118 35,000 203 440 0
2022-06-29 19:57:05 GMT 41.870819 -6.434867 35,000 203 439 0
2022-06-29 19:57:02 GMT 41.878693 -6.430560 35,000 203 439 0
2022-06-29 19:56:55 GMT 41.890171 -6.424255 35,000 203 439 64
2022-06-29 19:56:51 GMT 41.897278 -6.420323 35,000 203 439 0
2022-06-29 19:56:47 GMT 41.907207 -6.414866 35,000 203 438 0
2022-06-29 19:56:44 GMT 41.910049 -6.413331 35,000 203 437 0
2022-06-29 19:56:41 GMT 41.916798 -6.409628 35,000 203 437 -64
2022-06-29 19:56:35 GMT 41.928391 -6.403305 35,000 203 437 0
2022-06-29 19:56:32 GMT 41.935135 -6.399599 35,000 203 436 0
2022-06-29 19:56:29 GMT 41.938122 -6.397939 35,000 203 436 0
2022-06-29 19:56:26 GMT 41.945007 -6.394171 35,000 203 436 0
2022-06-29 19:56:23 GMT 41.948776 -6.392108 35,000 203 436 0
2022-06-29 19:56:20 GMT 41.954544 -6.388924 35,000 203 436 0
2022-06-29 19:56:12 GMT 41.975082 -6.377691 35,000 203 436 0
2022-06-29 19:56:03 GMT 41.986450 -6.371509 35,000 203 435 -64
2022-06-29 19:56:00 GMT 41.992447 -6.368238 35,000 203 435 -64
2022-06-29 19:55:53 GMT 42.006226 -6.360709 35,000 203 434 0
2022-06-29 19:55:50 GMT 42.011444 -6.357900 35,000 203 434 0
2022-06-29 19:55:44 GMT 42.023895 -6.351096 35,000 203 434 0
2022-06-29 19:55:39 GMT 42.030945 -6.347223 35,000 203 434 0
2022-06-29 19:55:34 GMT 42.049530 -6.337051 35,000 203 433 64
2022-06-29 19:55:30 GMT 42.049530 -6.337051 35,000 203 434 64
2022-06-29 19:55:23 GMT 42.061798 -6.330372 35,000 203 433 0
2022-06-29 19:55:19 GMT 42.068836 -6.326528 35,000 203 433 0
2022-06-29 19:55:12 GMT 42.081985 -6.319323 35,000 202 433 0
2022-06-29 19:55:09 GMT 42.087551 -6.316308 35,000 202 433 64
2022-06-29 19:55:03 GMT 42.100937 -6.309086 35,000 203 432 -64
2022-06-29 19:54:58 GMT 42.107197 -6.305514 35,000 205 430 -64
2022-06-29 19:54:52 GMT 42.119442 -6.297849 35,000 208 427 -64
2022-06-29 19:54:48 GMT 42.124886 -6.294080 35,000 210 425 0
2022-06-29 19:54:43 GMT 42.136620 -6.285329 35,000 210 425 0
2022-06-29 19:54:40 GMT 42.143600 -6.279964 35,000 210 425 0
2022-06-29 19:54:30 GMT 42.157608 -6.269073 35,000 211 425 0
2022-06-29 19:54:27 GMT 42.160828 -6.266550 35,000 211 425 0
2022-06-29 19:54:20 GMT 42.174133 -6.256214 35,000 211 425 0
2022-06-29 19:54:17 GMT 42.178711 -6.252656 35,000 211 425 0
2022-06-29 19:54:12 GMT 42.188919 -6.244666 35,000 211 425 0
2022-06-29 19:54:08 GMT 42.193680 -6.240983 35,000 211 425 0
2022-06-29 19:54:01 GMT 42.205608 -6.231675 35,000 211 425 0
2022-06-29 19:53:57 GMT 42.212593 -6.226182 35,000 211 425 -64
2022-06-29 19:53:51 GMT 42.223297 -6.217825 35,000 211 425 0
2022-06-29 19:53:48 GMT 42.227234 -6.214766 35,000 211 425 0
2022-06-29 19:53:42 GMT 42.237915 -6.206381 35,000 211 425 0
2022-06-29 19:53:39 GMT 42.243549 -6.202038 35,000 211 425 0
2022-06-29 19:53:36 GMT 42.248810 -6.197886 35,000 211 425 0
2022-06-29 19:53:30 GMT 42.263763 -6.186177 35,000 211 425 0
2022-06-29 19:53:27 GMT 42.263763 -6.186177 35,000 211 425 0
2022-06-29 19:53:20 GMT 42.281937 -6.172007 35,000 211 425 0
2022-06-29 19:53:17 GMT 42.281937 -6.172007 35,000 211 425 0
2022-06-29 19:53:09 GMT 42.295223 -6.161669 35,000 211 425 0
2022-06-29 19:53:06 GMT 42.299831 -6.158092 35,000 211 425 0
2022-06-29 19:52:59 GMT 42.310501 -6.149722 35,000 211 425 0
2022-06-29 19:52:56 GMT 42.316818 -6.144791 35,000 211 425 0
2022-06-29 19:52:48 GMT 42.330597 -6.134054 35,000 211 425 0
2022-06-29 19:52:40 GMT 42.343185 -6.124191 35,000 211 424 0
2022-06-29 19:52:37 GMT 42.348942 -6.119640 35,000 211 425 -64
2022-06-29 19:52:32 GMT 42.358475 -6.112206 35,000 211 424 0
2022-06-29 19:52:28 GMT 42.366943 -6.105589 35,000 211 424 0
2022-06-29 19:52:22 GMT 42.374081 -6.099967 35,000 211 424 0
2022-06-29 19:52:17 GMT 42.382050 -6.093729 35,000 211 424 0
2022-06-29 19:52:14 GMT 42.387814 -6.089172 35,000 211 424 0
2022-06-29 19:52:08 GMT 42.399033 -6.080358 35,000 211 424 0
2022-06-29 19:52:04 GMT 42.405132 -6.075567 35,000 211 424 0
2022-06-29 19:51:55 GMT 42.420353 -6.063559 35,000 211 423 0
2022-06-29 19:51:46 GMT 42.436295 -6.051032 35,000 211 423 0
2022-06-29 19:51:35 GMT 42.453873 -6.037179 35,000 211 423 0
2022-06-29 19:51:27 GMT 42.471470 -6.023318 35,000 211 423 0
2022-06-29 19:51:17 GMT 42.485294 -6.012332 35,000 211 423 0
2022-06-29 19:51:14 GMT 42.489532 -6.009010 35,000 211 423 0
2022-06-29 19:51:06 GMT 42.503357 -5.998024 35,000 211 423 0
2022-06-29 19:51:03 GMT 42.508072 -5.994290 35,000 211 423 0
2022-06-29 19:50:54 GMT 42.522583 -5.982805 35,000 211 423 64
2022-06-29 19:50:44 GMT 42.540180 -5.968898 35,000 211 423 0
2022-06-29 19:50:34 GMT 42.556938 -5.955803 35,000 211 423 0
2022-06-29 19:50:24 GMT 42.573990 -5.942355 35,000 211 422 64
2022-06-29 19:50:13 GMT 42.591705 -5.928372 35,000 211 421 64
2022-06-29 19:50:04 GMT 42.609695 -5.914203 35,000 211 420 0
2022-06-29 19:49:53 GMT 42.626312 -5.901031 35,000 211 419 -64
2022-06-29 19:49:45 GMT 42.639313 -5.890732 35,000 211 418 0
2022-06-29 19:49:42 GMT 42.644318 -5.886756 35,000 211 418 64
2022-06-29 19:49:35 GMT 42.656204 -5.877311 35,000 211 418 0
2022-06-29 19:49:31 GMT 42.663357 -5.871681 35,000 211 418 0
2022-06-29 19:49:25 GMT 42.678040 -5.860020 35,000 211 417 0
2022-06-29 19:49:22 GMT 42.678040 -5.860020 35,000 211 417 0
2022-06-29 19:49:12 GMT 42.694794 -5.846662 35,000 211 415 0
2022-06-29 19:49:04 GMT 42.707108 -5.836924 35,000 211 415 0
2022-06-29 19:49:01 GMT 42.711914 -5.833116 35,000 211 415 0
2022-06-29 19:48:54 GMT 42.725830 -5.822067 35,000 211 415 0
2022-06-29 19:48:51 GMT 42.729309 -5.819321 35,000 211 414 0
2022-06-29 19:48:43 GMT 42.742676 -5.808646 35,000 211 414 0
2022-06-29 19:48:40 GMT 42.746613 -5.805463 35,000 211 413 0
2022-06-29 19:48:33 GMT 42.758652 -5.795912 35,000 211 412 0
2022-06-29 19:48:30 GMT 42.762932 -5.792478 35,000 211 412 0
2022-06-29 19:48:24 GMT 42.774105 -5.783599 35,000 211 412 0
2022-06-29 19:48:21 GMT 42.779709 -5.779121 35,000 211 412 0
2022-06-29 19:48:13 GMT 42.792572 -5.768883 35,000 211 412 -64
2022-06-29 19:48:10 GMT 42.796692 -5.765637 35,000 211 412 0
2022-06-29 19:48:02 GMT 42.808868 -5.755962 35,000 211 412 0
2022-06-29 19:47:59 GMT 42.813812 -5.751997 35,000 211 412 0
2022-06-29 19:47:53 GMT 42.825485 -5.742720 35,000 211 412 0
2022-06-29 19:47:50 GMT 42.830387 -5.738787 35,000 211 412 0
2022-06-29 19:47:41 GMT 42.844208 -5.727709 35,000 211 412 0
2022-06-29 19:47:37 GMT 42.850777 -5.722438 35,000 211 412 0
2022-06-29 19:47:31 GMT 42.860504 -5.714743 35,000 211 412 0
2022-06-29 19:47:28 GMT 42.865440 -5.710798 35,000 211 412 0
2022-06-29 19:47:22 GMT 42.875839 -5.702479 35,000 211 412 0
2022-06-29 19:47:18 GMT 42.882248 -5.697369 35,000 211 412 0
2022-06-29 19:47:12 GMT 42.892136 -5.689449 35,000 211 414 0
2022-06-29 19:47:09 GMT 42.897903 -5.684850 35,000 211 414 0
2022-06-29 19:47:03 GMT 42.908642 -5.676270 35,000 211 414 0
2022-06-29 19:47:00 GMT 42.910923 -5.674438 35,000 211 414 0
2022-06-29 19:46:56 GMT 42.917717 -5.669011 35,000 211 414 0
2022-06-29 19:46:52 GMT 42.925632 -5.662667 35,000 211 414 0
2022-06-29 19:46:48 GMT 42.933197 -5.656554 35,000 211 414 0
2022-06-29 19:46:42 GMT 42.942249 -5.649261 35,000 211 414 0
2022-06-29 19:46:37 GMT 42.950352 -5.642787 35,000 211 414 0
2022-06-29 19:46:30 GMT 42.962082 -5.633367 35,000 211 414 0
2022-06-29 19:46:25 GMT 42.969810 -5.627093 35,000 211 415 0
2022-06-29 19:46:20 GMT 42.977737 -5.620720 35,000 211 415 0
2022-06-29 19:46:17 GMT 42.984055 -5.615649 35,000 211 416 0
2022-06-29 19:46:11 GMT 42.993275 -5.608194 35,000 211 416 0
2022-06-29 19:46:08 GMT 42.996597 -5.605518 35,000 211 416 0
2022-06-29 19:46:04 GMT 43.012501 -5.592760 35,000 211 416 0
2022-06-29 19:45:59 GMT 43.012501 -5.592760 35,000 211 416 0
2022-06-29 19:45:55 GMT 43.020786 -5.586090 35,000 211 416 0
2022-06-29 19:45:50 GMT 43.026718 -5.581246 35,000 211 416 0
2022-06-29 19:45:44 GMT 43.037018 -5.572943 35,000 211 416 0
2022-06-29 19:45:40 GMT 43.045120 -5.566428 35,000 211 416 0
2022-06-29 19:45:34 GMT 43.054733 -5.558699 35,000 211 417 0
2022-06-29 19:45:29 GMT 43.062916 -5.552150 35,000 211 417 0
2022-06-29 19:45:26 GMT 43.068733 -5.547507 35,000 211 417 0
2022-06-29 19:45:19 GMT 43.079041 -5.539217 35,000 211 417 0
2022-06-29 19:45:13 GMT 43.090054 -5.530439 35,000 211 417 0
2022-06-29 19:45:09 GMT 43.096024 -5.525612 35,000 211 417 0
2022-06-29 19:45:05 GMT 43.102345 -5.520499 35,000 211 417 0
2022-06-29 19:45:02 GMT 43.106861 -5.516902 35,000 211 418 0
2022-06-29 19:44:58 GMT 43.113190 -5.511815 35,000 211 418 0
2022-06-29 19:44:54 GMT 43.131485 -5.497022 35,000 211 418 0
2022-06-29 19:44:48 GMT 43.131485 -5.497022 35,000 211 418 0
2022-06-29 19:44:44 GMT 43.146790 -5.484669 35,000 211 418 0
2022-06-29 19:44:39 GMT 43.146790 -5.484669 35,000 211 418 0
2022-06-29 19:44:33 GMT 43.154808 -5.478254 35,000 211 418 0
2022-06-29 19:44:28 GMT 43.163269 -5.471383 35,000 211 418 0
2022-06-29 19:44:23 GMT 43.171288 -5.464914 35,000 211 418 0
2022-06-29 19:44:18 GMT 43.181576 -5.456543 35,000 211 418 0
2022-06-29 19:44:14 GMT 43.188606 -5.450919 35,000 211 418 0
2022-06-29 19:44:10 GMT 43.195728 -5.445099 35,000 211 418 0
2022-06-29 19:44:06 GMT 43.200760 -5.441043 35,000 211 418 0
2022-06-29 19:44:02 GMT 43.207214 -5.435805 35,000 211 418 0
2022-06-29 19:43:57 GMT 43.215546 -5.429035 35,000 211 418 0
2022-06-29 19:43:52 GMT 43.223240 -5.422799 35,000 211 418 0
2022-06-29 19:43:48 GMT 43.230560 -5.416835 35,000 211 418 0
2022-06-29 19:43:41 GMT 43.242046 -5.407497 35,000 211 419 0
2022-06-29 19:43:37 GMT 43.250053 -5.401023 35,000 211 418 0
2022-06-29 19:43:31 GMT 43.258026 -5.394543 35,000 211 419 0
2022-06-29 19:43:28 GMT 43.265030 -5.388858 35,000 211 419 0
2022-06-29 19:43:22 GMT 43.273376 -5.382058 35,000 211 419 0
2022-06-29 19:43:18 GMT 43.280033 -5.376696 35,000 211 419 0
2022-06-29 19:43:11 GMT 43.292046 -5.366952 35,000 211 419 0
2022-06-29 19:43:07 GMT 43.303207 -5.357879 35,000 211 419 0
2022-06-29 19:43:01 GMT 43.309708 -5.352577 35,000 211 419 0
2022-06-29 19:42:57 GMT 43.315521 -5.347851 35,000 211 419 0
2022-06-29 19:42:52 GMT 43.323212 -5.341591 35,000 211 419 0
2022-06-29 19:42:48 GMT 43.330399 -5.335779 35,000 211 419 0
2022-06-29 19:42:43 GMT 43.338039 -5.329546 35,000 211 419 0
2022-06-29 19:42:38 GMT 43.347397 -5.321895 35,000 211 419 0
2022-06-29 19:42:31 GMT 43.359558 -5.312017 35,000 211 419 0
2022-06-29 19:42:28 GMT 43.365551 -5.307116 35,000 211 419 0
2022-06-29 19:42:21 GMT 43.378075 -5.296980 35,000 211 419 0
2022-06-29 19:42:16 GMT 43.382774 -5.293187 35,000 211 419 0
2022-06-29 19:42:12 GMT 43.391281 -5.286212 35,000 211 420 0
2022-06-29 19:42:06 GMT 43.399612 -5.279442 35,000 211 420 0
2022-06-29 19:42:02 GMT 43.407440 -5.273054 35,000 211 420 0
2022-06-29 19:41:59 GMT 43.416779 -5.265389 35,000 211 420 0
2022-06-29 19:41:56 GMT 43.416779 -5.265389 35,000 211 420 0
2022-06-29 19:41:52 GMT 43.424438 -5.259116 35,000 211 419 0
2022-06-29 19:41:46 GMT 43.433624 -5.251656 35,000 211 419 0
2022-06-29 19:41:41 GMT 43.441292 -5.245383 35,000 211 419 0
2022-06-29 19:41:36 GMT 43.450424 -5.237860 35,000 211 419 0
2022-06-29 19:41:33 GMT 43.455917 -5.233325 35,000 211 419 0
2022-06-29 19:41:30 GMT 43.459076 -5.230770 35,000 211 419 0
2022-06-29 19:41:25 GMT 43.470898 -5.221056 35,000 211 419 0
2022-06-29 19:41:17 GMT 43.482559 -5.211480 35,000 211 419 0
2022-06-29 19:41:13 GMT 43.489239 -5.206081 35,000 211 419 0
2022-06-29 19:41:06 GMT 43.502747 -5.195000 35,000 211 419 0
2022-06-29 19:41:01 GMT 43.509888 -5.189124 35,000 211 419 0
2022-06-29 19:40:58 GMT 43.513538 -5.186135 35,000 211 419 0
2022-06-29 19:40:56 GMT 43.521687 -5.179465 35,000 211 419 0
2022-06-29 19:40:53 GMT 43.521687 -5.179465 35,000 211 419 0
2022-06-29 19:40:50 GMT 43.526688 -5.175327 35,000 211 419 0
2022-06-29 19:40:46 GMT 43.533188 -5.170025 35,000 211 419 0
2022-06-29 19:40:43 GMT 43.541004 -5.163574 35,000 211 419 0
2022-06-29 19:40:40 GMT 43.543335 -5.161678 35,000 211 419 0
2022-06-29 19:40:34 GMT 43.553146 -5.153610 35,000 211 419 0
2022-06-29 19:40:30 GMT 43.559967 -5.147989 35,000 211 419 0
2022-06-29 19:40:25 GMT 43.569263 -5.140359 35,000 211 419 0
2022-06-29 19:40:22 GMT 43.574757 -5.135847 35,000 211 419 0
2022-06-29 19:40:19 GMT 43.577923 -5.133231 35,000 211 419 0
2022-06-29 19:40:16 GMT 43.584393 -5.127934 35,000 211 419 0
2022-06-29 19:40:10 GMT 43.593376 -5.120544 35,000 211 419 0
2022-06-29 19:40:06 GMT 43.600342 -5.114838 35,000 211 419 0
2022-06-29 19:40:02 GMT 43.607986 -5.108579 35,000 211 418 0
2022-06-29 19:39:59 GMT 43.611160 -5.105961 35,000 211 418 0
2022-06-29 19:39:56 GMT 43.617306 -5.100926 35,000 211 418 0
2022-06-29 19:39:50 GMT 43.627441 -5.092610 35,000 211 417 0
2022-06-29 19:39:46 GMT 43.634399 -5.086862 35,000 211 417 0
2022-06-29 19:39:39 GMT 43.645004 -5.078103 35,000 211 417 0
2022-06-29 19:39:35 GMT 43.651985 -5.072414 35,000 211 417 0
2022-06-29 19:39:31 GMT 43.658085 -5.067378 35,000 211 417 0
2022-06-29 19:39:28 GMT 43.663254 -5.063128 35,000 211 417 0
2022-06-29 19:39:25 GMT 43.669876 -5.057671 35,000 211 417 0
2022-06-29 19:39:20 GMT 43.676147 -5.052534 35,000 211 417 0
2022-06-29 19:39:17 GMT 43.681267 -5.048283 35,000 211 417 0
2022-06-29 19:39:15 GMT 43.685085 -5.045144 35,000 211 417 0
2022-06-29 19:39:09 GMT 43.695511 -5.036593 35,000 211 416 0
2022-06-29 19:39:05 GMT 43.701965 -5.031291 35,000 211 416 0
2022-06-29 19:39:01 GMT 43.708420 -5.025990 35,000 211 416 0
2022-06-29 19:38:57 GMT 43.714188 -5.021199 35,000 211 416 0
2022-06-29 19:38:55 GMT 43.717857 -5.018267 35,000 211 416 0
2022-06-29 19:38:50 GMT 43.725769 -5.011746 35,000 211 416 0
2022-06-29 19:38:47 GMT 43.735874 -5.003422 39,000 211 415 0
2022-06-29 19:38:44 GMT 43.735874 -5.003422 35,000 211 415 0
2022-06-29 19:38:39 GMT 43.743462 -4.997210 35,000 211 415 0
2022-06-29 19:38:36 GMT 43.748062 -4.993414 35,000 211 415 0
2022-06-29 19:38:34 GMT 43.751888 -4.990278 35,000 211 415 0
2022-06-29 19:38:28 GMT 43.762619 -4.981469 35,000 211 415 0
2022-06-29 19:38:23 GMT 43.769718 -4.975630 35,000 211 415 0
2022-06-29 19:38:17 GMT 43.780609 -4.966670 35,000 211 415 0
2022-06-29 19:38:15 GMT 43.785553 -4.962627 35,000 211 415 0
2022-06-29 19:38:09 GMT 43.794113 -4.955600 35,000 211 414 0
2022-06-29 19:38:05 GMT 43.799881 -4.950874 35,000 211 414 0
2022-06-29 19:38:01 GMT 43.807098 -4.944894 35,000 211 414 0
2022-06-29 19:37:58 GMT 43.812870 -4.940186 39,000 211 414 0
2022-06-29 19:37:53 GMT 43.820786 -4.933646 35,000 211 413 0
2022-06-29 19:37:50 GMT 43.827026 -4.928518 35,000 211 413 0
2022-06-29 19:37:46 GMT 43.830143 -4.925929 35,000 211 413 0
2022-06-29 19:37:43 GMT 43.836044 -4.921045 35,000 211 413 0
2022-06-29 19:37:37 GMT 43.845692 -4.912981 35,000 212 413 0
2022-06-29 19:37:34 GMT 43.852257 -4.907488 35,000 212 413 0
2022-06-29 19:37:29 GMT 43.861565 -4.899706 35,000 212 413 0
2022-06-29 19:37:25 GMT 43.865616 -4.896306 35,000 212 413 0
2022-06-29 19:37:23 GMT 43.869385 -4.893167 35,000 212 412 0
2022-06-29 19:37:18 GMT 43.878510 -4.885450 35,000 212 412 0
2022-06-29 19:37:13 GMT 43.885986 -4.879143 35,000 212 412 0
2022-06-29 19:37:07 GMT 43.895416 -4.871159 39,000 212 412 0
2022-06-29 19:37:03 GMT 43.901733 -4.865730 35,000 212 412 0
2022-06-29 19:36:57 GMT 43.911484 -4.857490 39,000 212 412 0
2022-06-29 19:36:52 GMT 43.919617 -4.850660 35,000 212 412 0
2022-06-29 19:36:47 GMT 43.929245 -4.842607 35,000 212 412 0
2022-06-29 19:36:42 GMT 43.944763 -4.829705 35,000 212 412 0
2022-06-29 19:36:37 GMT 43.944763 -4.829705 39,000 212 412 0
2022-06-29 19:36:30 GMT 43.955044 -4.821102 35,000 212 412 0
2022-06-29 19:36:26 GMT 43.961559 -4.815674 35,000 212 412 0
2022-06-29 19:36:23 GMT 43.968262 -4.810115 35,000 212 412 0
2022-06-29 19:36:17 GMT 43.978367 -4.801614 35,000 212 412 0
2022-06-29 19:36:10 GMT 43.988297 -4.793361 35,000 212 411 0
2022-06-29 19:36:02 GMT 44.001022 -4.782694 35,000 212 411 0
2022-06-29 19:35:59 GMT 44.006062 -4.778464 35,000 212 411 0
2022-06-29 19:35:51 GMT 44.019516 -4.767172 35,000 212 410 0
2022-06-29 19:35:41 GMT 44.034622 -4.754461 35,000 212 410 0
2022-06-29 19:35:31 GMT 44.050690 -4.740920 35,000 212 410 0
2022-06-29 19:35:21 GMT 44.067535 -4.726804 35,000 212 410 0
2022-06-29 19:35:11 GMT 44.084198 -4.712752 35,000 212 409 0
2022-06-29 19:34:57 GMT 44.106583 -4.693973 35,000 212 409 0
2022-06-29 19:34:54 GMT 44.111412 -4.689920 35,000 212 409 0
2022-06-29 19:34:19 GMT 44.168472 -4.641915 35,000 212 407 0
2022-06-29 19:34:12 GMT 44.179459 -4.632654 35,000 212 408 0
2022-06-29 19:33:51 GMT 44.213406 -4.604209 35,000 211 408 0
2022-06-29 19:33:39 GMT 44.233017 -4.587969 35,000 211 408 0
2022-06-29 19:33:26 GMT 44.253536 -4.570781 35,000 212 407 0
2022-06-29 19:33:18 GMT 44.266617 -4.559784 35,000 212 407 0
2022-06-29 19:33:08 GMT 44.282227 -4.546574 35,000 212 406 0
2022-06-29 19:33:00 GMT 44.296734 -4.534339 35,000 212 407 0
2022-06-29 19:32:47 GMT 44.316147 -4.517792 35,000 212 407 0
2022-06-29 19:32:39 GMT 44.329136 -4.506739 35,000 212 406 0
2022-06-29 19:32:27 GMT 44.349060 -4.489791 35,000 212 406 0
2022-06-29 19:32:18 GMT 44.362419 -4.478536 35,000 212 407 0
2022-06-29 19:32:14 GMT 44.369202 -4.472874 35,000 212 407 0
2022-06-29 19:32:08 GMT 44.378860 -4.464765 35,000 212 406 0
2022-06-29 19:32:01 GMT 44.389526 -4.455872 35,000 212 406 0
2022-06-29 19:31:58 GMT 44.395287 -4.450937 35,000 212 406 0
2022-06-29 19:31:48 GMT 44.412231 -4.436333 35,000 212 406 0
2022-06-29 19:31:44 GMT 44.417953 -4.431349 35,000 212 406 0
2022-06-29 19:31:38 GMT 44.427063 -4.423501 35,000 212 406 0
2022-06-29 19:31:33 GMT 44.434982 -4.416504 35,000 213 405 0
2022-06-29 19:31:27 GMT 44.444229 -4.408460 35,000 212 406 0
2022-06-29 19:31:17 GMT 44.460178 -4.394598 35,000 212 406 0
2022-06-29 19:31:12 GMT 44.469116 -4.386827 35,000 212 406 0
2022-06-29 19:31:04 GMT 44.480759 -4.376678 35,000 212 407 0
2022-06-29 19:31:00 GMT 44.486809 -4.371420 35,000 212 406 0
2022-06-29 19:30:56 GMT 44.493393 -4.365758 35,000 212 406 0
2022-06-29 19:30:48 GMT 44.506035 -4.354806 35,000 212 407 0
2022-06-29 19:30:40 GMT 44.519302 -4.343284 35,000 212 407 0
2022-06-29 19:30:30 GMT 44.536240 -4.328482 35,000 212 407 0
2022-06-29 19:30:17 GMT 44.555893 -4.311330 35,000 212 407 0
2022-06-29 19:30:08 GMT 44.569950 -4.299071 35,000 212 407 0
2022-06-29 19:29:57 GMT 44.588432 -4.282859 35,000 213 407 0
2022-06-29 19:29:47 GMT 44.604080 -4.269104 35,000 213 408 0
2022-06-29 19:29:36 GMT 44.621902 -4.253384 35,000 213 407 0
2022-06-29 19:29:24 GMT 44.641361 -4.236234 35,000 213 408 0
2022-06-29 19:29:15 GMT 44.654629 -4.224578 35,000 212 407 0
2022-06-29 19:29:03 GMT 44.673660 -4.207960 35,000 212 407 0
2022-06-29 19:28:54 GMT 44.688564 -4.194902 35,000 212 407 0
2022-06-29 19:28:43 GMT 44.705837 -4.179762 35,000 213 408 0
2022-06-29 19:28:23 GMT 44.737518 -4.151917 35,000 213 408 0
2022-06-29 19:28:20 GMT 44.742508 -4.147600 35,000 213 408 0
2022-06-29 19:28:11 GMT 44.757385 -4.134521 35,000 213 409 0
2022-06-29 19:28:00 GMT 44.775146 -4.118892 35,000 213 408 0
2022-06-29 19:27:54 GMT 44.785080 -4.110129 35,000 213 408 0
2022-06-29 19:27:49 GMT 44.792564 -4.103528 35,000 213 408 0
2022-06-29 19:27:39 GMT 44.809204 -4.088876 35,000 213 408 0
2022-06-29 19:27:27 GMT 44.827896 -4.072377 35,000 213 408 0
2022-06-29 19:27:18 GMT 44.842896 -4.059056 35,000 213 408 0
2022-06-29 19:27:06 GMT 44.861526 -4.042511 35,000 213 407 0
2022-06-29 19:26:57 GMT 44.875893 -4.029772 35,000 213 407 0
2022-06-29 19:26:44 GMT 44.897095 -4.010991 35,000 213 407 0
2022-06-29 19:26:36 GMT 44.909500 -4.000028 35,000 213 407 0
2022-06-29 19:26:25 GMT 44.926540 -3.984956 35,000 213 407 0
2022-06-29 19:26:15 GMT 44.943298 -3.970151 35,000 213 406 0
2022-06-29 19:26:03 GMT 44.961735 -3.953872 35,000 213 406 0
2022-06-29 19:25:38 GMT 45.001602 -3.918457 35,000 213 405 0
2022-06-29 19:25:32 GMT 45.011593 -3.909592 35,000 213 405 0
2022-06-29 19:25:20 GMT 45.029655 -3.893514 35,000 213 405 0
2022-06-29 19:25:10 GMT 45.046227 -3.878643 35,000 213 405 0
2022-06-29 19:25:00 GMT 45.061588 -3.864910 35,000 213 405 0
2022-06-29 19:24:49 GMT 45.078644 -3.849662 35,000 213 404 0
2022-06-29 19:24:39 GMT 45.094734 -3.835233 35,000 213 403 0
2022-06-29 19:24:26 GMT 45.115635 -3.816476 35,000 213 403 0
2022-06-29 19:24:20 GMT 45.125088 -3.808036 35,000 213 402 64
2022-06-29 19:24:17 GMT 45.128998 -3.804485 35,000 213 402 0
2022-06-29 19:24:12 GMT 45.136871 -3.797477 35,000 213 401 0
2022-06-29 19:24:03 GMT 45.151295 -3.784455 35,000 213 401 0
2022-06-29 19:23:55 GMT 45.163631 -3.773335 35,000 213 401 0
2022-06-29 19:23:46 GMT 45.178204 -3.760272 35,000 213 400 64
2022-06-29 19:23:35 GMT 45.194633 -3.745601 35,000 213 400 0
2022-06-29 19:23:24 GMT 45.213024 -3.729055 35,000 213 399 -64
2022-06-29 19:23:19 GMT 45.220798 -3.722021 35,000 213 398 0
2022-06-29 19:23:13 GMT 45.228897 -3.714652 35,000 213 398 0
2022-06-29 19:23:03 GMT 45.245361 -3.699777 35,000 213 399 0
2022-06-29 19:23:00 GMT 45.249519 -3.696029 35,000 213 398 0
2022-06-29 19:22:50 GMT 45.265411 -3.681793 35,000 213 398 0
2022-06-29 19:22:42 GMT 45.277405 -3.671068 35,000 213 398 0
2022-06-29 19:22:32 GMT 45.293884 -3.656304 35,000 213 397 0
2022-06-29 19:22:25 GMT 45.303474 -3.647662 35,000 213 398 0
2022-06-29 19:22:21 GMT 45.310638 -3.641183 35,000 213 398 64
2022-06-29 19:22:18 GMT 45.314209 -3.637979 35,000 213 398 64
2022-06-29 19:22:10 GMT 45.327988 -3.625488 35,000 213 397 0
2022-06-29 19:22:04 GMT 45.336639 -3.617641 35,000 213 397 0
2022-06-29 19:21:58 GMT 45.346252 -3.608943 35,000 213 397 0
2022-06-29 19:21:54 GMT 45.352448 -3.603382 35,000 213 397 0
2022-06-29 19:21:49 GMT 45.359570 -3.596951 35,000 213 396 0
2022-06-29 19:21:38 GMT 45.376793 -3.581476 35,000 213 396 0
2022-06-29 19:21:27 GMT 45.393646 -3.566269 35,000 213 396 0
2022-06-29 19:21:17 GMT 45.409149 -3.552268 35,000 213 396 0
2022-06-29 19:21:06 GMT 45.425858 -3.537140 35,000 213 396 0
2022-06-29 19:20:58 GMT 45.438263 -3.525957 35,000 213 397 -64
2022-06-29 19:20:55 GMT 45.443665 -3.521053 35,000 213 397 0
2022-06-29 19:20:49 GMT 45.453606 -3.512142 35,000 213 397 0
2022-06-29 19:20:45 GMT 45.458725 -3.507519 35,000 213 397 0
2022-06-29 19:20:39 GMT 45.469570 -3.497739 35,000 213 397 0
2022-06-29 19:20:34 GMT 45.475624 -3.492313 35,000 213 396 0
2022-06-29 19:20:27 GMT 45.486328 -3.482601 35,000 213 397 0
2022-06-29 19:20:24 GMT 45.491264 -3.478111 35,000 213 397 0
2022-06-29 19:20:18 GMT 45.500854 -3.469402 35,000 213 398 0
2022-06-29 19:20:14 GMT 45.507698 -3.463239 35,000 213 398 0
2022-06-29 19:20:07 GMT 45.517567 -3.454128 35,000 213 398 0
2022-06-29 19:20:03 GMT 45.523899 -3.448367 35,000 213 398 0
2022-06-29 19:19:56 GMT 45.534256 -3.438917 35,000 213 398 0
2022-06-29 19:19:52 GMT 45.541718 -3.432116 35,000 213 398 0
2022-06-29 19:19:46 GMT 45.549736 -3.424782 35,000 213 397 0
2022-06-29 19:19:42 GMT 45.556870 -3.418289 35,000 213 397 0
2022-06-29 19:19:35 GMT 45.567379 -3.408714 35,000 213 397 0
2022-06-29 19:19:31 GMT 45.572826 -3.403770 35,000 213 398 0
2022-06-29 19:19:28 GMT 45.579762 -3.397453 35,000 213 397 0
2022-06-29 19:19:20 GMT 45.589817 -3.388252 35,000 213 397 0
2022-06-29 19:19:17 GMT 45.594749 -3.383720 35,000 213 397 0
2022-06-29 19:19:09 GMT 45.606995 -3.372597 35,000 213 397 0
2022-06-29 19:19:06 GMT 45.611511 -3.368546 35,000 213 398 0
2022-06-29 19:18:59 GMT 45.622963 -3.358109 35,000 213 398 0
2022-06-29 19:18:56 GMT 45.627640 -3.353912 35,000 213 398 0
2022-06-29 19:18:49 GMT 45.638325 -3.344170 35,000 213 397 0
2022-06-29 19:18:45 GMT 45.644211 -3.338839 35,000 213 397 0
2022-06-29 19:18:36 GMT 45.658585 -3.325709 35,000 213 397 0
2022-06-29 19:18:27 GMT 45.673470 -3.312172 35,000 213 397 64
2022-06-29 19:18:17 GMT 45.689575 -3.297506 35,000 213 398 -64
2022-06-29 19:18:11 GMT 45.697445 -3.290268 35,000 213 398 -64
2022-06-29 19:18:05 GMT 45.707199 -3.281362 35,000 213 398 0
2022-06-29 19:17:56 GMT 45.720703 -3.268902 35,000 214 399 0
2022-06-29 19:17:45 GMT 45.737869 -3.252958 35,000 214 399 0
2022-06-29 19:17:35 GMT 45.753204 -3.238756 34,975 213 399 704
2022-06-29 19:17:30 GMT 45.761127 -3.231422 34,875 213 401 1728
2022-06-29 19:17:24 GMT 45.769684 -3.223549 34,725 213 402 1792
2022-06-29 19:17:21 GMT 45.774216 -3.219329 34,650 213 404 1664
2022-06-29 19:17:14 GMT 45.786575 -3.207874 34,425 213 406 1664
2022-06-29 19:17:11 GMT 45.791294 -3.203476 34,350 214 406 1728
2022-06-29 19:17:03 GMT 45.803467 -3.192198 34,100 213 409 1792
2022-06-29 19:17:00 GMT 45.807587 -3.188370 34,025 214 410 1728
2022-06-29 19:16:55 GMT 45.815735 -3.180817 33,900 213 412 1536
2022-06-29 19:16:52 GMT 45.820175 -3.176657 33,825 214 412 1472
2022-06-29 19:16:45 GMT 45.831711 -3.165938 33,650 213 413 1408
2022-06-29 19:16:42 GMT 45.837341 -3.160780 33,575 213 414 1344
2022-06-29 19:16:35 GMT 45.848553 -3.150330 33,425 213 415 1088
2022-06-29 19:16:30 GMT 45.855972 -3.143497 33,350 213 415 1088
2022-06-29 19:16:24 GMT 45.865997 -3.134252 33,225 213 415 1088
2022-06-29 19:16:20 GMT 45.882614 -3.118978 33,025 213 416 960
2022-06-29 19:16:14 GMT 45.882614 -3.118978 33,050 213 415 960
2022-06-29 19:16:10 GMT 45.888123 -3.113869 33,000 213 415 896
2022-06-29 19:16:05 GMT 45.904907 -3.098479 32,850 213 414 960
2022-06-29 19:16:00 GMT 45.904907 -3.098479 32,850 213 414 896
2022-06-29 19:15:52 GMT 45.917770 -3.086622 32,725 213 413 704
2022-06-29 19:15:49 GMT 45.921799 -3.082871 32,700 213 413 704
2022-06-29 19:15:38 GMT 45.939560 -3.066458 32,575 213 410 768
2022-06-29 19:15:27 GMT 45.956554 -3.050697 32,425 213 408 832
2022-06-29 19:15:20 GMT 45.968765 -3.039327 32,325 213 407 896
2022-06-29 19:15:17 GMT 45.972702 -3.035643 32,275 213 407 960
2022-06-29 19:15:10 GMT 45.984531 -3.024673 32,150 213 407 1280
2022-06-29 19:15:07 GMT 45.989273 -3.020302 32,075 213 407 1472
2022-06-29 19:15:00 GMT 46.000175 -3.010185 31,900 213 407 1536
2022-06-29 19:14:56 GMT 46.006485 -3.004292 29,875 213 408 1664
2022-06-29 19:14:49 GMT 46.017586 -2.993980 31,600 213 409 1536
2022-06-29 19:14:45 GMT 46.024292 -2.987745 31,500 213 410 1472
2022-06-29 19:14:40 GMT 46.032257 -2.980376 31,200 213 411 1728
2022-06-29 19:14:35 GMT 46.040398 -2.972832 31,225 213 412 1408
2022-06-29 19:14:30 GMT 46.047890 -2.965828 31,075 214 412 1280
2022-06-29 19:14:24 GMT 46.056702 -2.957600 30,975 213 413 1536
2022-06-29 19:14:20 GMT 46.064209 -2.950633 30,875 213 413 1344
2022-06-29 19:14:13 GMT 46.075104 -2.940451 30,700 213 413 1536
2022-06-29 19:14:08 GMT 46.082977 -2.933149 30,575 214 414 1536
2022-06-29 19:14:03 GMT 46.097260 -2.919818 30,075 214 412 1280
2022-06-29 19:13:59 GMT 46.097260 -2.919818 30,375 214 414 1280
2022-06-29 19:13:53 GMT 46.107712 -2.910004 30,075 214 412 1280
2022-06-29 19:13:48 GMT 46.114273 -2.903893 28,600 213 416 2048
2022-06-29 19:13:42 GMT 46.124561 -2.894348 29,975 214 412 1280
2022-06-29 19:13:39 GMT 46.129669 -2.889538 29,975 214 412 1280
2022-06-29 19:13:31 GMT 46.142811 -2.877251 29,800 214 412 1280
2022-06-29 19:13:28 GMT 46.146790 -2.873528 29,750 214 412 1408
2022-06-29 19:13:18 GMT 46.162582 -2.858656 29,500 214 412 1472
2022-06-29 19:13:09 GMT 46.177460 -2.844655 28,325 214 413 1792
2022-06-29 19:12:59 GMT 46.204193 -2.819534 28,700 213 415 1984
2022-06-29 19:12:52 GMT 46.204193 -2.819534 28,750 214 414 1920
2022-06-29 19:12:48 GMT 46.211151 -2.813049 28,600 213 416 2048
2022-06-29 19:12:45 GMT 46.216003 -2.808548 28,500 213 418 2112
2022-06-29 19:12:39 GMT 46.227356 -2.797963 28,250 213 421 1984
2022-06-29 19:12:35 GMT 46.233032 -2.792671 28,100 213 420 2112
2022-06-29 19:12:28 GMT 46.243690 -2.782768 27,875 213 424 2496
2022-06-29 19:12:24 GMT 46.249557 -2.777330 27,750 213 422 2496
2022-06-29 19:12:17 GMT 46.261101 -2.766563 27,425 213 426 2304
2022-06-29 19:12:09 GMT 46.275299 -2.753311 27,250 213 426 2368
2022-06-29 19:12:06 GMT 46.279068 -2.749741 26,950 214 428 1472
2022-06-29 19:11:59 GMT 46.291534 -2.738074 26,900 214 428 1344
2022-06-29 19:11:53 GMT 46.302299 -2.727974 26,775 214 427 1152
2022-06-29 19:11:48 GMT 46.309563 -2.721107 26,550 214 427 1280
2022-06-29 19:11:44 GMT 46.316208 -2.714963 26,625 214 426 1216
2022-06-29 19:11:38 GMT 46.332504 -2.699622 26,475 214 424 1152
2022-06-29 19:11:34 GMT 46.332504 -2.699622 26,225 214 424 1216
2022-06-29 19:11:27 GMT 46.343822 -2.688904 26,275 214 421 1088
2022-06-29 19:11:24 GMT 46.348755 -2.684282 26,075 214 419 1216
2022-06-29 19:11:19 GMT 46.358208 -2.675377 26,025 214 419 1216
2022-06-29 19:11:13 GMT 46.367004 -2.667068 26,000 214 419 1152
2022-06-29 19:11:09 GMT 46.375443 -2.659160 25,900 214 418 1152
2022-06-29 19:11:03 GMT 46.384186 -2.650854 25,700 214 416 1152
2022-06-29 19:10:58 GMT 46.391258 -2.644135 25,525 214 411 1280
2022-06-29 19:10:51 GMT 46.402542 -2.633503 25,575 214 414 1216
2022-06-29 19:10:48 GMT 46.408127 -2.628211 25,525 214 411 1280
2022-06-29 19:10:42 GMT 46.417236 -2.619569 25,425 214 411 1152
2022-06-29 19:10:33 GMT 46.431747 -2.605836 25,225 214 410 1216
2022-06-29 19:10:30 GMT 46.435684 -2.602085 25,175 214 409 1152
2022-06-29 19:10:27 GMT 46.440308 -2.597731 25,125 214 404 1280
2022-06-29 19:10:20 GMT 46.452576 -2.586074 25,025 214 406 960
2022-06-29 19:10:14 GMT 46.461502 -2.577634 24,675 214 404 1344
2022-06-29 19:10:08 GMT 46.470261 -2.569290 24,750 214 403 1280
2022-06-29 19:10:03 GMT 46.484390 -2.555862 24,675 214 400 1152
2022-06-29 19:09:59 GMT 46.484390 -2.555862 24,500 214 399 1344
2022-06-29 19:09:52 GMT 46.495514 -2.545278 24,400 214 397 1216
2022-06-29 19:09:49 GMT 46.500595 -2.540454 24,350 214 397 1216
2022-06-29 19:09:45 GMT 46.507050 -2.534358 24,250 214 395 1280
2022-06-29 19:09:38 GMT 46.517761 -2.524176 24,100 214 394 1472
2022-06-29 19:09:27 GMT 46.533291 -2.509415 23,825 214 393 1600
2022-06-29 19:09:17 GMT 46.548798 -2.494700 23,550 214 391 1792
2022-06-29 19:09:12 GMT 46.564041 -2.480164 23,325 214 390 1664
2022-06-29 19:09:07 GMT 46.564041 -2.480164 23,250 214 390 1728
2022-06-29 19:09:02 GMT 46.571419 -2.473091 23,100 214 389 1792
2022-06-29 19:08:56 GMT 46.580612 -2.464354 22,925 214 389 1856
2022-06-29 19:08:52 GMT 46.586037 -2.459152 22,825 214 389 1920
2022-06-29 19:08:46 GMT 46.597595 -2.448142 22,575 214 389 1920
2022-06-29 19:08:43 GMT 46.601624 -2.444257 22,500 214 387 1728
2022-06-29 19:08:39 GMT 46.606750 -2.439445 22,400 214 387 1792
2022-06-29 19:08:34 GMT 46.613892 -2.432601 22,250 214 386 1984
2022-06-29 19:08:31 GMT 46.618111 -2.428596 22,150 214 386 2048
2022-06-29 19:08:24 GMT 46.628082 -2.419002 20,575 214 386 1792
2022-06-29 19:08:19 GMT 46.635708 -2.411774 21,775 214 385 2112
2022-06-29 19:08:12 GMT 46.647018 -2.400993 21,525 214 384 1856
2022-06-29 19:08:09 GMT 46.651302 -2.396873 21,425 214 384 1792
2022-06-29 19:08:03 GMT 46.659309 -2.389252 21,250 214 382 1984
2022-06-29 19:07:59 GMT 46.666397 -2.382492 21,100 214 382 2112
2022-06-29 19:07:50 GMT 46.679279 -2.370232 20,800 214 381 2048
2022-06-29 19:07:43 GMT 46.688553 -2.361324 20,525 214 380 2176
2022-06-29 19:07:40 GMT 46.693680 -2.356433 20,450 214 380 2240
2022-06-29 19:07:31 GMT 46.707489 -2.343246 20,000 214 379 2112
2022-06-29 19:07:28 GMT 46.711445 -2.339470 20,000 214 379 2112
2022-06-29 19:07:19 GMT 46.724213 -2.327226 19,675 214 379 2176
2022-06-29 19:07:14 GMT 46.732407 -2.319388 19,500 214 376 1984
2022-06-29 19:07:10 GMT 46.738815 -2.313292 19,350 214 376 1984
2022-06-29 19:07:04 GMT 46.747009 -2.305454 19,150 214 376 2112
2022-06-29 19:06:58 GMT 46.755390 -2.297379 19,025 214 375 1984
2022-06-29 19:06:53 GMT 46.761768 -2.291267 18,825 214 373 1792
2022-06-29 19:06:48 GMT 46.769119 -2.284218 18,650 214 372 2176
2022-06-29 19:06:38 GMT 46.783321 -2.270599 18,275 214 370 2240
2022-06-29 19:06:31 GMT 46.793751 -2.260506 17,600 214 366 2368
2022-06-29 19:06:27 GMT 46.799423 -2.255011 17,850 214 369 2048
2022-06-29 19:06:18 GMT 46.812973 -2.242015 17,475 214 366 2368
2022-06-29 19:06:14 GMT 46.818329 -2.236816 17,375 214 366 2368
2022-06-29 19:06:06 GMT 46.828804 -2.226723 17,075 214 366 2304
2022-06-29 19:05:56 GMT 46.843002 -2.212921 16,650 214 364 2688
2022-06-29 19:05:51 GMT 46.857651 -2.198739 16,300 214 355 2496
2022-06-29 19:05:46 GMT 46.857651 -2.198739 16,225 214 363 2240
2022-06-29 19:05:38 GMT 46.869827 -2.186966 15,900 214 361 2432
2022-06-29 19:05:35 GMT 46.872894 -2.184013 15,800 214 361 2432
2022-06-29 19:05:25 GMT 46.887222 -2.170143 15,400 214 360 1984
2022-06-29 19:05:17 GMT 46.898438 -2.159294 15,150 214 355 2304
2022-06-29 19:05:14 GMT 46.906406 -2.151630 14,900 214 355 2432
2022-06-29 19:05:06 GMT 46.912308 -2.146042 14,750 214 353 2048
2022-06-29 19:05:03 GMT 46.916519 -2.141991 14,125 218 344 2496
2022-06-29 19:04:57 GMT 46.925812 -2.133202 14,425 213 348 2048
2022-06-29 19:04:53 GMT 46.930939 -2.128390 12,725 239 340 3648
2022-06-29 19:04:47 GMT 46.939682 -2.120155 14,000 216 346 2816
2022-06-29 19:04:42 GMT 46.944763 -2.114799 13,725 223 342 2688
2022-06-29 19:04:36 GMT 46.952957 -2.104868 13,550 223 342 2688
2022-06-29 19:04:31 GMT 46.958176 -2.097496 13,325 227 342 2944
2022-06-29 19:04:26 GMT 46.963619 -2.088740 13,100 232 340 2304
2022-06-29 19:04:20 GMT 46.969391 -2.077895 11,725 234 340 2496
2022-06-29 19:04:15 GMT 46.973740 -2.068314 12,575 240 340 3712
2022-06-29 19:04:10 GMT 46.977913 -2.057683 12,250 241 341 3648
2022-06-29 19:04:05 GMT 46.981705 -2.047783 11,950 241 343 3520
2022-06-29 19:04:02 GMT 46.983589 -2.042682 11,725 241 341 2048
2022-06-29 19:03:59 GMT 46.986153 -2.035992 11,625 241 344 2944
2022-06-29 19:03:56 GMT 46.989075 -2.028282 11,475 241 341 1920
2022-06-29 19:03:53 GMT 46.991413 -2.022189 11,400 241 338 1088
2022-06-29 19:03:49 GMT 46.993786 -2.015991 11,350 241 335 896
2022-06-29 19:03:45 GMT 46.996857 -2.007889 11,300 241 331 960
2022-06-29 19:03:42 GMT 46.999187 -2.001836 11,075 241 325 1024
2022-06-29 19:03:35 GMT 47.004410 -1.988251 11,125 241 318 832
2022-06-29 19:03:32 GMT 47.006310 -1.983314 11,100 241 312 896
2022-06-29 19:03:28 GMT 47.009216 -1.975754 11,025 241 309 1024
2022-06-29 19:03:25 GMT 47.011520 -1.969722 10,975 241 306 1024
2022-06-29 19:03:17 GMT 47.017181 -1.955086 10,850 241 292 960
2022-06-29 19:03:14 GMT 47.018784 -1.950918 10,800 241 291 1024
2022-06-29 19:03:05 GMT 47.025192 -1.934349 10,625 241 278 832
2022-06-29 19:02:57 GMT 47.030048 -1.921833 10,525 241 266 1216
2022-06-29 19:02:52 GMT 47.032936 -1.914297 10,275 241 261 2432
2022-06-29 19:02:44 GMT 47.037643 -1.902145 10,025 241 259 2880
2022-06-29 19:02:41 GMT 47.039337 -1.897682 9,900 241 259 2688
2022-06-29 19:02:35 GMT 47.042759 -1.888662 9,650 242 255 2432
2022-06-29 19:02:32 GMT 47.045059 -1.882645 9,475 242 255 3264
2022-06-29 19:02:24 GMT 47.049042 -1.871901 9,050 242 255 2944
2022-06-29 19:02:21 GMT 47.050735 -1.867332 3,500 253 240 3008
2022-06-29 19:02:13 GMT 47.055237 -1.855281 8,625 242 253 2944
2022-06-29 19:02:03 GMT 47.061100 -1.839858 8,075 241 254 3200
2022-06-29 19:02:00 GMT 47.062775 -1.835562 7,900 241 254 3328
2022-06-29 19:01:53 GMT 47.066986 -1.824898 7,525 241 254 2880
2022-06-29 19:01:47 GMT 47.070457 -1.816054 7,225 241 255 3712
2022-06-29 19:01:41 GMT 47.073807 -1.807182 2,000 261 216 2240
2022-06-29 19:01:32 GMT 47.079071 -1.793243 6,350 242 253 3328
2022-06-29 19:01:23 GMT 47.084377 -1.778729 6,350 242 253 3328
2022-06-29 19:01:21 GMT 47.084984 -1.777039 5,850 243 251 3072
2022-06-29 19:01:10 GMT 47.090847 -1.761122 5,150 240 249 3776
2022-06-29 19:01:00 GMT 47.096573 -1.746333 4,600 242 245 3392
2022-06-29 19:00:50 GMT 47.102509 -1.730965 4,025 241 243 3008
2022-06-29 19:00:41 GMT 47.107185 -1.718022 3,550 250 240 3072
2022-06-29 19:00:32 GMT 47.110107 -1.702950 3,025 264 238 3712
2022-06-29 19:00:21 GMT 47.110352 -1.685979 2,525 281 235 1792
2022-06-29 19:00:10 GMT 47.108276 -1.669579 2,225 274 222 1984
2022-06-29 19:00:00 GMT 47.108864 -1.654851 1,875 249 210 1600
2022-06-29 18:59:49 GMT 47.114273 -1.642250 1,650 221 195 1152
2022-06-29 18:59:41 GMT 47.121155 -1.635695 1,450 209 182 1152
We lost coverage of the aircraft here for a total of 130 minutes
2022-06-29 16:49:25 GMT 47.167099 -1.600159 175 208 148 -640
2022-06-29 16:49:20 GMT 47.169754 -1.598159 225 208 148 -768
2022-06-29 16:49:13 GMT 47.174652 -1.594460 275 208 150 -704
2022-06-29 16:49:10 GMT 47.175888 -1.593498 325 207 150 -768
2022-06-29 16:49:05 GMT 47.178864 -1.591301 400 208 150 -768
2022-06-29 16:48:59 GMT 47.182800 -1.588211 475 208 150 -896
2022-06-29 16:48:49 GMT 47.188751 -1.583679 625 208 151 -768
2022-06-29 16:48:38 GMT 47.195080 -1.578369 750 213 152 -832
2022-06-29 16:48:29 GMT 47.200974 -1.572350 900 218 151 -704
2022-06-29 16:48:18 GMT 47.206375 -1.565758 1,025 226 150 -704
2022-06-29 16:48:07 GMT 47.211323 -1.557523 1,175 232 151 -896
2022-06-29 16:47:58 GMT 47.215607 -1.549777 1,325 230 151 -1088
2022-06-29 16:47:47 GMT 47.220634 -1.541396 1,500 228 150 -576
2022-06-29 16:47:37 GMT 47.225708 -1.533367 1,650 225 151 -1216
2022-06-29 16:47:25 GMT 47.231434 -1.525832 1,825 220 151 -896
2022-06-29 16:47:16 GMT 47.236130 -1.520096 1,950 221 150 -768
2022-06-29 16:47:06 GMT 47.241817 -1.513015 2,100 220 152 -896
2022-06-29 16:45:57 GMT 47.282597 -1.462942 3,000 223 194 0
2022-06-29 16:45:48 GMT 47.288879 -1.454984 2,975 223 194 0
2022-06-29 16:45:45 GMT 47.290092 -1.453435 2,975 223 198 -64
2022-06-29 16:45:35 GMT 47.297215 -1.443575 3,000 224 203 0
2022-06-29 16:45:02 GMT 47.323887 -1.418574 2,975 155 218 -192
2022-06-29 16:44:41 GMT 47.340958 -1.432137 3,050 130 225 -448
2022-06-29 16:44:28 GMT 47.349632 -1.447237 3,150 130 225 -448
2022-06-29 16:44:22 GMT 47.353638 -1.454109 3,200 130 224 -448
2022-06-29 16:44:14 GMT 47.359875 -1.464844 3,275 130 224 -512
2022-06-29 16:44:01 GMT 47.367741 -1.478436 3,375 130 224 -576
2022-06-29 16:43:51 GMT 47.374329 -1.489746 3,475 129 225 -512
2022-06-29 16:43:41 GMT 47.381332 -1.502521 3,975 127 228 -640
2022-06-29 16:43:35 GMT 47.385105 -1.509775 3,650 127 237 -512
2022-06-29 16:43:32 GMT 47.387283 -1.514053 3,675 127 234 -576
2022-06-29 16:43:23 GMT 47.393417 -1.525932 3,750 127 238 -512
2022-06-29 16:43:12 GMT 47.400513 -1.539597 3,825 127 244 -384
2022-06-29 16:43:01 GMT 47.407913 -1.554072 3,925 127 250 -512
2022-06-29 16:42:51 GMT 47.414841 -1.567543 3,975 127 257 -448
2022-06-29 16:42:42 GMT 47.422119 -1.581757 4,050 127 262 -448
2022-06-29 16:42:31 GMT 47.429840 -1.596680 4,175 127 267 -1088
2022-06-29 16:42:21 GMT 47.437225 -1.610802 4,375 127 268 -1280
2022-06-29 16:42:09 GMT 47.446198 -1.628105 4,625 127 269 -1216
2022-06-29 16:41:59 GMT 47.454002 -1.643160 4,850 127 271 -1280
2022-06-29 16:41:51 GMT 47.460434 -1.655708 5,025 127 272 -1280
2022-06-29 16:41:44 GMT 47.465469 -1.665527 5,175 126 272 -1408
2022-06-29 16:41:40 GMT 47.468479 -1.671471 5,250 126 272 -1408
2022-06-29 16:41:34 GMT 47.473507 -1.681260 5,425 126 272 -1408
2022-06-29 16:41:29 GMT 47.476299 -1.686753 5,500 126 274 -1216
2022-06-29 16:41:20 GMT 47.484306 -1.702458 5,700 126 276 -1152
2022-06-29 16:41:12 GMT 47.489845 -1.713374 5,850 126 278 -1344
2022-06-29 16:41:09 GMT 47.492081 -1.717741 5,900 126 278 -1344
2022-06-29 16:41:04 GMT 47.495728 -1.724922 6,000 127 283 -896
2022-06-29 16:40:59 GMT 47.500122 -1.733574 6,100 127 280 -832
2022-06-29 16:40:51 GMT 47.505981 -1.745041 6,200 127 283 -1024
2022-06-29 16:40:48 GMT 47.508701 -1.750277 6,275 127 283 -1280
2022-06-29 16:40:41 GMT 47.514450 -1.761520 6,450 126 284 -1344
2022-06-29 16:40:36 GMT 47.517731 -1.767883 6,525 126 284 -1408
2022-06-29 16:40:31 GMT 47.521454 -1.775208 6,675 126 285 -1344
2022-06-29 16:40:28 GMT 47.524853 -1.781827 6,750 127 285 -1280
2022-06-29 16:40:20 GMT 47.530518 -1.792900 6,900 126 286 -1408
2022-06-29 16:40:14 GMT 47.534958 -1.801689 7,025 126 285 -1408
2022-06-29 16:40:10 GMT 47.538120 -1.807955 7,200 126 288 -1088
2022-06-29 16:40:07 GMT 47.541733 -1.815147 7,200 126 288 -1088
2022-06-29 16:40:01 GMT 47.545803 -1.823237 7,375 126 289 -1216
2022-06-29 16:39:56 GMT 47.550224 -1.832181 7,375 126 290 -1344
2022-06-29 16:39:51 GMT 47.553810 -1.839294 7,525 126 290 -1472
2022-06-29 16:39:45 GMT 47.558277 -1.848238 7,750 127 289 -1408
2022-06-29 16:39:40 GMT 47.562607 -1.856758 7,775 127 289 -1408
2022-06-29 16:39:37 GMT 47.564301 -1.860054 7,925 127 289 -1344
2022-06-29 16:39:34 GMT 47.566936 -1.865140 7,925 127 290 -1472
2022-06-29 16:39:30 GMT 47.570206 -1.871384 8,300 127 291 -1536
2022-06-29 16:39:27 GMT 47.573044 -1.876945 8,300 127 292 -1472
2022-06-29 16:39:24 GMT 47.575104 -1.880928 8,300 127 293 -1856
2022-06-29 16:39:20 GMT 47.583755 -1.897614 8,400 127 293 -1920
2022-06-29 16:39:15 GMT 47.583755 -1.897614 8,475 127 294 -1728
2022-06-29 16:39:11 GMT 47.586502 -1.902832 8,575 127 295 -1536
2022-06-29 16:39:10 GMT 47.587143 -1.904137 8,600 127 295 -1536
2022-06-29 16:39:06 GMT 47.590305 -1.910213 8,700 127 297 -1600
2022-06-29 16:39:04 GMT 47.591904 -1.913269 8,750 127 297 -1600
2022-06-29 16:39:02 GMT 47.594376 -1.917870 8,925 127 298 -1536
2022-06-29 16:38:58 GMT 47.597057 -1.923030 8,925 127 300 -1600
2022-06-29 16:38:54 GMT 47.599525 -1.927748 9,000 127 302 -1536
2022-06-29 16:38:52 GMT 47.601807 -1.932185 9,075 126 302 -1472
2022-06-29 16:38:50 GMT 47.604126 -1.936821 9,175 127 305 -1536
2022-06-29 16:38:46 GMT 47.607101 -1.942657 9,275 127 307 -1536
2022-06-29 16:38:43 GMT 47.609066 -1.946482 9,275 126 307 -1536
2022-06-29 16:38:42 GMT 47.610580 -1.949455 9,300 126 307 -1536
2022-06-29 16:38:40 GMT 47.612320 -1.952820 9,400 126 311 -1536
2022-06-29 16:38:37 GMT 47.614700 -1.957609 9,700 126 311 -1536
2022-06-29 16:38:34 GMT 47.617725 -1.963595 9,700 126 315 -1728
2022-06-29 16:38:31 GMT 47.620834 -1.969780 9,700 126 315 -1728
2022-06-29 16:38:27 GMT 47.623352 -1.974792 9,700 126 316 -1728
2022-06-29 16:38:24 GMT 47.631271 -1.990497 9,850 126 319 -1728
2022-06-29 16:38:20 GMT 47.633560 -1.995049 10,125 126 323 -1664
2022-06-29 16:38:16 GMT 47.633560 -1.995049 10,125 126 323 -1664
2022-06-29 16:38:13 GMT 47.636253 -2.000357 10,125 126 325 -1600
2022-06-29 16:38:12 GMT 47.638321 -2.004524 10,200 126 327 -1792
2022-06-29 16:38:08 GMT 47.640564 -2.008987 10,375 126 328 -1792
2022-06-29 16:38:05 GMT 47.643608 -2.015076 10,375 126 330 -1920
2022-06-29 16:38:04 GMT 47.644539 -2.016907 10,400 126 331 -1984
2022-06-29 16:38:01 GMT 47.646633 -2.021062 10,475 126 332 -2048
2022-06-29 16:38:00 GMT 47.649334 -2.026344 10,575 126 334 -1984
2022-06-29 16:37:58 GMT 47.649334 -2.026344 10,575 126 334 -1984
2022-06-29 16:37:57 GMT 47.650177 -2.028008 10,600 127 335 -1920
2022-06-29 16:37:55 GMT 47.654083 -2.035710 10,725 127 337 -1664
2022-06-29 16:37:53 GMT 47.654083 -2.035710 10,725 127 338 -1216
2022-06-29 16:37:51 GMT 47.656082 -2.039584 10,775 127 339 -1088
2022-06-29 16:37:49 GMT 47.660797 -2.048813 10,875 127 342 -1280
2022-06-29 16:37:46 GMT 47.660797 -2.048813 10,875 126 342 -1280
2022-06-29 16:37:44 GMT 47.662880 -2.052964 10,900 126 343 -1216
2022-06-29 16:37:43 GMT 47.663727 -2.054649 10,950 127 344 -1152
2022-06-29 16:37:41 GMT 47.665466 -2.058014 10,975 127 345 -1024
2022-06-29 16:37:40 GMT 47.666420 -2.059937 11,000 127 347 -960
2022-06-29 16:37:39 GMT 47.668259 -2.063507 11,025 126 347 -960
2022-06-29 16:37:37 GMT 47.671234 -2.069412 11,075 126 349 -1280
2022-06-29 16:37:34 GMT 47.674667 -2.076073 11,150 126 351 -1664
2022-06-29 16:37:32 GMT 47.674667 -2.076073 11,175 126 351 -1664
2022-06-29 16:37:30 GMT 47.675995 -2.078751 11,200 126 351 -1664
2022-06-29 16:37:28 GMT 47.677963 -2.082613 11,275 126 352 -1664
2022-06-29 16:37:27 GMT 47.680481 -2.087677 11,325 126 354 -1664
2022-06-29 16:37:24 GMT 47.681854 -2.090355 11,375 126 354 -1664
2022-06-29 16:37:23 GMT 47.686752 -2.100105 11,500 126 355 -1664
2022-06-29 16:37:19 GMT 47.687531 -2.101685 11,525 126 356 -1536
2022-06-29 16:37:17 GMT 47.689510 -2.105572 11,575 126 357 -1664
2022-06-29 16:37:15 GMT 47.690369 -2.107384 11,600 126 357 -1984
2022-06-29 16:37:14 GMT 47.692955 -2.112474 11,700 126 357 -1984
2022-06-29 16:37:13 GMT 47.692955 -2.112474 11,700 126 357 -2048
2022-06-29 16:37:10 GMT 47.696213 -2.118953 11,825 126 357 -2368
2022-06-29 16:37:08 GMT 47.698074 -2.122615 11,900 126 357 -2112
2022-06-29 16:37:05 GMT 47.701172 -2.128738 12,000 126 357 -2112
2022-06-29 16:37:00 GMT 47.705616 -2.137545 12,150 126 358 -1920
2022-06-29 16:36:59 GMT 47.706894 -2.140068 12,200 126 359 -1856
2022-06-29 16:36:57 GMT 47.711994 -2.150151 12,325 126 360 -1792
2022-06-29 16:36:54 GMT 47.711994 -2.150151 12,350 126 360 -1792
2022-06-29 16:36:52 GMT 47.714184 -2.154518 12,400 126 362 -1920
2022-06-29 16:36:51 GMT 47.715206 -2.156489 12,450 126 362 -1920
2022-06-29 16:36:48 GMT 47.721313 -2.168633 12,625 126 363 -1984
2022-06-29 16:36:45 GMT 47.723305 -2.172617 12,700 126 363 -1856
2022-06-29 16:36:43 GMT 47.723305 -2.172617 12,700 126 364 -1856
2022-06-29 16:36:41 GMT 47.726257 -2.178383 12,800 126 364 -1984
2022-06-29 16:36:40 GMT 47.726257 -2.178383 12,800 126 364 -1984
2022-06-29 16:36:37 GMT 47.729496 -2.184800 12,900 126 365 -2240
2022-06-29 16:36:34 GMT 47.734222 -2.194176 13,075 126 365 -2304
2022-06-29 16:36:31 GMT 47.734222 -2.194176 13,075 126 365 -2368
2022-06-29 16:36:30 GMT 47.735737 -2.197195 13,150 126 366 -2176
2022-06-29 16:36:29 GMT 47.736855 -2.199378 13,175 126 367 -1856
2022-06-29 16:36:28 GMT 47.739899 -2.205437 13,250 126 367 -1856
2022-06-29 16:36:26 GMT 47.739899 -2.205437 13,275 126 367 -1792
2022-06-29 16:36:24 GMT 47.741913 -2.209488 13,325 126 368 -1536
2022-06-29 16:36:23 GMT 47.742920 -2.211479 13,350 126 368 -1536
2022-06-29 16:36:21 GMT 47.744347 -2.214309 13,400 126 369 -1600
2022-06-29 16:36:20 GMT 47.745850 -2.217384 13,425 126 369 -1728
2022-06-29 16:36:19 GMT 47.746902 -2.219444 13,475 126 371 -1856
2022-06-29 16:36:17 GMT 47.749329 -2.224309 13,575 126 371 -1984
2022-06-29 16:36:14 GMT 47.751888 -2.229450 13,775 126 372 -2176
2022-06-29 16:36:10 GMT 47.756378 -2.238396 13,775 126 372 -2176
2022-06-29 16:36:07 GMT 47.759663 -2.244943 14,000 126 371 -2432
2022-06-29 16:36:04 GMT 47.762741 -2.251099 14,000 126 371 -2496
2022-06-29 16:36:03 GMT 47.763760 -2.253183 14,050 126 371 -2496
2022-06-29 16:36:01 GMT 47.765808 -2.257268 14,150 126 371 -2496
2022-06-29 16:36:00 GMT 47.767761 -2.261212 14,225 126 371 -2560
2022-06-29 16:35:58 GMT 47.769161 -2.264029 14,275 126 371 -2624
2022-06-29 16:35:57 GMT 47.771805 -2.269363 14,400 126 371 -2752
2022-06-29 16:35:53 GMT 47.774048 -2.273888 14,500 126 369 -2880
2022-06-29 16:35:51 GMT 47.775604 -2.276917 14,575 126 369 -2880
2022-06-29 16:35:49 GMT 47.777214 -2.280156 14,650 126 369 -2880
2022-06-29 16:35:48 GMT 47.780411 -2.286461 14,775 126 368 -2880
2022-06-29 16:35:45 GMT 47.781635 -2.288889 14,850 126 367 -2880
2022-06-29 16:35:44 GMT 47.784477 -2.294523 14,975 126 367 -2880
2022-06-29 16:35:42 GMT 47.784477 -2.294523 15,000 126 367 -2816
2022-06-29 16:35:39 GMT 47.787506 -2.300606 15,125 126 367 -2688
2022-06-29 16:35:36 GMT 47.793182 -2.311867 15,325 126 365 -2560
2022-06-29 16:35:34 GMT 47.793182 -2.311867 15,375 126 365 -2624
2022-06-29 16:35:33 GMT 47.794327 -2.314064 15,400 126 365 -2880
2022-06-29 16:35:31 GMT 47.796253 -2.317904 15,500 126 365 -2880
2022-06-29 16:35:29 GMT 47.799187 -2.323749 15,600 126 364 -2880
2022-06-29 16:35:28 GMT 47.799187 -2.323749 15,600 126 364 -2880
2022-06-29 16:35:27 GMT 47.800163 -2.325721 15,750 126 364 -2816
2022-06-29 16:35:26 GMT 47.803284 -2.331919 15,800 126 365 -1984
2022-06-29 16:35:24 GMT 47.803284 -2.331919 15,825 126 365 -1984
2022-06-29 16:35:23 GMT 47.804073 -2.333538 15,875 126 365 -1984
2022-06-29 16:35:21 GMT 47.806320 -2.337959 15,950 126 365 -1984
2022-06-29 16:35:19 GMT 47.808311 -2.341989 16,000 126 365 -1856
2022-06-29 16:35:18 GMT 47.809334 -2.343961 16,050 126 366 -1664
2022-06-29 16:35:17 GMT 47.812592 -2.350456 16,125 126 367 -1600
2022-06-29 16:35:15 GMT 47.812592 -2.350456 16,125 126 368 -1728
2022-06-29 16:35:12 GMT 47.815201 -2.355675 16,200 126 368 -1920
2022-06-29 16:35:10 GMT 47.817352 -2.359932 16,275 126 368 -2176
2022-06-29 16:35:09 GMT 47.818787 -2.362765 16,325 126 369 -2240
2022-06-29 16:35:06 GMT 47.821671 -2.368469 16,425 126 369 -2240
2022-06-29 16:35:04 GMT 47.823715 -2.372498 16,500 126 369 -2240
2022-06-29 16:35:02 GMT 47.826050 -2.377167 16,575 126 369 -2368
2022-06-29 16:35:01 GMT 47.826977 -2.378963 16,625 126 369 -2432
2022-06-29 16:34:59 GMT 47.828705 -2.382385 16,700 126 369 -2560
2022-06-29 16:34:57 GMT 47.831085 -2.387054 16,800 127 368 -2816
2022-06-29 16:34:55 GMT 47.834751 -2.394315 16,975 127 367 -2880
2022-06-29 16:34:53 GMT 47.834751 -2.394315 16,975 127 367 -2880
2022-06-29 16:34:49 GMT 47.841385 -2.407379 17,250 127 367 -2560
2022-06-29 16:34:46 GMT 47.842525 -2.409598 17,325 126 367 -2112
2022-06-29 16:34:44 GMT 47.844772 -2.414040 17,375 126 368 -1984
2022-06-29 16:34:42 GMT 47.845879 -2.416288 17,425 126 368 -1920
2022-06-29 16:34:41 GMT 47.846481 -2.417485 17,450 126 368 -1856
2022-06-29 16:34:39 GMT 47.849045 -2.422556 17,525 126 368 -1856
2022-06-29 16:34:37 GMT 47.852207 -2.428824 17,625 126 370 -1984
2022-06-29 16:34:34 GMT 47.854019 -2.432510 17,675 126 370 -2048
2022-06-29 16:34:31 GMT 47.856995 -2.438484 17,775 126 370 -2176
2022-06-29 16:34:29 GMT 47.858597 -2.441711 17,850 126 370 -2176
2022-06-29 16:34:27 GMT 47.860703 -2.446037 17,925 126 371 -2176
2022-06-29 16:34:26 GMT 47.862545 -2.449740 17,975 126 371 -2112
2022-06-29 16:34:25 GMT 47.863037 -2.450775 18,000 126 371 -2112
2022-06-29 16:34:22 GMT 47.866058 -2.456955 18,100 126 371 -2112
2022-06-29 16:34:21 GMT 47.867615 -2.460045 18,150 126 372 -2112
2022-06-29 16:34:20 GMT 47.870644 -2.466290 18,250 126 372 -2112
2022-06-29 16:34:18 GMT 47.870644 -2.466290 18,250 126 372 -2112
2022-06-29 16:34:16 GMT 47.872459 -2.470022 18,325 126 372 -2176
2022-06-29 16:34:15 GMT 47.874298 -2.473709 18,400 126 372 -2176
2022-06-29 16:34:13 GMT 47.876743 -2.478685 18,475 126 372 -2112
2022-06-29 16:34:11 GMT 47.877869 -2.480919 18,525 126 372 -2112
2022-06-29 16:34:09 GMT 47.879768 -2.484882 18,575 126 373 -2112
2022-06-29 16:34:07 GMT 47.882629 -2.490669 18,675 126 373 -2112
2022-06-29 16:34:04 GMT 47.886887 -2.499390 18,825 125 374 -2176
2022-06-29 16:34:01 GMT 47.886887 -2.499390 18,825 125 374 -2240
2022-06-29 16:34:00 GMT 47.889030 -2.503756 18,925 125 374 -2368
2022-06-29 16:33:56 GMT 47.892105 -2.510024 19,100 126 374 -2496
2022-06-29 16:33:54 GMT 47.893845 -2.513535 19,100 126 374 -2496
2022-06-29 16:33:53 GMT 47.894756 -2.515447 19,150 126 374 -2496
2022-06-29 16:33:52 GMT 47.896774 -2.519577 19,225 126 374 -2304
2022-06-29 16:33:50 GMT 47.899933 -2.526031 19,325 126 374 -1984
2022-06-29 16:33:47 GMT 47.901695 -2.529532 19,375 126 375 -1664
2022-06-29 16:33:46 GMT 47.902809 -2.531785 19,400 126 375 -1664
2022-06-29 16:33:45 GMT 47.905792 -2.537842 19,500 126 376 -1728
2022-06-29 16:33:43 GMT 47.905792 -2.537842 19,500 126 376 -1856
2022-06-29 16:33:41 GMT 47.907761 -2.541824 19,575 126 377 -2368
2022-06-29 16:33:40 GMT 47.910782 -2.547798 19,650 126 377 -2368
2022-06-29 16:33:38 GMT 47.910782 -2.547798 19,675 126 377 -2432
2022-06-29 16:33:37 GMT 47.911926 -2.550133 19,725 126 378 -2496
2022-06-29 16:33:34 GMT 47.916309 -2.558899 19,900 126 380 -2560
2022-06-29 16:33:31 GMT 47.918499 -2.563265 20,000 126 380 -2560
2022-06-29 16:33:29 GMT 47.920406 -2.567068 20,075 126 381 -2496
2022-06-29 16:33:27 GMT 47.922596 -2.571435 20,150 126 381 -2496
2022-06-29 16:33:26 GMT 47.925854 -2.577984 20,300 126 382 -2560
2022-06-29 16:33:24 GMT 47.927032 -2.580276 20,325 126 383 -2560
2022-06-29 16:33:22 GMT 47.929996 -2.586224 20,450 126 384 -2624
2022-06-29 16:33:20 GMT 47.929996 -2.586224 20,450 126 384 -2624
2022-06-29 16:33:19 GMT 47.931068 -2.588337 20,500 126 384 -2624
2022-06-29 16:33:15 GMT 47.935722 -2.597633 20,700 126 385 -2688
2022-06-29 16:33:12 GMT 47.940102 -2.606365 20,875 126 387 -2624
2022-06-29 16:33:10 GMT 47.941170 -2.608478 20,925 126 387 -2624
2022-06-29 16:33:08 GMT 47.942661 -2.611436 20,975 126 387 -2624
2022-06-29 16:33:06 GMT 47.944290 -2.614676 21,050 126 388 -2624
2022-06-29 16:33:04 GMT 47.946526 -2.619112 21,125 126 388 -2624
2022-06-29 16:33:02 GMT 47.948479 -2.622986 21,375 126 389 -2816
2022-06-29 16:33:00 GMT 47.951706 -2.629440 21,375 126 389 -2816
2022-06-29 16:32:58 GMT 47.956020 -2.637986 21,525 126 390 -3136
2022-06-29 16:32:56 GMT 47.956020 -2.637986 21,550 126 390 -3136
2022-06-29 16:32:55 GMT 47.957932 -2.641869 21,650 126 391 -3072
2022-06-29 16:32:52 GMT 47.959789 -2.645592 21,750 126 391 -3072
2022-06-29 16:32:49 GMT 47.963654 -2.653339 21,975 126 391 -2944
2022-06-29 16:32:46 GMT 47.966774 -2.659607 22,050 126 392 -2816
2022-06-29 16:32:44 GMT 47.969696 -2.665489 22,225 126 394 -2944
2022-06-29 16:32:42 GMT 47.970886 -2.667892 22,300 126 395 -3072
2022-06-29 16:32:41 GMT 47.973431 -2.673199 22,350 126 394 -3264
2022-06-29 16:32:37 GMT 47.976471 -2.679291 22,500 125 395 -3392
2022-06-29 16:32:35 GMT 47.978622 -2.683754 22,650 125 395 -3392
2022-06-29 16:32:33 GMT 47.980507 -2.687707 22,750 125 396 -3328
2022-06-29 16:32:31 GMT 47.984230 -2.695453 22,925 125 395 -3200
2022-06-29 16:32:29 GMT 47.985115 -2.697214 22,975 125 396 -3200
2022-06-29 16:32:27 GMT 47.986267 -2.699615 23,075 125 397 -3264
2022-06-29 16:32:26 GMT 47.989677 -2.706721 23,175 125 397 -3328
2022-06-29 16:32:24 GMT 47.989677 -2.706721 23,200 125 397 -3392
2022-06-29 16:32:22 GMT 47.991913 -2.711440 23,325 125 397 -3456
2022-06-29 16:32:21 GMT 47.992859 -2.713417 23,375 125 396 -3520
2022-06-29 16:32:19 GMT 47.995331 -2.718498 23,575 125 396 -3520
2022-06-29 16:32:17 GMT 48.000011 -2.728271 23,750 125 396 -3392
2022-06-29 16:32:14 GMT 48.000011 -2.728271 23,750 125 396 -3392
2022-06-29 16:32:12 GMT 48.003178 -2.734680 23,925 126 397 -3264
2022-06-29 16:32:11 GMT 48.004349 -2.737106 24,000 126 396 -3264
2022-06-29 16:32:10 GMT 48.008904 -2.746371 24,200 126 396 -3328
2022-06-29 16:32:07 GMT 48.008904 -2.746371 24,200 126 396 -3456
2022-06-29 16:32:06 GMT 48.010025 -2.748573 24,275 126 396 -3648
2022-06-29 16:32:03 GMT 48.012405 -2.753380 24,425 126 396 -3648
2022-06-29 16:32:02 GMT 48.013596 -2.755783 24,475 126 396 -3648
2022-06-29 16:32:00 GMT 48.016022 -2.760590 24,625 126 396 -3648
2022-06-29 16:31:59 GMT 48.017330 -2.763202 24,675 126 396 -3456
2022-06-29 16:31:58 GMT 48.021194 -2.770889 24,900 127 397 -3200
2022-06-29 16:31:55 GMT 48.021194 -2.770889 24,900 127 397 -3200
2022-06-29 16:31:54 GMT 48.021847 -2.772217 24,925 127 397 -3200
2022-06-29 16:31:51 GMT 48.027058 -2.782428 25,300 127 397 -3456
2022-06-29 16:31:48 GMT 48.029388 -2.787006 25,300 127 397 -3456
2022-06-29 16:31:47 GMT 48.030270 -2.788767 25,350 127 397 -3520
2022-06-29 16:31:45 GMT 48.032600 -2.793344 25,475 127 397 -3584
2022-06-29 16:31:43 GMT 48.035252 -2.798626 25,575 127 398 -3648
2022-06-29 16:31:41 GMT 48.037113 -2.802359 25,725 127 398 -3648
2022-06-29 16:31:38 GMT 48.040745 -2.809542 25,925 127 398 -3584
2022-06-29 16:31:36 GMT 48.042328 -2.812641 26,000 127 398 -3520
2022-06-29 16:31:35 GMT 48.043957 -2.815880 26,075 126 399 -3200
2022-06-29 16:31:34 GMT 48.046333 -2.820528 26,200 126 399 -3200
2022-06-29 16:31:32 GMT 48.047516 -2.822937 26,250 126 399 -3200
2022-06-29 16:31:30 GMT 48.049850 -2.827538 26,350 126 400 -3456
2022-06-29 16:31:28 GMT 48.051498 -2.830881 26,450 126 400 -3456
2022-06-29 16:31:27 GMT 48.052734 -2.833305 26,525 126 400 -3648
2022-06-29 16:31:26 GMT 48.055664 -2.839279 26,700 125 401 -3712
2022-06-29 16:31:24 GMT 48.055664 -2.839279 26,700 125 401 -3712
2022-06-29 16:31:22 GMT 48.057953 -2.844017 26,925 125 401 -3456
2022-06-29 16:31:20 GMT 48.060436 -2.849192 26,925 125 401 -3456
2022-06-29 16:31:19 GMT 48.061417 -2.851234 27,000 126 400 -3328
2022-06-29 16:31:17 GMT 48.065044 -2.858558 27,150 127 400 -3392
2022-06-29 16:31:16 GMT 48.065044 -2.858558 27,200 127 400 -3392
2022-06-29 16:31:15 GMT 48.069992 -2.868118 27,450 129 397 -3584
2022-06-29 16:31:11 GMT 48.069992 -2.868118 27,450 129 397 -3584
2022-06-29 16:31:08 GMT 48.073471 -2.874545 27,625 130 397 -3392
2022-06-29 16:31:06 GMT 48.075485 -2.878075 27,725 131 396 -3136
2022-06-29 16:31:05 GMT 48.079571 -2.885108 27,850 131 397 -2816
2022-06-29 16:31:03 GMT 48.079571 -2.885108 27,875 132 397 -2688
2022-06-29 16:31:02 GMT 48.082176 -2.889404 27,975 133 397 -2432
2022-06-29 16:31:00 GMT 48.085464 -2.894554 28,075 134 398 -2496
2022-06-29 16:30:57 GMT 48.086880 -2.896729 28,125 135 397 -2688
2022-06-29 16:30:55 GMT 48.089996 -2.901421 28,250 136 396 -3392
2022-06-29 16:30:53 GMT 48.091999 -2.904264 28,350 136 395 -4096
2022-06-29 16:30:52 GMT 48.093567 -2.906502 28,425 136 394 -4544
2022-06-29 16:30:51 GMT 48.094620 -2.908012 28,500 136 392 -4992
2022-06-29 16:30:50 GMT 48.099121 -2.914335 28,750 136 389 -5696
2022-06-29 16:30:48 GMT 48.099121 -2.914335 28,800 136 389 -5952
2022-06-29 16:30:46 GMT 48.101761 -2.917969 29,025 136 388 -6144
2022-06-29 16:30:45 GMT 48.103088 -2.919823 29,100 136 387 -6016
2022-06-29 16:30:44 GMT 48.105560 -2.923325 29,300 136 386 -5632
2022-06-29 16:30:42 GMT 48.111145 -2.931152 29,625 136 384 -5120
2022-06-29 16:30:39 GMT 48.111145 -2.931152 29,625 136 385 -4672
2022-06-29 16:30:37 GMT 48.113846 -2.934998 29,775 136 386 -3392
2022-06-29 16:30:35 GMT 48.116299 -2.938491 29,850 136 386 -2496
2022-06-29 16:30:33 GMT 48.118652 -2.941795 29,925 136 388 -1856
2022-06-29 16:30:31 GMT 48.121353 -2.945641 29,975 136 389 -1152
2022-06-29 16:30:30 GMT 48.123840 -2.949125 30,000 136 389 -1024
2022-06-29 16:30:28 GMT 48.125153 -2.950996 30,025 136 391 -896
2022-06-29 16:30:27 GMT 48.128265 -2.955460 30,050 136 392 -960
2022-06-29 16:30:24 GMT 48.130405 -2.958421 30,075 136 394 -1024
2022-06-29 16:30:22 GMT 48.132500 -2.961449 30,125 136 395 -1216
2022-06-29 16:30:20 GMT 48.135956 -2.966309 30,175 136 396 -1536
2022-06-29 16:30:19 GMT 48.137283 -2.968163 30,200 136 396 -1600
2022-06-29 16:30:16 GMT 48.140991 -2.973450 30,275 136 398 -1856
2022-06-29 16:30:15 GMT 48.143692 -2.977226 30,350 136 398 -2048
2022-06-29 16:30:13 GMT 48.144745 -2.978737 30,375 136 398 -2048
2022-06-29 16:30:12 GMT 48.146885 -2.981732 30,425 136 398 -2240
2022-06-29 16:30:09 GMT 48.149551 -2.985535 30,500 136 399 -2496
2022-06-29 16:30:07 GMT 48.152378 -2.989549 30,600 136 399 -2688
2022-06-29 16:30:05 GMT 48.154938 -2.993141 30,975 136 399 -3008
2022-06-29 16:30:03 GMT 48.158150 -2.997718 30,975 136 399 -3136
2022-06-29 16:30:00 GMT 48.163086 -3.004688 31,025 136 399 -3136
2022-06-29 16:29:57 GMT 48.165878 -3.008664 31,150 136 399 -3136
2022-06-29 16:29:55 GMT 48.168594 -3.012437 31,225 136 398 -3136
2022-06-29 16:29:52 GMT 48.176102 -3.022930 31,575 137 397 -3136
2022-06-29 16:29:50 GMT 48.176102 -3.022930 31,575 137 398 -3008
2022-06-29 16:29:47 GMT 48.179626 -3.027790 31,750 137 397 -2752
2022-06-29 16:29:45 GMT 48.182312 -3.031576 31,750 137 397 -2752
2022-06-29 16:29:42 GMT 48.189240 -3.041030 32,050 137 399 -2688
2022-06-29 16:29:40 GMT 48.189240 -3.041030 32,050 137 399 -2624
2022-06-29 16:29:38 GMT 48.192226 -3.045092 32,050 137 399 -2496
2022-06-29 16:29:37 GMT 48.194649 -3.048489 32,175 137 399 -2496
2022-06-29 16:29:34 GMT 48.197533 -3.052392 32,225 137 400 -2432
2022-06-29 16:29:31 GMT 48.201874 -3.058425 32,575 137 401 -2496
2022-06-29 16:29:28 GMT 48.204842 -3.062584 32,575 137 401 -2560
2022-06-29 16:29:25 GMT 48.211899 -3.072439 32,650 136 403 -2304
2022-06-29 16:29:21 GMT 48.215408 -3.077401 32,775 136 405 -2112
2022-06-29 16:29:20 GMT 48.216614 -3.079130 32,850 136 405 -2112
2022-06-29 16:29:18 GMT 48.219452 -3.083214 32,850 136 405 -2112
2022-06-29 16:29:16 GMT 48.222015 -3.086877 32,900 135 406 -2112
2022-06-29 16:29:14 GMT 48.224442 -3.090398 33,000 135 407 -2112
2022-06-29 16:29:13 GMT 48.227421 -3.094747 33,050 135 408 -2112
2022-06-29 16:29:11 GMT 48.229282 -3.097494 33,125 135 409 -1920
2022-06-29 16:29:10 GMT 48.230621 -3.099483 33,150 135 410 -1856
2022-06-29 16:29:08 GMT 48.233047 -3.103074 33,200 135 411 -1792
2022-06-29 16:29:07 GMT 48.236389 -3.108074 33,350 134 412 -1856
2022-06-29 16:29:03 GMT 48.241104 -3.115187 33,375 133 415 -2176
2022-06-29 16:29:02 GMT 48.241104 -3.115187 33,400 133 415 -2176
2022-06-29 16:29:00 GMT 48.242687 -3.117660 33,450 133 415 -2176
2022-06-29 16:28:58 GMT 48.245224 -3.121526 33,525 133 416 -2240
2022-06-29 16:28:57 GMT 48.246647 -3.123876 33,550 132 416 -2240
2022-06-29 16:28:56 GMT 48.247971 -3.125962 33,600 132 417 -2176
2022-06-29 16:28:54 GMT 48.250717 -3.130399 33,675 132 418 -1856
2022-06-29 16:28:53 GMT 48.251999 -3.132582 33,700 132 418 -1856
2022-06-29 16:28:52 GMT 48.253052 -3.134273 33,750 133 418 -1728
2022-06-29 16:28:51 GMT 48.257080 -3.140893 33,800 133 418 -1728
2022-06-29 16:28:49 GMT 48.257080 -3.140893 33,825 134 417 -1728
2022-06-29 16:28:47 GMT 48.259872 -3.145329 33,875 135 417 -1792
2022-06-29 16:28:46 GMT 48.261078 -3.147149 33,925 135 418 -1984
2022-06-29 16:28:44 GMT 48.264523 -3.152281 34,100 135 418 -1984
2022-06-29 16:28:42 GMT 48.266556 -3.155330 34,100 135 418 -1984
2022-06-29 16:28:40 GMT 48.274063 -3.166175 34,225 136 418 -2240
2022-06-29 16:28:37 GMT 48.274063 -3.166175 34,225 136 418 -2176
2022-06-29 16:28:36 GMT 48.275322 -3.167966 34,275 136 419 -2048
2022-06-29 16:28:35 GMT 48.278580 -3.172519 34,400 135 423 -1216
2022-06-29 16:28:31 GMT 48.284492 -3.180976 34,425 135 423 -1216
2022-06-29 16:28:28 GMT 48.290638 -3.190516 34,525 131 430 -1792
2022-06-29 16:28:25 GMT 48.292500 -3.193552 34,600 130 430 -1984
2022-06-29 16:28:22 GMT 48.295074 -3.198078 34,675 128 433 -2240
2022-06-29 16:28:20 GMT 48.297436 -3.202515 34,750 126 434 -2240
2022-06-29 16:28:19 GMT 48.298786 -3.205117 34,775 125 436 -2176
2022-06-29 16:28:17 GMT 48.300842 -3.209205 34,850 124 438 -2112
2022-06-29 16:28:16 GMT 48.303497 -3.214909 34,925 122 439 -1984
2022-06-29 16:28:14 GMT 48.304413 -3.216881 34,950 122 441 -1984
2022-06-29 16:28:13 GMT 48.306747 -3.222304 35,000 120 442 -1920
2022-06-29 16:28:11 GMT 48.307907 -3.225138 35,050 118 445 -1856
2022-06-29 16:28:09 GMT 48.309998 -3.230403 35,100 118 446 -1856
2022-06-29 16:28:08 GMT 48.310886 -3.232872 35,125 117 447 -1856
2022-06-29 16:28:07 GMT 48.312927 -3.238572 35,200 115 449 -1856
2022-06-29 16:28:05 GMT 48.313869 -3.241328 35,225 114 451 -1856
2022-06-29 16:28:04 GMT 48.315823 -3.247544 35,300 112 453 -1984
2022-06-29 16:28:01 GMT 48.316708 -3.250724 35,475 110 456 -2112
2022-06-29 16:27:59 GMT 48.319977 -3.263010 35,475 108 457 -2176
2022-06-29 16:27:55 GMT 48.322620 -3.275082 35,575 105 460 -2176
2022-06-29 16:27:53 GMT 48.322620 -3.275082 35,650 105 462 -2112
2022-06-29 16:27:52 GMT 48.324280 -3.284349 35,675 101 465 -1792
2022-06-29 16:27:50 GMT 48.324280 -3.284349 35,725 101 465 -1792
2022-06-29 16:27:49 GMT 48.324856 -3.287803 35,750 101 465 -1792
2022-06-29 16:27:47 GMT 48.325882 -3.294701 35,825 97 469 -1216
2022-06-29 16:27:45 GMT 48.327183 -3.306162 35,925 97 469 -1216
2022-06-29 16:27:43 GMT 48.327785 -3.312956 35,925 96 470 -1024
2022-06-29 16:27:41 GMT 48.328018 -3.316209 35,950 94 471 -768
2022-06-29 16:27:39 GMT 48.328445 -3.322660 35,975 93 473 -512
2022-06-29 16:27:37 GMT 48.328579 -3.325605 35,975 92 474 -384
2022-06-29 16:27:35 GMT 48.328812 -3.332167 36,000 90 476 -128
2022-06-29 16:27:34 GMT 48.328949 -3.336745 36,000 89 477 -64
2022-06-29 16:27:32 GMT 48.328949 -3.341675 36,000 88 478 0
2022-06-29 16:27:30 GMT 48.328766 -3.352276 36,000 85 480 0
2022-06-29 16:27:28 GMT 48.328674 -3.355267 36,000 84 482 0
2022-06-29 16:27:27 GMT 48.328159 -3.365213 36,000 82 483 0
2022-06-29 16:27:25 GMT 48.327602 -3.372152 36,000 82 483 0
2022-06-29 16:27:23 GMT 48.327602 -3.372152 36,000 79 486 0
2022-06-29 16:27:20 GMT 48.326485 -3.383066 36,000 78 487 0
2022-06-29 16:27:16 GMT 48.325039 -3.393330 36,000 75 489 0
2022-06-29 16:27:15 GMT 48.322990 -3.404822 36,000 73 492 0
2022-06-29 16:27:13 GMT 48.322990 -3.404822 36,000 72 492 0
2022-06-29 16:27:12 GMT 48.322338 -3.408075 36,000 71 494 0
2022-06-29 16:27:10 GMT 48.320850 -3.414869 36,000 68 496 0
2022-06-29 16:27:09 GMT 48.318943 -3.422964 36,000 67 497 0
2022-06-29 16:27:06 GMT 48.316612 -3.431493 36,000 64 499 -64
2022-06-29 16:27:04 GMT 48.315720 -3.434354 36,000 63 499 -64
2022-06-29 16:27:03 GMT 48.313477 -3.441538 36,000 62 500 -64
2022-06-29 16:27:01 GMT 48.312519 -3.444286 36,000 61 501 -64
2022-06-29 16:27:00 GMT 48.310238 -3.450719 36,000 58 503 -64
2022-06-29 16:26:58 GMT 48.307892 -3.456750 36,000 56 504 -64
2022-06-29 16:26:55 GMT 48.306278 -3.460549 36,000 55 504 -64
2022-06-29 16:26:54 GMT 48.304413 -3.464989 36,000 54 505 -64
2022-06-29 16:26:53 GMT 48.302948 -3.468158 36,000 52 506 -64
2022-06-29 16:26:51 GMT 48.300201 -3.473792 36,000 49 508 0
2022-06-29 16:26:50 GMT 48.298645 -3.476891 36,000 49 508 0
2022-06-29 16:26:49 GMT 48.293976 -3.485272 36,000 47 509 0
2022-06-29 16:26:47 GMT 48.293976 -3.485272 36,000 46 510 0
2022-06-29 16:26:45 GMT 48.289196 -3.493002 36,000 44 511 64
2022-06-29 16:26:43 GMT 48.287704 -3.495272 36,000 43 512 64
2022-06-29 16:26:41 GMT 48.283997 -3.500695 36,000 42 512 64
2022-06-29 16:26:38 GMT 48.279602 -3.506681 36,000 41 512 64
2022-06-29 16:26:37 GMT 48.278767 -3.507891 36,000 41 513 0
2022-06-29 16:26:35 GMT 48.273788 -3.514428 36,000 41 513 0
2022-06-29 16:26:34 GMT 48.273788 -3.514428 36,000 41 513 0
2022-06-29 16:26:32 GMT 48.270203 -3.519094 36,000 41 513 0
2022-06-29 16:26:30 GMT 48.264664 -3.526394 36,000 41 513 0
2022-06-29 16:26:27 GMT 48.261124 -3.531093 36,000 41 513 0
2022-06-29 16:26:25 GMT 48.257355 -3.536008 36,000 41 513 0
2022-06-29 16:26:24 GMT 48.253464 -3.541119 36,000 41 513 0
2022-06-29 16:26:21 GMT 48.249718 -3.546054 36,000 41 513 0
2022-06-29 16:26:19 GMT 48.246826 -3.549781 36,000 41 513 0
2022-06-29 16:26:18 GMT 48.244354 -3.553091 36,000 41 513 0
2022-06-29 16:26:17 GMT 48.242569 -3.555415 36,000 41 513 0
2022-06-29 16:26:15 GMT 48.239182 -3.559852 36,000 41 513 0
2022-06-29 16:26:14 GMT 48.235615 -3.564558 36,000 41 513 0
2022-06-29 16:26:12 GMT 48.234009 -3.566683 36,000 41 513 0
2022-06-29 16:26:11 GMT 48.232403 -3.568750 36,000 41 513 0
2022-06-29 16:26:08 GMT 48.224907 -3.578580 36,000 41 514 0
2022-06-29 16:26:06 GMT 48.223137 -3.580965 36,000 41 514 0
2022-06-29 16:26:04 GMT 48.219414 -3.585880 36,000 41 514 64
2022-06-29 16:26:03 GMT 48.217804 -3.588022 36,000 41 514 64
2022-06-29 16:25:59 GMT 48.209244 -3.599290 36,000 41 514 64
2022-06-29 16:25:56 GMT 48.204437 -3.605628 36,000 41 514 0
2022-06-29 16:25:54 GMT 48.201233 -3.609854 36,000 41 514 0
2022-06-29 16:25:53 GMT 48.194088 -3.619272 36,000 41 515 0
2022-06-29 16:25:50 GMT 48.194088 -3.619272 36,000 41 515 0
2022-06-29 16:25:49 GMT 48.192135 -3.621802 36,000 41 515 -64
2022-06-29 16:25:48 GMT 48.190155 -3.624432 36,000 41 515 -64
2022-06-29 16:25:46 GMT 48.187088 -3.628376 36,000 41 515 -64
2022-06-29 16:25:45 GMT 48.184776 -3.631487 36,000 41 515 -64
2022-06-29 16:25:42 GMT 48.176399 -3.642474 36,000 41 515 64
2022-06-29 16:25:40 GMT 48.171558 -3.648834 36,000 41 515 64
2022-06-29 16:25:37 GMT 48.171558 -3.648834 36,000 41 515 0
2022-06-29 16:25:36 GMT 48.167088 -3.654689 36,000 41 515 -64
2022-06-29 16:25:32 GMT 48.161549 -3.661989 36,000 41 515 -64
2022-06-29 16:25:30 GMT 48.159081 -3.665279 36,000 41 515 -64
2022-06-29 16:25:29 GMT 48.156567 -3.668518 36,000 41 515 0
2022-06-29 16:25:27 GMT 48.152611 -3.673730 36,000 41 515 0
2022-06-29 16:25:26 GMT 48.150841 -3.676054 36,000 41 515 64
2022-06-29 16:25:23 GMT 48.145477 -3.683098 36,000 41 515 64
2022-06-29 16:25:22 GMT 48.143692 -3.685432 36,000 41 515 0
2022-06-29 16:25:20 GMT 48.139389 -3.691063 36,000 41 515 -64
2022-06-29 16:25:17 GMT 48.134537 -3.697449 36,000 41 515 -64
2022-06-29 16:25:16 GMT 48.132568 -3.699989 36,000 41 515 -64
2022-06-29 16:25:12 GMT 48.126495 -3.708027 36,000 41 515 0
2022-06-29 16:25:10 GMT 48.123283 -3.712252 36,000 41 515 0
2022-06-29 16:25:09 GMT 48.121674 -3.714340 36,000 41 515 0
2022-06-29 16:25:08 GMT 48.114716 -3.723520 36,000 41 515 0
2022-06-29 16:25:06 GMT 48.114716 -3.723520 36,000 41 515 0
2022-06-29 16:25:03 GMT 48.111134 -3.728239 36,000 41 515 64
2022-06-29 16:25:02 GMT 48.105221 -3.735985 36,000 41 516 64
2022-06-29 16:25:00 GMT 48.105221 -3.735985 36,000 41 516 64
2022-06-29 16:24:58 GMT 48.101498 -3.740915 36,000 41 516 0
2022-06-29 16:24:56 GMT 48.097538 -3.746127 36,000 41 516 0
2022-06-29 16:24:54 GMT 48.095585 -3.748662 36,000 41 515 0
2022-06-29 16:24:53 GMT 48.090912 -3.754784 36,000 41 516 0
2022-06-29 16:24:52 GMT 48.090912 -3.754784 36,000 41 516 0
2022-06-29 16:24:50 GMT 48.086975 -3.760002 36,000 41 516 0
2022-06-29 16:24:48 GMT 48.083385 -3.764719 36,000 41 516 0
2022-06-29 16:24:46 GMT 48.079803 -3.769367 36,000 41 517 0
2022-06-29 16:24:45 GMT 48.074265 -3.776691 36,000 41 516 0
2022-06-29 16:24:43 GMT 48.074265 -3.776691 36,000 41 516 0
2022-06-29 16:24:41 GMT 48.070492 -3.781621 36,000 41 516 -64
2022-06-29 16:24:40 GMT 48.068848 -3.783691 36,000 40 516 -64
2022-06-29 16:24:37 GMT 48.064533 -3.789297 36,000 40 516 -64
2022-06-29 16:24:36 GMT 48.062019 -3.792607 36,000 40 516 -64
2022-06-29 16:24:34 GMT 48.058620 -3.797044 36,000 40 516 0
2022-06-29 16:24:32 GMT 48.054108 -3.802819 36,000 40 516 0
2022-06-29 16:24:30 GMT 48.050674 -3.807243 36,000 40 516 0
2022-06-29 16:24:29 GMT 48.048473 -3.810073 36,000 40 516 0
2022-06-29 16:24:28 GMT 48.046875 -3.812119 36,000 40 517 64
2022-06-29 16:24:25 GMT 48.041977 -3.818367 36,000 40 517 64
2022-06-29 16:24:24 GMT 48.038361 -3.823036 36,000 40 516 64
2022-06-29 16:24:22 GMT 48.034695 -3.827609 36,000 40 517 0
2022-06-29 16:24:20 GMT 48.032684 -3.830177 36,000 40 516 0
2022-06-29 16:24:18 GMT 48.026688 -3.837730 36,000 40 516 0
2022-06-29 16:24:16 GMT 48.024498 -3.840496 36,000 40 517 0
2022-06-29 16:24:15 GMT 48.023430 -3.841905 36,000 39 516 0
2022-06-29 16:24:12 GMT 48.016113 -3.851051 36,000 39 517 64
2022-06-29 16:24:09 GMT 48.008018 -3.861061 36,000 39 517 64
2022-06-29 16:24:07 GMT 48.008018 -3.861061 36,000 39 517 64
2022-06-29 16:24:06 GMT 48.003571 -3.866432 36,000 39 517 -64
2022-06-29 16:24:03 GMT 48.002106 -3.868286 36,000 39 516 -64
2022-06-29 16:24:01 GMT 47.997116 -3.874397 36,000 41 515 -64
2022-06-29 16:23:59 GMT 47.993317 -3.879204 36,000 42 515 -64
2022-06-29 16:23:58 GMT 47.991898 -3.881058 36,000 43 515 0
2022-06-29 16:23:56 GMT 47.987675 -3.886907 36,000 44 514 0
2022-06-29 16:23:55 GMT 47.986324 -3.888808 36,000 46 514 64
2022-06-29 16:23:52 GMT 47.982788 -3.894090 36,000 47 513 64
2022-06-29 16:23:49 GMT 47.978226 -3.901344 36,000 50 512 64
2022-06-29 16:23:48 GMT 47.973431 -3.909654 36,000 51 512 64
2022-06-29 16:23:46 GMT 47.973431 -3.909654 36,000 52 511 64
2022-06-29 16:23:44 GMT 47.970200 -3.915665 36,000 53 510 64
2022-06-29 16:23:43 GMT 47.968781 -3.918480 36,000 55 510 64
2022-06-29 16:23:41 GMT 47.965984 -3.924161 36,000 56 509 64
2022-06-29 16:23:38 GMT 47.962677 -3.931415 36,000 57 508 64
2022-06-29 16:23:36 GMT 47.959808 -3.938255 36,000 60 507 64
2022-06-29 16:23:35 GMT 47.955833 -3.948529 35,975 61 506 64
2022-06-29 16:23:33 GMT 47.955833 -3.948529 35,975 62 505 64
2022-06-29 16:23:32 GMT 47.953033 -3.956589 35,975 64 505 64
2022-06-29 16:23:29 GMT 47.951660 -3.960983 36,000 65 503 64
2022-06-29 16:23:26 GMT 47.949364 -3.968529 36,000 67 502 0
2022-06-29 16:23:25 GMT 47.948181 -3.973068 36,000 70 499 0
2022-06-29 16:23:23 GMT 47.946533 -3.979523 36,000 72 498 0
2022-06-29 16:23:21 GMT 47.944710 -3.987333 36,000 74 496 64
2022-06-29 16:23:18 GMT 47.941311 -4.007122 36,000 77 494 64
2022-06-29 16:23:15 GMT 47.940491 -4.013855 36,000 81 490 128
2022-06-29 16:23:13 GMT 47.940491 -4.013855 36,000 81 490 64
2022-06-29 16:23:10 GMT 47.939713 -4.022507 36,000 84 489 -256
2022-06-29 16:23:08 GMT 47.939217 -4.029940 36,000 84 489 -256
2022-06-29 16:23:06 GMT 47.938843 -4.036983 36,025 88 488 -896
2022-06-29 16:23:04 GMT 47.938477 -4.044342 36,050 88 487 -960
2022-06-29 16:23:01 GMT 47.938469 -4.055786 36,125 93 485 -960
2022-06-29 16:22:59 GMT 47.938751 -4.065082 36,150 97 483 -960
2022-06-29 16:22:56 GMT 47.939449 -4.074731 36,200 99 482 -960
2022-06-29 16:22:53 GMT 47.940285 -4.082266 36,225 102 481 -960
2022-06-29 16:22:50 GMT 47.941078 -4.088463 36,275 104 480 -960
2022-06-29 16:22:46 GMT 47.944244 -4.105659 36,400 110 476 -960
2022-06-29 16:22:43 GMT 47.945358 -4.110647 36,400 111 475 -960
2022-06-29 16:22:40 GMT 47.947872 -4.120155 36,425 115 473 -960
2022-06-29 16:22:37 GMT 47.950653 -4.129005 36,500 118 470 -1024
2022-06-29 16:22:35 GMT 47.953445 -4.136696 36,500 119 469 -1024
2022-06-29 16:22:32 GMT 47.955414 -4.141777 36,550 124 466 -1024
2022-06-29 16:22:31 GMT 47.957336 -4.146034 36,575 126 464 -1024
2022-06-29 16:22:30 GMT 47.958534 -4.148677 36,600 126 464 -1024
2022-06-29 16:22:28 GMT 47.961182 -4.154137 36,625 129 462 -1024
2022-06-29 16:22:24 GMT 47.971615 -4.171776 36,750 136 458 -1088
2022-06-29 16:22:21 GMT 47.971615 -4.171776 36,750 139 455 -1088
2022-06-29 16:22:20 GMT 47.973152 -4.173960 36,775 139 455 -1088
2022-06-29 16:22:18 GMT 47.975990 -4.177692 36,825 140 454 -1152
2022-06-29 16:22:17 GMT 47.977715 -4.180016 36,825 141 453 -1152
2022-06-29 16:22:16 GMT 47.982555 -4.185439 36,875 145 451 -1088
2022-06-29 16:22:14 GMT 47.982555 -4.185439 36,875 146 450 -1088
2022-06-29 16:22:13 GMT 47.987549 -4.190598 36,925 148 449 -1024
2022-06-29 16:22:11 GMT 47.992519 -4.195087 36,975 154 445 -448
2022-06-29 16:22:08 GMT 47.995422 -4.197533 37,000 154 445 -448
2022-06-29 16:22:07 GMT 47.995422 -4.197533 37,000 154 445 -448
2022-06-29 16:22:05 GMT 48.002808 -4.202834 37,025 156 443 -256
2022-06-29 16:22:03 GMT 48.004898 -4.204056 37,000 160 441 0
2022-06-29 16:21:59 GMT 48.010849 -4.207283 37,000 164 438 0
2022-06-29 16:21:58 GMT 48.011837 -4.207693 37,000 165 438 0
2022-06-29 16:21:56 GMT 48.015888 -4.209595 37,000 171 435 0
2022-06-29 16:21:55 GMT 48.018448 -4.210510 37,000 171 435 0
2022-06-29 16:21:53 GMT 48.022404 -4.211778 37,000 171 435 0
2022-06-29 16:21:52 GMT 48.026176 -4.212764 37,000 174 434 0
2022-06-29 16:21:48 GMT 48.032738 -4.213891 37,000 177 432 0
2022-06-29 16:21:46 GMT 48.036743 -4.214243 37,000 181 431 0
2022-06-29 16:21:44 GMT 48.047104 -4.213806 37,000 185 429 -64
2022-06-29 16:21:40 GMT 48.051033 -4.213186 37,000 188 428 -64
2022-06-29 16:21:38 GMT 48.051033 -4.213186 37,000 190 428 -64
2022-06-29 16:21:34 GMT 48.057083 -4.211778 37,000 195 425 -64
2022-06-29 16:21:33 GMT 48.059971 -4.210933 37,025 197 425 -64
2022-06-29 16:21:31 GMT 48.063000 -4.209736 37,025 197 425 -64
2022-06-29 16:21:30 GMT 48.067154 -4.207970 37,025 200 424 -64
2022-06-29 16:21:28 GMT 48.069237 -4.206919 37,025 202 424 0
2022-06-29 16:21:25 GMT 48.075565 -4.203186 37,025 207 422 192
2022-06-29 16:21:22 GMT 48.079285 -4.200554 37,000 208 423 192
2022-06-29 16:21:21 GMT 48.082260 -4.198357 37,000 210 423 192
2022-06-29 16:21:19 GMT 48.086182 -4.195087 37,000 211 422 64
2022-06-29 16:21:17 GMT 48.089394 -4.192270 37,000 212 422 64
2022-06-29 16:21:15 GMT 48.093906 -4.188256 37,000 212 422 64
2022-06-29 16:21:14 GMT 48.093906 -4.188256 37,000 212 421 0
2022-06-29 16:21:13 GMT 48.095585 -4.186707 37,000 212 422 0
2022-06-29 16:21:11 GMT 48.099564 -4.183113 37,000 212 421 0
2022-06-29 16:21:10 GMT 48.100937 -4.181877 37,000 212 421 0
2022-06-29 16:21:08 GMT 48.104244 -4.178889 37,000 212 420 0
2022-06-29 16:21:07 GMT 48.105743 -4.177551 37,000 212 420 0
2022-06-29 16:21:06 GMT 48.109085 -4.174530 37,000 212 420 0
2022-06-29 16:21:02 GMT 48.114063 -4.170016 37,000 212 420 0
2022-06-29 16:20:59 GMT 48.119064 -4.165466 37,000 212 420 0
2022-06-29 16:20:55 GMT 48.126030 -4.159170 37,000 212 420 0
2022-06-29 16:20:53 GMT 48.130646 -4.154961 37,000 212 418 0
2022-06-29 16:20:49 GMT 48.135944 -4.150156 37,000 212 417 0
2022-06-29 16:20:45 GMT 48.143555 -4.143288 37,000 212 417 0
2022-06-29 16:20:42 GMT 48.148041 -4.139236 37,000 212 417 0
2022-06-29 16:20:39 GMT 48.160858 -4.127620 37,000 212 416 0
2022-06-29 16:20:34 GMT 48.160858 -4.127620 37,000 212 417 0
2022-06-29 16:20:32 GMT 48.166157 -4.122836 37,000 212 415 0
2022-06-29 16:20:29 GMT 48.169277 -4.120018 37,000 212 415 0
2022-06-29 16:20:26 GMT 48.175701 -4.114235 37,000 212 415 0
2022-06-29 16:20:23 GMT 48.181274 -4.109168 37,000 212 415 0
2022-06-29 16:20:19 GMT 48.186035 -4.104872 37,000 212 415 0
2022-06-29 16:20:14 GMT 48.193623 -4.098045 37,000 212 415 0
2022-06-29 16:20:12 GMT 48.202141 -4.090383 37,000 212 415 0
2022-06-29 16:20:09 GMT 48.202141 -4.090383 37,000 212 415 0
2022-06-29 16:20:06 GMT 48.206772 -4.086210 37,000 212 415 0
2022-06-29 16:20:03 GMT 48.210197 -4.083156 37,000 212 415 0
2022-06-29 16:20:01 GMT 48.215149 -4.078745 37,000 212 415 0
2022-06-29 16:19:58 GMT 48.220066 -4.074265 37,000 212 415 0
2022-06-29 16:19:54 GMT 48.227932 -4.067182 37,000 212 414 0
2022-06-29 16:19:51 GMT 48.231720 -4.063815 37,000 212 414 64
2022-06-29 16:19:48 GMT 48.236637 -4.059376 37,000 212 414 0
2022-06-29 16:19:44 GMT 48.248276 -4.048896 37,000 212 414 0
2022-06-29 16:19:41 GMT 48.248276 -4.048896 37,000 212 414 0
2022-06-29 16:19:36 GMT 48.256607 -4.041306 37,000 212 414 0
2022-06-29 16:19:32 GMT 48.268433 -4.030681 37,000 212 414 0
2022-06-29 16:19:28 GMT 48.268433 -4.030681 37,000 212 414 64
2022-06-29 16:19:23 GMT 48.277451 -4.022545 37,000 211 413 0
2022-06-29 16:19:21 GMT 48.282677 -4.017816 37,000 211 413 -64
2022-06-29 16:19:18 GMT 48.285141 -4.015573 37,000 211 413 -64
2022-06-29 16:19:14 GMT 48.298599 -4.003432 37,000 212 414 0
2022-06-29 16:19:11 GMT 48.298599 -4.003432 37,000 212 414 0
2022-06-29 16:19:08 GMT 48.301716 -4.000686 37,000 212 414 0
2022-06-29 16:19:04 GMT 48.309772 -3.993386 37,000 212 414 0
2022-06-29 16:19:01 GMT 48.313869 -3.989700 37,000 212 415 0
2022-06-29 16:18:58 GMT 48.318291 -3.985652 37,000 212 415 0
2022-06-29 16:18:55 GMT 48.323689 -3.980809 37,000 212 415 0
2022-06-29 16:18:52 GMT 48.331696 -3.973509 37,000 212 414 64
2022-06-29 16:18:47 GMT 48.335632 -3.969938 37,000 212 414 0
2022-06-29 16:18:42 GMT 48.343197 -3.963101 37,000 212 415 0
2022-06-29 16:18:40 GMT 48.347294 -3.959415 37,000 212 415 0
2022-06-29 16:18:37 GMT 48.360397 -3.947543 37,000 212 415 -64
2022-06-29 16:18:32 GMT 48.364983 -3.943369 37,000 212 415 -64
2022-06-29 16:18:30 GMT 48.364983 -3.943369 37,000 212 415 0
2022-06-29 16:18:27 GMT 48.369404 -3.939321 37,000 212 415 0
2022-06-29 16:18:23 GMT 48.376156 -3.933250 37,000 212 415 0
2022-06-29 16:18:20 GMT 48.380402 -3.929373 37,000 212 415 0
2022-06-29 16:18:17 GMT 48.384842 -3.925359 37,000 212 415 0
2022-06-29 16:18:14 GMT 48.391376 -3.919373 37,000 212 415 0
2022-06-29 16:18:11 GMT 48.396973 -3.914302 37,000 212 415 0
2022-06-29 16:18:07 GMT 48.401897 -3.909832 37,000 212 415 0
2022-06-29 16:18:03 GMT 48.409103 -3.903245 37,000 212 415 0
2022-06-29 16:18:00 GMT 48.413223 -3.899513 37,000 212 415 0
2022-06-29 16:17:57 GMT 48.419586 -3.893738 37,000 212 415 0
2022-06-29 16:17:53 GMT 48.425827 -3.888076 37,000 212 415 0
2022-06-29 16:17:51 GMT 48.429108 -3.885075 37,000 212 415 0
2022-06-29 16:17:48 GMT 48.432575 -3.881932 37,000 212 415 0
2022-06-29 16:17:45 GMT 48.436844 -3.878033 37,000 212 415 0
2022-06-29 16:17:42 GMT 48.442886 -3.872540 37,000 212 415 0
2022-06-29 16:17:39 GMT 48.449940 -3.866103 37,000 212 415 0
2022-06-29 16:17:36 GMT 48.453552 -3.862821 37,000 212 414 0
2022-06-29 16:17:33 GMT 48.458275 -3.858442 37,000 212 414 0
2022-06-29 16:17:30 GMT 48.464649 -3.852660 37,000 212 415 0
2022-06-29 16:17:27 GMT 48.467770 -3.849768 37,000 212 415 0
2022-06-29 16:17:24 GMT 48.471725 -3.846130 37,000 212 415 0
2022-06-29 16:17:20 GMT 48.479546 -3.838927 37,000 212 416 64
2022-06-29 16:17:17 GMT 48.483971 -3.834807 37,000 212 417 0
2022-06-29 16:17:12 GMT 48.492165 -3.827218 37,000 212 417 0
2022-06-29 16:17:09 GMT 48.497726 -3.822045 37,000 212 417 -64
2022-06-29 16:17:02 GMT 48.512833 -3.807919 37,000 212 419 0
2022-06-29 16:16:57 GMT 48.516953 -3.804087 37,000 212 419 0
2022-06-29 16:16:51 GMT 48.525879 -3.795847 37,000 212 420 0
2022-06-29 16:16:49 GMT 48.530319 -3.791692 37,000 212 421 -64
2022-06-29 16:16:46 GMT 48.534153 -3.788187 37,000 212 421 0
2022-06-29 16:16:40 GMT 48.550259 -3.773298 37,000 212 423 0
2022-06-29 16:16:37 GMT 48.550259 -3.773298 37,000 212 423 0
2022-06-29 16:16:33 GMT 48.556778 -3.767299 37,000 212 423 0
2022-06-29 16:16:31 GMT 48.566620 -3.758240 37,000 212 424 -64
2022-06-29 16:16:27 GMT 48.566620 -3.758240 37,000 212 424 0
2022-06-29 16:16:24 GMT 48.572605 -3.752698 37,000 212 424 0
2022-06-29 16:16:21 GMT 48.576794 -3.748868 37,000 212 424 -64
2022-06-29 16:16:19 GMT 48.579117 -3.746690 37,000 212 424 -64
2022-06-29 16:16:16 GMT 48.584801 -3.741423 37,000 212 424 0
2022-06-29 16:16:11 GMT 48.593040 -3.733834 37,000 212 425 -64
2022-06-29 16:16:09 GMT 48.597881 -3.729352 36,925 212 423 384
2022-06-29 16:16:06 GMT 48.601227 -3.726267 37,025 212 424 -64
2022-06-29 16:16:03 GMT 48.607407 -3.720562 37,025 212 424 -128
2022-06-29 16:16:00 GMT 48.612782 -3.715620 37,025 212 424 0
2022-06-29 16:15:55 GMT 48.620636 -3.708379 37,000 212 424 320
2022-06-29 16:15:53 GMT 48.623657 -3.705632 36,800 212 424 320
2022-06-29 16:15:51 GMT 48.626999 -3.702533 36,975 212 424 320
2022-06-29 16:15:48 GMT 48.634003 -3.696054 36,975 212 424 320
2022-06-29 16:15:45 GMT 48.636520 -3.693719 36,950 212 424 320
2022-06-29 16:15:41 GMT 48.644573 -3.686347 36,925 212 424 320
2022-06-29 16:15:39 GMT 48.647049 -3.684012 36,925 212 423 384
2022-06-29 16:15:35 GMT 48.653606 -3.678035 36,900 212 423 384
2022-06-29 16:15:33 GMT 48.657608 -3.674349 36,875 212 423 384
2022-06-29 16:15:29 GMT 48.663300 -3.669152 36,850 212 423 384
2022-06-29 16:15:26 GMT 48.669983 -3.663025 36,850 212 423 448
2022-06-29 16:15:20 GMT 48.683716 -3.650489 36,775 212 423 384
2022-06-29 16:15:18 GMT 48.683716 -3.650489 36,775 212 423 384
2022-06-29 16:15:15 GMT 48.686371 -3.648024 36,725 212 421 128
2022-06-29 16:15:13 GMT 48.690056 -3.644642 36,725 212 421 128
2022-06-29 16:15:10 GMT 48.694897 -3.640233 36,750 212 421 128
2022-06-29 16:15:07 GMT 48.705505 -3.630418 36,675 212 418 384
2022-06-29 16:15:04 GMT 48.712307 -3.624187 36,675 212 418 384
2022-06-29 16:15:00 GMT 48.712307 -3.624187 36,700 212 420 320
2022-06-29 16:14:58 GMT 48.714638 -3.622091 36,700 212 419 256
2022-06-29 16:14:55 GMT 48.725052 -3.612460 36,675 212 418 384
2022-06-29 16:14:53 GMT 48.725052 -3.612460 36,675 212 418 384
2022-06-29 16:14:49 GMT 48.735119 -3.603154 36,625 212 418 512
2022-06-29 16:14:46 GMT 48.735119 -3.603154 36,625 212 418 512
2022-06-29 16:14:43 GMT 48.741714 -3.597037 36,550 212 418 512
2022-06-29 16:14:39 GMT 48.747314 -3.591807 36,550 212 417 320
2022-06-29 16:14:37 GMT 48.750412 -3.588938 36,525 212 417 320
2022-06-29 16:14:33 GMT 48.756672 -3.583133 36,525 212 417 384
2022-06-29 16:14:29 GMT 48.762268 -3.577951 36,500 212 417 512
2022-06-29 16:14:27 GMT 48.767349 -3.573233 36,475 212 417 512
2022-06-29 16:14:24 GMT 48.771618 -3.569256 36,450 212 416 512
2022-06-29 16:14:22 GMT 48.774410 -3.566654 36,450 212 416 448
2022-06-29 16:14:18 GMT 48.780991 -3.560556 36,400 212 416 512
2022-06-29 16:14:15 GMT 48.787537 -3.554439 36,375 212 416 384
2022-06-29 16:14:12 GMT 48.791473 -3.550767 36,350 212 415 128
2022-06-29 16:14:09 GMT 48.795227 -3.547316 36,350 212 415 192
2022-06-29 16:14:07 GMT 48.800629 -3.542246 36,325 212 415 192
2022-06-29 16:14:04 GMT 48.803925 -3.539217 36,325 212 415 256
2022-06-29 16:14:01 GMT 48.808483 -3.534996 36,325 212 414 512
2022-06-29 16:13:58 GMT 48.814041 -3.529780 36,275 212 414 448
2022-06-29 16:13:55 GMT 48.823837 -3.520696 36,250 212 414 512
2022-06-29 16:13:52 GMT 48.823837 -3.520696 36,225 212 414 576
2022-06-29 16:13:47 GMT 48.832306 -3.512738 36,150 212 414 704
2022-06-29 16:13:44 GMT 48.837814 -3.507602 36,125 212 414 704
2022-06-29 16:13:42 GMT 48.840748 -3.504856 36,125 212 414 768
2022-06-29 16:13:38 GMT 48.846100 -3.499796 36,075 212 414 704
2022-06-29 16:13:35 GMT 48.857830 -3.488810 36,025 212 413 512
2022-06-29 16:13:31 GMT 48.857830 -3.488810 36,000 212 413 512
2022-06-29 16:13:28 GMT 48.862717 -3.484256 35,975 212 413 576
2022-06-29 16:13:26 GMT 48.867607 -3.479703 35,950 212 413 768
2022-06-29 16:13:23 GMT 48.870850 -3.476680 35,925 212 413 896
2022-06-29 16:13:21 GMT 48.874603 -3.473229 35,800 212 414 960
2022-06-29 16:13:18 GMT 48.878826 -3.469294 35,800 212 414 1024
2022-06-29 16:13:16 GMT 48.882408 -3.465897 35,800 212 414 960
2022-06-29 16:13:13 GMT 48.887283 -3.461327 35,750 212 414 960
2022-06-29 16:13:08 GMT 48.895958 -3.453321 35,650 212 415 832
2022-06-29 16:13:05 GMT 48.904430 -3.445370 35,625 212 415 704
2022-06-29 16:13:02 GMT 48.910156 -3.440022 35,575 212 415 768
2022-06-29 16:12:57 GMT 48.914253 -3.436263 35,475 212 415 832
2022-06-29 16:12:55 GMT 48.916534 -3.434095 35,475 212 415 704
2022-06-29 16:12:52 GMT 48.920792 -3.430129 35,475 212 415 704
2022-06-29 16:12:50 GMT 48.930908 -3.420692 35,425 212 415 704
2022-06-29 16:12:47 GMT 48.930908 -3.420692 35,400 212 415 704
2022-06-29 16:12:44 GMT 48.938232 -3.413861 35,375 212 415 576
2022-06-29 16:12:42 GMT 48.938232 -3.413861 35,375 212 415 576
2022-06-29 16:12:37 GMT 48.945908 -3.406774 35,325 212 413 384
2022-06-29 16:12:34 GMT 48.951305 -3.401786 35,300 212 412 256
2022-06-29 16:12:31 GMT 48.955032 -3.398297 35,300 212 411 128
2022-06-29 16:12:28 GMT 48.961212 -3.392522 35,250 212 410 256
2022-06-29 16:12:26 GMT 48.964142 -3.389846 35,275 212 410 128
2022-06-29 16:12:23 GMT 48.969131 -3.385127 35,225 212 410 960
2022-06-29 16:12:20 GMT 48.974121 -3.380479 35,225 212 410 768
2022-06-29 16:12:17 GMT 48.977703 -3.377139 35,175 212 410 1216
2022-06-29 16:12:14 GMT 48.983185 -3.371958 35,050 212 411 960
2022-06-29 16:12:11 GMT 48.988316 -3.367093 35,075 212 411 832
2022-06-29 16:12:09 GMT 48.992523 -3.363154 35,050 212 410 448
2022-06-29 16:12:06 GMT 48.997860 -3.358130 35,025 212 410 128
2022-06-29 16:12:02 GMT 49.006844 -3.349601 35,025 212 408 192
2022-06-29 16:11:59 GMT 49.006844 -3.349601 35,000 212 408 192
2022-06-29 16:11:56 GMT 49.011826 -3.344903 35,000 212 407 64
2022-06-29 16:11:54 GMT 49.016479 -3.340567 35,000 212 406 0
2022-06-29 16:11:51 GMT 49.024769 -3.332760 35,000 212 405 0
2022-06-29 16:11:46 GMT 49.027653 -3.330014 35,000 212 405 0
2022-06-29 16:11:44 GMT 49.031658 -3.326255 35,000 212 405 0
2022-06-29 16:11:41 GMT 49.043110 -3.315486 35,000 212 405 0
2022-06-29 16:11:37 GMT 49.046585 -3.312167 35,000 212 405 0
2022-06-29 16:11:34 GMT 49.046585 -3.312167 35,000 212 405 0
2022-06-29 16:11:31 GMT 49.052605 -3.306451 35,000 212 403 0
2022-06-29 16:11:27 GMT 49.060566 -3.298934 35,000 212 403 0
2022-06-29 16:11:24 GMT 49.062752 -3.296838 35,000 212 403 0
2022-06-29 16:11:21 GMT 49.077835 -3.282671 35,000 212 402 0
2022-06-29 16:11:15 GMT 49.077835 -3.282671 35,000 212 403 0
2022-06-29 16:11:12 GMT 49.082245 -3.278503 35,000 212 403 0
2022-06-29 16:11:06 GMT 49.092220 -3.269083 35,000 212 402 0
2022-06-29 16:11:03 GMT 49.098087 -3.263518 35,000 212 402 0
2022-06-29 16:11:00 GMT 49.100739 -3.260988 35,000 212 402 0
2022-06-29 16:10:56 GMT 49.108189 -3.253977 35,000 212 402 0
2022-06-29 16:10:53 GMT 49.112915 -3.249488 35,000 212 401 -64
2022-06-29 16:10:50 GMT 49.116714 -3.245967 35,000 212 401 -64
2022-06-29 16:10:47 GMT 49.122108 -3.240895 35,000 212 401 -64
2022-06-29 16:10:44 GMT 49.131729 -3.231812 35,000 212 401 0
2022-06-29 16:10:41 GMT 49.136448 -3.227378 35,000 212 401 0
2022-06-29 16:10:38 GMT 49.136448 -3.227378 35,000 212 401 0
2022-06-29 16:10:35 GMT 49.140404 -3.223692 35,000 212 401 0
2022-06-29 16:10:33 GMT 49.144360 -3.219934 35,000 212 401 -64
2022-06-29 16:10:30 GMT 49.149078 -3.215473 35,000 212 401 0
2022-06-29 16:10:25 GMT 49.159489 -3.205695 35,000 212 401 64
2022-06-29 16:10:20 GMT 49.164688 -3.200754 35,000 213 401 64
2022-06-29 16:10:16 GMT 49.169868 -3.195793 35,000 213 401 0
2022-06-29 16:10:14 GMT 49.173340 -3.192514 35,000 213 401 64
2022-06-29 16:10:11 GMT 49.179276 -3.186830 35,000 213 401 0
2022-06-29 16:10:06 GMT 49.187302 -3.179133 35,000 212 400 -64
2022-06-29 16:10:04 GMT 49.189499 -3.177091 35,000 212 400 0
2022-06-29 16:10:01 GMT 49.199249 -3.167795 35,000 212 400 0
2022-06-29 16:09:58 GMT 49.199249 -3.167795 35,000 212 400 64
2022-06-29 16:09:55 GMT 49.203964 -3.163358 35,000 212 400 0
2022-06-29 16:09:53 GMT 49.206802 -3.160682 35,000 212 400 64
2022-06-29 16:09:50 GMT 49.211975 -3.155752 35,000 212 400 0
2022-06-29 16:09:47 GMT 49.215591 -3.152301 35,000 212 400 0
2022-06-29 16:09:45 GMT 49.220306 -3.147865 35,000 212 400 0
2022-06-29 16:09:42 GMT 49.224056 -3.144258 35,000 212 400 -64
2022-06-29 16:09:39 GMT 49.228134 -3.140400 35,000 212 400 -64
2022-06-29 16:09:37 GMT 49.231133 -3.137536 35,000 212 400 0
2022-06-29 16:09:34 GMT 49.235825 -3.133075 35,000 212 400 0
2022-06-29 16:09:32 GMT 49.239120 -3.129977 35,000 212 400 0
2022-06-29 16:09:30 GMT 49.243698 -3.125681 35,000 212 400 0
2022-06-29 16:09:27 GMT 49.246960 -3.122502 35,000 212 400 0
2022-06-29 16:09:25 GMT 49.254177 -3.115708 35,000 212 400 0
2022-06-29 16:09:23 GMT 49.254177 -3.115708 35,000 212 400 0
2022-06-29 16:09:20 GMT 49.263115 -3.107179 35,000 212 400 0
2022-06-29 16:09:17 GMT 49.268002 -3.102626 35,000 212 399 0
2022-06-29 16:09:14 GMT 49.268002 -3.102626 35,000 212 399 0
2022-06-29 16:09:12 GMT 49.272079 -3.098708 35,000 212 399 0
2022-06-29 16:09:09 GMT 49.275375 -3.095609 35,000 212 399 0
2022-06-29 16:09:07 GMT 49.278801 -3.092362 35,000 212 398 0
2022-06-29 16:09:04 GMT 49.283691 -3.087736 35,000 212 399 0
2022-06-29 16:09:02 GMT 49.287415 -3.084195 35,000 212 399 0
2022-06-29 16:09:00 GMT 49.290722 -3.081087 35,000 212 398 0
2022-06-29 16:08:57 GMT 49.299637 -3.072651 35,000 212 398 0
2022-06-29 16:08:54 GMT 49.304214 -3.068284 35,000 212 399 0
2022-06-29 16:08:51 GMT 49.306221 -3.066342 35,000 212 399 0
2022-06-29 16:08:46 GMT 49.312180 -3.060749 35,000 212 398 0
2022-06-29 16:08:44 GMT 49.315624 -3.057452 35,000 212 398 0
2022-06-29 16:08:42 GMT 49.317947 -3.055185 35,000 212 398 0
2022-06-29 16:08:39 GMT 49.323586 -3.049863 35,000 212 398 0
2022-06-29 16:08:37 GMT 49.326050 -3.047438 35,000 212 398 -64
2022-06-29 16:08:34 GMT 49.331223 -3.042509 35,000 213 397 -64
2022-06-29 16:08:31 GMT 49.335083 -3.038804 35,000 213 397 0
2022-06-29 16:08:28 GMT 49.340881 -3.033283 35,000 213 397 0
2022-06-29 16:08:25 GMT 49.345230 -3.029128 35,000 213 397 0
2022-06-29 16:08:23 GMT 49.347095 -3.027312 35,000 213 397 0
2022-06-29 16:08:21 GMT 49.350212 -3.024348 35,000 212 397 64
2022-06-29 16:08:18 GMT 49.355801 -3.019000 35,000 212 397 64
2022-06-29 16:08:15 GMT 49.359970 -3.014972 35,000 212 397 64
2022-06-29 16:08:13 GMT 49.362946 -3.012155 35,000 212 397 64
2022-06-29 16:08:10 GMT 49.371815 -3.003677 35,000 212 397 0
2022-06-29 16:08:08 GMT 49.371815 -3.003677 35,000 212 397 0
2022-06-29 16:08:05 GMT 49.375534 -3.000113 35,000 212 397 0
2022-06-29 16:08:03 GMT 49.380203 -2.995676 35,000 213 396 0
2022-06-29 16:08:00 GMT 49.383636 -2.992401 35,000 213 396 0
2022-06-29 16:07:58 GMT 49.388626 -2.987647 35,000 212 397 0
2022-06-29 16:07:55 GMT 49.391876 -2.984549 35,000 213 396 0
2022-06-29 16:07:53 GMT 49.394348 -2.982154 35,000 213 396 0
2022-06-29 16:07:50 GMT 49.399155 -2.977577 35,000 213 396 0
2022-06-29 16:07:47 GMT 49.404007 -2.972929 35,000 213 396 0
2022-06-29 16:07:45 GMT 49.407379 -2.969706 35,000 213 396 0
2022-06-29 16:07:42 GMT 49.412338 -2.964971 35,000 213 396 0
2022-06-29 16:07:39 GMT 49.415295 -2.962116 35,000 213 395 0
2022-06-29 16:07:37 GMT 49.418877 -2.958719 35,000 213 395 0
2022-06-29 16:07:35 GMT 49.422592 -2.955111 35,000 213 395 0
2022-06-29 16:07:31 GMT 49.428635 -2.949323 35,000 213 395 0
2022-06-29 16:07:29 GMT 49.432331 -2.945746 35,000 213 395 0
2022-06-29 16:07:25 GMT 49.438522 -2.939782 35,000 213 395 0
2022-06-29 16:07:21 GMT 49.444389 -2.934166 35,000 213 395 0
2022-06-29 16:07:19 GMT 49.451202 -2.927567 35,000 213 394 0
2022-06-29 16:07:16 GMT 49.451202 -2.927567 35,000 213 394 0
2022-06-29 16:07:14 GMT 49.455189 -2.923774 35,000 213 394 0
2022-06-29 16:07:11 GMT 49.462173 -2.917093 35,000 213 394 0
2022-06-29 16:07:07 GMT 49.472168 -2.907402 35,000 213 391 0
2022-06-29 16:07:03 GMT 49.472168 -2.907402 35,000 213 393 64
2022-06-29 16:07:00 GMT 49.475857 -2.903880 35,000 213 391 64
2022-06-29 16:06:58 GMT 49.479675 -2.900168 35,000 213 391 0
2022-06-29 16:06:54 GMT 49.485355 -2.894749 35,000 213 391 0
2022-06-29 16:06:52 GMT 49.490429 -2.889850 35,000 213 391 0
2022-06-29 16:06:49 GMT 49.495331 -2.885140 35,000 213 391 0
2022-06-29 16:06:46 GMT 49.498535 -2.882032 35,000 213 391 0
2022-06-29 16:06:44 GMT 49.500092 -2.880586 35,000 213 391 0
2022-06-29 16:06:42 GMT 49.503891 -2.876900 35,000 213 390 0
2022-06-29 16:06:39 GMT 49.507885 -2.873073 35,000 213 390 0
2022-06-29 16:06:36 GMT 49.512634 -2.868545 35,000 213 390 -64
2022-06-29 16:06:34 GMT 49.517056 -2.864240 35,000 213 390 -64
2022-06-29 16:06:32 GMT 49.522110 -2.859409 35,000 213 390 -64
2022-06-29 16:06:30 GMT 49.522110 -2.859409 35,000 213 389 0
2022-06-29 16:06:28 GMT 49.525909 -2.855723 35,000 213 389 -64
2022-06-29 16:06:25 GMT 49.530510 -2.851323 35,000 213 389 0
2022-06-29 16:06:22 GMT 49.534744 -2.847194 35,000 213 389 0
2022-06-29 16:06:19 GMT 49.543900 -2.838376 35,000 213 389 64
2022-06-29 16:06:17 GMT 49.543900 -2.838376 35,000 213 389 0
2022-06-29 16:06:14 GMT 49.550297 -2.832171 35,000 213 389 0
2022-06-29 16:06:12 GMT 49.550297 -2.832171 35,000 213 389 64
2022-06-29 16:06:10 GMT 49.553375 -2.829269 35,000 213 389 64
2022-06-29 16:06:08 GMT 49.554565 -2.828112 35,000 213 389 64
2022-06-29 16:06:06 GMT 49.558537 -2.824303 35,000 213 389 64
2022-06-29 16:06:04 GMT 49.562027 -2.820888 35,000 213 389 64
2022-06-29 16:06:02 GMT 49.564167 -2.818884 35,000 213 389 0
2022-06-29 16:05:59 GMT 49.569809 -2.813440 35,000 213 389 0
2022-06-29 16:05:56 GMT 49.574066 -2.809320 35,000 213 388 0
2022-06-29 16:05:53 GMT 49.578320 -2.805151 35,000 213 388 0
2022-06-29 16:05:51 GMT 49.581345 -2.802236 35,000 213 388 0
2022-06-29 16:05:49 GMT 49.587723 -2.796095 35,000 213 388 0
2022-06-29 16:05:44 GMT 49.592926 -2.791106 35,000 213 388 0
2022-06-29 16:05:42 GMT 49.595963 -2.788152 35,000 213 388 0
2022-06-29 16:05:39 GMT 49.600384 -2.783921 35,000 213 388 0
2022-06-29 16:05:36 GMT 49.605972 -2.778502 35,000 213 388 0
2022-06-29 16:05:33 GMT 49.609509 -2.775161 35,000 213 388 0
2022-06-29 16:05:31 GMT 49.612061 -2.772602 35,000 213 388 0
2022-06-29 16:05:29 GMT 49.618469 -2.766459 35,000 213 388 0
2022-06-29 16:05:27 GMT 49.618469 -2.766459 35,000 213 388 0
2022-06-29 16:05:24 GMT 49.623184 -2.761905 35,000 213 388 0
2022-06-29 16:05:22 GMT 49.626068 -2.759158 35,000 213 388 0
2022-06-29 16:05:19 GMT 49.634262 -2.751208 35,000 213 388 0
2022-06-29 16:05:16 GMT 49.634262 -2.751208 35,000 213 388 0
2022-06-29 16:05:13 GMT 49.639118 -2.746508 35,000 213 387 0
2022-06-29 16:05:10 GMT 49.643028 -2.742722 35,000 213 387 64
2022-06-29 16:05:08 GMT 49.647125 -2.738788 35,000 213 387 0
2022-06-29 16:05:05 GMT 49.651546 -2.734482 35,000 213 387 0
2022-06-29 16:05:03 GMT 49.654247 -2.731810 35,000 213 387 0
2022-06-29 16:05:00 GMT 49.659576 -2.726705 35,000 213 387 0
2022-06-29 16:04:58 GMT 49.666210 -2.720155 35,000 213 387 0
2022-06-29 16:04:55 GMT 49.666210 -2.720155 35,000 213 387 0
2022-06-29 16:04:53 GMT 49.669563 -2.716963 35,000 213 387 0
2022-06-29 16:04:51 GMT 49.673656 -2.712955 35,000 213 387 0
2022-06-29 16:04:48 GMT 49.682281 -2.704588 35,000 213 387 0
2022-06-29 16:04:45 GMT 49.682281 -2.704588 35,000 213 387 0
2022-06-29 16:04:43 GMT 49.685165 -2.701769 35,000 213 387 64
2022-06-29 16:04:40 GMT 49.688511 -2.698554 35,000 213 387 0
2022-06-29 16:04:38 GMT 49.692307 -2.694831 35,000 213 387 0
2022-06-29 16:04:35 GMT 49.697910 -2.689423 35,000 213 387 0
2022-06-29 16:04:33 GMT 49.700008 -2.687345 35,000 213 387 0
2022-06-29 16:04:30 GMT 49.705315 -2.682223 35,000 213 387 0
2022-06-29 16:04:28 GMT 49.706989 -2.680590 35,000 213 387 0
2022-06-29 16:04:26 GMT 49.710621 -2.677027 35,000 213 387 0
2022-06-29 16:04:23 GMT 49.715195 -2.672641 35,000 213 387 0
2022-06-29 16:04:20 GMT 49.719543 -2.668377 35,000 213 387 0
2022-06-29 16:04:18 GMT 49.722584 -2.665372 35,000 213 387 64
2022-06-29 16:04:15 GMT 49.727737 -2.660426 35,000 213 387 0
2022-06-29 16:04:13 GMT 49.729706 -2.658469 35,000 213 387 0
2022-06-29 16:04:11 GMT 49.734558 -2.653776 35,000 213 387 0
2022-06-29 16:04:08 GMT 49.738632 -2.649801 35,000 213 387 0
2022-06-29 16:04:06 GMT 49.740925 -2.647557 35,000 213 387 0
2022-06-29 16:04:03 GMT 49.748154 -2.640477 35,000 213 387 0
2022-06-29 16:04:01 GMT 49.748154 -2.640477 35,000 213 387 0
2022-06-29 16:03:58 GMT 49.753777 -2.635011 35,000 213 387 0
2022-06-29 16:03:55 GMT 49.757404 -2.631448 35,000 213 387 0
2022-06-29 16:03:52 GMT 49.766968 -2.622191 35,000 213 387 0
2022-06-29 16:03:49 GMT 49.766968 -2.622191 35,000 213 387 0
2022-06-29 16:03:45 GMT 49.773468 -2.615830 35,000 213 387 0
2022-06-29 16:03:42 GMT 49.776672 -2.612722 35,000 213 388 0
2022-06-29 16:03:40 GMT 49.781067 -2.608458 35,000 213 388 0
2022-06-29 16:03:37 GMT 49.785011 -2.604651 35,000 213 388 0
2022-06-29 16:03:34 GMT 49.791367 -2.598483 35,000 213 388 0
2022-06-29 16:03:32 GMT 49.791367 -2.598483 35,000 213 388 0
2022-06-29 16:03:30 GMT 49.796230 -2.593738 35,000 213 388 0
2022-06-29 16:03:28 GMT 49.798790 -2.591289 35,000 213 388 0
2022-06-29 16:03:26 GMT 49.800934 -2.589210 35,000 213 388 0
2022-06-29 16:03:24 GMT 49.803818 -2.586389 35,000 213 388 0
2022-06-29 16:03:22 GMT 49.807617 -2.582727 35,000 213 388 0
2022-06-29 16:03:19 GMT 49.811871 -2.578595 35,000 213 387 0
2022-06-29 16:03:17 GMT 49.815170 -2.575354 35,000 213 388 0
2022-06-29 16:03:13 GMT 49.824440 -2.566273 35,000 213 388 0
2022-06-29 16:03:11 GMT 49.824440 -2.566273 35,000 213 388 0
2022-06-29 16:03:08 GMT 49.833984 -2.556923 35,000 213 388 0
2022-06-29 16:03:05 GMT 49.833984 -2.556923 35,000 213 388 0
2022-06-29 16:03:02 GMT 49.838223 -2.552837 35,000 213 389 0
2022-06-29 16:02:59 GMT 49.845947 -2.545265 35,000 213 389 0
2022-06-29 16:02:57 GMT 49.845947 -2.545265 35,000 213 389 0
2022-06-29 16:02:54 GMT 49.849766 -2.541553 35,000 213 389 64
2022-06-29 16:02:52 GMT 49.853535 -2.537842 35,000 213 390 0
2022-06-29 16:02:49 GMT 49.857056 -2.534372 35,000 213 389 0
2022-06-29 16:02:47 GMT 49.860260 -2.531264 35,000 213 389 0
2022-06-29 16:02:44 GMT 49.864334 -2.527301 35,000 213 389 0
2022-06-29 16:02:42 GMT 49.868759 -2.522921 35,000 213 389 0
2022-06-29 16:02:39 GMT 49.874065 -2.517725 35,000 213 390 0
2022-06-29 16:02:36 GMT 49.878021 -2.513845 35,000 213 390 0
2022-06-29 16:02:33 GMT 49.882736 -2.509220 35,000 213 390 0
2022-06-29 16:02:31 GMT 49.885803 -2.506256 35,000 213 390 0
2022-06-29 16:02:28 GMT 49.889755 -2.502359 35,000 213 390 -64
2022-06-29 16:02:26 GMT 49.892166 -2.499968 35,000 213 390 0
2022-06-29 16:02:24 GMT 49.899948 -2.492379 35,000 213 390 0
2022-06-29 16:02:22 GMT 49.899948 -2.492379 35,000 213 390 0
2022-06-29 16:02:19 GMT 49.903473 -2.488982 35,000 213 390 0
2022-06-29 16:02:16 GMT 49.908001 -2.484469 35,000 213 390 0
2022-06-29 16:02:13 GMT 49.912426 -2.480164 35,000 213 390 64
2022-06-29 16:02:11 GMT 49.915329 -2.477345 35,000 213 390 0
2022-06-29 16:02:08 GMT 49.920685 -2.472068 35,000 213 390 0
2022-06-29 16:02:05 GMT 49.924484 -2.468382 35,000 213 391 0
2022-06-29 16:02:02 GMT 49.932266 -2.460721 35,000 213 391 0
2022-06-29 16:01:58 GMT 49.935329 -2.457746 35,000 213 391 0
2022-06-29 16:01:55 GMT 49.947372 -2.445976 35,000 213 391 0
2022-06-29 16:01:51 GMT 49.947372 -2.445976 35,000 213 391 0
2022-06-29 16:01:48 GMT 49.951218 -2.442217 35,000 213 391 0
2022-06-29 16:01:46 GMT 49.953812 -2.439707 35,000 213 391 0
2022-06-29 16:01:43 GMT 49.958233 -2.435327 35,000 213 391 0
2022-06-29 16:01:41 GMT 49.961288 -2.432315 35,000 213 391 0
2022-06-29 16:01:38 GMT 49.965263 -2.428424 35,000 213 391 0
2022-06-29 16:01:36 GMT 49.968006 -2.425752 35,000 213 391 0
2022-06-29 16:01:34 GMT 49.975204 -2.418655 35,000 213 393 0
2022-06-29 16:01:32 GMT 49.975204 -2.418655 35,000 213 391 0
2022-06-29 16:01:30 GMT 49.977676 -2.416269 35,000 213 391 0
2022-06-29 16:01:28 GMT 49.981647 -2.412316 35,000 213 393 0
2022-06-29 16:01:26 GMT 49.986397 -2.407639 35,000 213 393 0
2022-06-29 16:01:23 GMT 49.988663 -2.405428 35,000 213 393 0
2022-06-29 16:01:21 GMT 49.992188 -2.401958 35,000 213 393 0
2022-06-29 16:01:18 GMT 49.998920 -2.395316 35,000 213 392 0
2022-06-29 16:01:16 GMT 49.998920 -2.395316 35,000 213 393 0
2022-06-29 16:01:13 GMT 50.004925 -2.389378 35,000 213 393 0
2022-06-29 16:01:11 GMT 50.007523 -2.386780 35,000 213 393 0
2022-06-29 16:01:08 GMT 50.014839 -2.379505 35,000 213 393 0
2022-06-29 16:01:06 GMT 50.019730 -2.374680 35,000 213 393 0
2022-06-29 16:01:03 GMT 50.019730 -2.374680 35,000 213 393 0
2022-06-29 16:01:01 GMT 50.022675 -2.371818 35,000 213 393 0
2022-06-29 16:00:58 GMT 50.027710 -2.366759 35,000 213 393 0
2022-06-29 16:00:55 GMT 50.031693 -2.362803 35,000 213 393 0
2022-06-29 16:00:52 GMT 50.037327 -2.357161 35,000 213 393 0
2022-06-29 16:00:50 GMT 50.039791 -2.354712 35,000 213 393 0
2022-06-29 16:00:47 GMT 50.043457 -2.351074 35,000 213 393 0
2022-06-29 16:00:45 GMT 50.052658 -2.341967 35,000 213 393 0
2022-06-29 16:00:42 GMT 50.054642 -2.339939 35,000 213 393 0
2022-06-29 16:00:38 GMT 50.058609 -2.335968 35,000 213 393 0
2022-06-29 16:00:36 GMT 50.059994 -2.334595 35,000 213 393 0
2022-06-29 16:00:34 GMT 50.067627 -2.326933 35,000 213 393 0
2022-06-29 16:00:31 GMT 50.067627 -2.326933 35,000 213 393 0
2022-06-29 16:00:29 GMT 50.070831 -2.323753 35,000 213 393 0
2022-06-29 16:00:26 GMT 50.076187 -2.318404 35,000 213 393 0
2022-06-29 16:00:24 GMT 50.078339 -2.316259 35,000 213 393 0
2022-06-29 16:00:21 GMT 50.084297 -2.310321 35,000 213 393 0
2022-06-29 16:00:19 GMT 50.087181 -2.307426 35,000 213 393 0
2022-06-29 16:00:16 GMT 50.091797 -2.302792 35,000 213 393 0
2022-06-29 16:00:14 GMT 50.094864 -2.299757 35,000 213 393 0
2022-06-29 16:00:12 GMT 50.096970 -2.297660 35,000 213 393 0
2022-06-29 16:00:10 GMT 50.101135 -2.293541 35,000 213 393 0
2022-06-29 16:00:07 GMT 50.104176 -2.290501 35,000 213 393 0
2022-06-29 16:00:05 GMT 50.109100 -2.285590 35,000 213 393 0
2022-06-29 16:00:02 GMT 50.113220 -2.281542 35,000 213 393 64
2022-06-29 16:00:00 GMT 50.115372 -2.279374 35,000 213 393 64
2022-06-29 15:59:58 GMT 50.118465 -2.276397 35,000 213 393 64
2022-06-29 15:59:56 GMT 50.125031 -2.269864 35,000 213 393 64
2022-06-29 15:59:54 GMT 50.125031 -2.269864 35,000 213 392 0
2022-06-29 15:59:51 GMT 50.130569 -2.264485 35,000 213 393 -64
2022-06-29 15:59:49 GMT 50.132721 -2.262316 35,000 213 392 0
2022-06-29 15:59:46 GMT 50.137161 -2.257980 35,000 213 392 0
2022-06-29 15:59:44 GMT 50.142113 -2.253162 35,000 213 392 0
2022-06-29 15:59:41 GMT 50.145447 -2.249812 35,000 213 393 128
2022-06-29 15:59:39 GMT 50.149933 -2.245475 35,000 213 393 0
2022-06-29 15:59:36 GMT 50.152954 -2.242440 35,000 213 393 0
2022-06-29 15:59:33 GMT 50.157394 -2.238031 35,000 213 392 0
2022-06-29 15:59:31 GMT 50.161385 -2.234085 35,000 213 392 -64
2022-06-29 15:59:29 GMT 50.163528 -2.231932 35,000 213 392 0
2022-06-29 15:59:27 GMT 50.166740 -2.228740 35,000 213 392 0
2022-06-29 15:59:25 GMT 50.169952 -2.225548 35,000 213 391 0
2022-06-29 15:59:22 GMT 50.175587 -2.219981 35,000 213 392 -64
2022-06-29 15:59:19 GMT 50.179867 -2.215675 35,000 213 391 0
2022-06-29 15:59:16 GMT 50.183357 -2.212186 35,000 213 391 0
2022-06-29 15:59:13 GMT 50.189037 -2.206619 35,000 213 391 0
2022-06-29 15:59:10 GMT 50.192810 -2.202833 35,000 213 391 0
2022-06-29 15:59:07 GMT 50.197083 -2.198567 35,000 213 391 0
2022-06-29 15:59:05 GMT 50.200287 -2.195386 35,000 213 391 0
2022-06-29 15:59:02 GMT 50.208218 -2.187541 35,000 213 391 0
2022-06-29 15:59:00 GMT 50.208218 -2.187541 35,000 213 391 0
2022-06-29 15:58:58 GMT 50.214500 -2.181380 35,000 213 391 0
2022-06-29 15:58:56 GMT 50.214500 -2.181380 35,000 213 391 64
2022-06-29 15:58:54 GMT 50.216782 -2.179079 35,000 213 391 -64
2022-06-29 15:58:52 GMT 50.220245 -2.175582 35,000 213 390 0
2022-06-29 15:58:49 GMT 50.224960 -2.170884 35,000 213 390 0
2022-06-29 15:58:46 GMT 50.229401 -2.166475 35,000 213 390 -64
2022-06-29 15:58:44 GMT 50.236221 -2.159681 35,000 213 390 0
2022-06-29 15:58:41 GMT 50.236221 -2.159681 35,000 213 390 0
2022-06-29 15:58:39 GMT 50.240662 -2.155272 35,000 213 390 0
2022-06-29 15:58:36 GMT 50.243690 -2.152281 35,000 213 390 0
2022-06-29 15:58:34 GMT 50.247482 -2.148478 35,000 213 390 0
2022-06-29 15:58:31 GMT 50.252628 -2.143299 35,000 213 390 0
2022-06-29 15:58:29 GMT 50.254166 -2.141828 35,000 213 390 0
2022-06-29 15:58:27 GMT 50.258286 -2.137708 35,000 213 390 0
2022-06-29 15:58:25 GMT 50.260544 -2.135430 35,000 213 390 0
2022-06-29 15:58:23 GMT 50.264359 -2.131645 35,000 213 390 0
2022-06-29 15:58:20 GMT 50.268269 -2.127710 35,000 213 390 0
2022-06-29 15:58:18 GMT 50.276791 -2.119174 35,000 213 390 0
2022-06-29 15:58:15 GMT 50.276791 -2.119174 35,000 213 390 0
2022-06-29 15:58:13 GMT 50.281952 -2.114001 35,000 213 390 0
2022-06-29 15:58:11 GMT 50.281952 -2.114001 35,000 213 390 0
2022-06-29 15:58:09 GMT 50.288612 -2.107371 35,000 213 390 0
2022-06-29 15:58:07 GMT 50.288612 -2.107371 35,000 213 390 0
2022-06-29 15:58:05 GMT 50.290291 -2.105663 35,000 213 390 0
2022-06-29 15:58:03 GMT 50.294666 -2.101284 35,000 213 390 0
2022-06-29 15:58:00 GMT 50.298798 -2.097160 35,000 213 390 0
2022-06-29 15:57:58 GMT 50.303326 -2.092599 35,000 213 390 0
2022-06-29 15:57:55 GMT 50.310913 -2.085027 35,000 213 390 0
2022-06-29 15:57:53 GMT 50.310913 -2.085027 35,000 213 390 0
2022-06-29 15:57:50 GMT 50.314865 -2.081042 35,000 213 390 0
2022-06-29 15:57:47 GMT 50.318642 -2.077233 35,000 213 390 0
2022-06-29 15:57:45 GMT 50.323017 -2.072779 35,000 213 390 0
2022-06-29 15:57:42 GMT 50.326080 -2.069766 35,000 213 390 0
2022-06-29 15:57:40 GMT 50.329533 -2.066246 35,000 213 390 0
2022-06-29 15:57:38 GMT 50.332581 -2.063261 35,000 213 390 0
2022-06-29 15:57:35 GMT 50.337891 -2.057913 35,000 213 390 0
2022-06-29 15:57:32 GMT 50.340893 -2.054815 35,000 213 390 0
2022-06-29 15:57:29 GMT 50.349701 -2.045987 35,000 213 390 0
2022-06-29 15:57:27 GMT 50.349701 -2.045987 35,000 213 390 0
2022-06-29 15:57:25 GMT 50.357895 -2.037819 35,000 213 390 0
2022-06-29 15:57:22 GMT 50.357895 -2.037819 35,000 213 390 0
2022-06-29 15:57:19 GMT 50.361237 -2.034475 35,000 213 390 0
2022-06-29 15:57:16 GMT 50.365631 -2.030013 35,000 213 390 0
2022-06-29 15:57:14 GMT 50.368637 -2.026978 35,000 213 390 0
2022-06-29 15:57:12 GMT 50.375015 -2.020545 35,000 213 390 0
2022-06-29 15:57:10 GMT 50.375015 -2.020545 35,000 213 390 0
2022-06-29 15:57:08 GMT 50.378174 -2.017365 35,000 213 390 0
2022-06-29 15:57:05 GMT 50.384232 -2.011315 35,000 213 390 0
2022-06-29 15:57:02 GMT 50.386505 -2.008980 35,000 213 390 0
2022-06-29 15:57:00 GMT 50.390469 -2.005079 35,000 213 390 0
2022-06-29 15:56:58 GMT 50.391815 -2.003704 35,000 213 390 0
2022-06-29 15:56:56 GMT 50.396660 -1.998844 35,000 213 390 0
2022-06-29 15:56:52 GMT 50.402115 -1.993296 35,000 213 390 0
2022-06-29 15:56:49 GMT 50.406067 -1.989342 35,000 213 390 0
2022-06-29 15:56:46 GMT 50.410629 -1.984839 35,000 213 390 0
2022-06-29 15:56:44 GMT 50.413651 -1.981731 35,000 213 390 0
2022-06-29 15:56:42 GMT 50.419556 -1.975804 35,000 213 390 0
2022-06-29 15:56:40 GMT 50.419556 -1.975804 35,000 213 390 0
2022-06-29 15:56:38 GMT 50.423035 -1.972335 35,000 213 390 0
2022-06-29 15:56:35 GMT 50.432274 -1.963064 35,000 213 390 0
2022-06-29 15:56:32 GMT 50.432274 -1.963064 35,000 213 390 0
2022-06-29 15:56:29 GMT 50.436092 -1.959204 35,000 213 390 0
2022-06-29 15:56:27 GMT 50.439720 -1.955566 35,000 213 390 0
2022-06-29 15:56:25 GMT 50.444229 -1.950941 35,000 213 390 0
2022-06-29 15:56:22 GMT 50.450134 -1.945014 35,000 213 390 0
2022-06-29 15:56:20 GMT 50.450134 -1.945014 35,000 213 390 0
2022-06-29 15:56:17 GMT 50.456818 -1.938292 35,000 213 390 0
2022-06-29 15:56:14 GMT 50.458923 -1.936196 35,000 213 390 0
2022-06-29 15:56:12 GMT 50.462395 -1.932629 35,000 213 390 0
2022-06-29 15:56:10 GMT 50.465744 -1.929257 35,000 213 390 0
2022-06-29 15:56:07 GMT 50.470734 -1.924270 35,000 213 390 0
2022-06-29 15:56:04 GMT 50.474358 -1.920603 35,000 213 390 0
2022-06-29 15:56:01 GMT 50.479340 -1.915555 35,000 213 390 0
2022-06-29 15:55:58 GMT 50.483761 -1.911101 35,000 213 390 0
2022-06-29 15:55:56 GMT 50.488586 -1.906200 35,000 213 389 0
2022-06-29 15:55:53 GMT 50.491161 -1.903530 35,000 213 389 0
2022-06-29 15:55:51 GMT 50.494171 -1.900490 35,000 213 390 0
2022-06-29 15:55:48 GMT 50.500351 -1.894202 35,000 213 389 0
2022-06-29 15:55:45 GMT 50.504292 -1.890242 35,000 214 390 0
2022-06-29 15:55:43 GMT 50.506432 -1.888090 35,000 213 390 0
2022-06-29 15:55:41 GMT 50.513973 -1.880369 35,000 213 390 0
2022-06-29 15:55:39 GMT 50.513973 -1.880369 35,000 213 390 0
2022-06-29 15:55:36 GMT 50.523193 -1.871001 35,000 213 389 0
2022-06-29 15:55:33 GMT 50.523193 -1.871001 35,000 214 390 0
2022-06-29 15:55:30 GMT 50.528358 -1.865820 35,000 214 390 0
2022-06-29 15:55:28 GMT 50.531662 -1.862405 35,000 214 390 0
2022-06-29 15:55:26 GMT 50.531662 -1.862405 35,000 214 390 0
2022-06-29 15:55:24 GMT 50.539532 -1.854388 35,000 214 390 0
2022-06-29 15:55:22 GMT 50.539532 -1.854388 35,000 214 390 0
2022-06-29 15:55:18 GMT 50.544022 -1.849751 35,000 213 389 0
2022-06-29 15:55:16 GMT 50.547226 -1.846570 35,000 214 390 0
2022-06-29 15:55:14 GMT 50.550514 -1.843179 35,000 214 390 0
2022-06-29 15:55:12 GMT 50.554916 -1.838692 35,000 213 389 0
2022-06-29 15:55:09 GMT 50.558670 -1.834861 35,000 213 389 0
2022-06-29 15:55:06 GMT 50.562469 -1.831031 35,000 213 389 0
2022-06-29 15:55:03 GMT 50.567139 -1.826188 35,000 210 389 64
2022-06-29 15:55:00 GMT 50.571697 -1.821652 35,000 213 389 0
2022-06-29 15:54:58 GMT 50.574535 -1.818683 35,000 213 389 0
2022-06-29 15:54:56 GMT 50.578491 -1.814696 35,000 213 390 0
2022-06-29 15:54:53 GMT 50.581055 -1.812150 35,000 213 390 0
2022-06-29 15:54:51 GMT 50.584824 -1.808290 35,000 213 389 0
2022-06-29 15:54:48 GMT 50.594929 -1.798492 35,000 210 388 64
2022-06-29 15:54:45 GMT 50.597256 -1.796413 35,000 210 389 0
2022-06-29 15:54:43 GMT 50.600235 -1.793735 35,000 210 389 0
2022-06-29 15:54:41 GMT 50.605263 -1.789361 35,000 210 388 0
2022-06-29 15:54:38 GMT 50.605263 -1.789361 35,000 210 387 0
2022-06-29 15:54:35 GMT 50.611176 -1.784122 35,000 210 386 0
2022-06-29 15:54:32 GMT 50.615273 -1.780527 35,000 210 386 0
2022-06-29 15:54:30 GMT 50.616806 -1.779117 35,000 210 386 0
2022-06-29 15:54:28 GMT 50.620514 -1.775882 35,000 210 385 0
2022-06-29 15:54:26 GMT 50.624580 -1.772288 35,000 210 384 -64
2022-06-29 15:54:23 GMT 50.628120 -1.769170 35,000 210 383 -64
2022-06-29 15:54:21 GMT 50.632309 -1.765458 35,000 210 382 0
2022-06-29 15:54:18 GMT 50.636730 -1.761524 35,000 210 381 0
2022-06-29 15:54:16 GMT 50.639805 -1.758778 35,000 210 380 -64
2022-06-29 15:54:13 GMT 50.642735 -1.756179 34,900 210 376 704
2022-06-29 15:54:11 GMT 50.646416 -1.752913 35,025 210 378 -64
2022-06-29 15:54:08 GMT 50.651859 -1.748088 35,000 210 377 256
2022-06-29 15:54:06 GMT 50.654888 -1.745416 35,000 210 376 448
2022-06-29 15:54:04 GMT 50.656860 -1.743646 35,000 210 376 512
2022-06-29 15:54:02 GMT 50.660660 -1.740249 34,975 210 376 576
2022-06-29 15:54:00 GMT 50.665054 -1.736346 34,900 210 376 704
2022-06-29 15:53:57 GMT 50.668388 -1.733390 34,900 210 375 704
2022-06-29 15:53:55 GMT 50.670639 -1.731359 34,900 210 375 704
2022-06-29 15:53:53 GMT 50.675354 -1.727229 34,850 210 375 704
2022-06-29 15:53:50 GMT 50.682724 -1.720657 34,800 210 375 832
2022-06-29 15:53:47 GMT 50.682724 -1.720657 34,800 210 375 896
2022-06-29 15:53:45 GMT 50.687256 -1.716614 34,750 210 375 1024
2022-06-29 15:53:42 GMT 50.690872 -1.713409 34,700 210 375 1024
2022-06-29 15:53:40 GMT 50.697510 -1.707483 34,625 210 375 1216
2022-06-29 15:53:37 GMT 50.697510 -1.707483 34,625 210 376 1408
2022-06-29 15:53:35 GMT 50.705063 -1.700728 34,550 210 376 1536
2022-06-29 15:53:33 GMT 50.705063 -1.700728 34,500 210 377 1600
2022-06-29 15:53:30 GMT 50.709305 -1.696930 34,425 210 377 1536
2022-06-29 15:53:28 GMT 50.711403 -1.695099 34,350 210 378 1536
2022-06-29 15:53:26 GMT 50.715363 -1.691523 34,325 210 378 1536
2022-06-29 15:53:24 GMT 50.717640 -1.689529 34,200 210 380 1536
2022-06-29 15:53:22 GMT 50.721130 -1.686401 34,225 210 380 1536
2022-06-29 15:53:20 GMT 50.725834 -1.682129 34,150 210 380 1536
2022-06-29 15:53:17 GMT 50.727974 -1.680222 33,750 210 382 1472
2022-06-29 15:53:15 GMT 50.730423 -1.678087 34,050 210 381 1536
2022-06-29 15:53:13 GMT 50.734543 -1.674376 34,025 210 382 1536
2022-06-29 15:53:10 GMT 50.738960 -1.670380 33,950 210 382 1472
2022-06-29 15:53:07 GMT 50.744175 -1.665726 33,875 210 382 1472
2022-06-29 15:53:04 GMT 50.751717 -1.658936 33,750 210 384 1536
2022-06-29 15:53:02 GMT 50.751717 -1.658936 33,725 210 384 1536
2022-06-29 15:53:00 GMT 50.755253 -1.655807 33,675 210 386 1600
2022-06-29 15:52:58 GMT 50.758026 -1.653294 33,650 210 385 1472
2022-06-29 15:52:56 GMT 50.761139 -1.650547 33,575 210 385 1472
2022-06-29 15:52:53 GMT 50.765900 -1.646242 33,500 210 386 1600
2022-06-29 15:52:50 GMT 50.771034 -1.641693 33,225 210 387 1600
2022-06-29 15:52:47 GMT 50.773956 -1.639041 33,325 210 387 1472
2022-06-29 15:52:45 GMT 50.777252 -1.636146 33,300 210 387 1472
2022-06-29 15:52:43 GMT 50.786907 -1.627502 33,200 210 389 1728
2022-06-29 15:52:40 GMT 50.786907 -1.627502 33,125 210 389 1856
2022-06-29 15:52:37 GMT 50.790985 -1.623898 33,075 210 390 1856
2022-06-29 15:52:34 GMT 50.795662 -1.619644 32,975 210 390 1728
2022-06-29 15:52:32 GMT 50.798172 -1.617440 32,900 210 391 1536
2022-06-29 15:52:30 GMT 50.804947 -1.611427 32,850 210 392 1472
2022-06-29 15:52:28 GMT 50.804947 -1.611427 32,825 210 392 1472
2022-06-29 15:52:26 GMT 50.807301 -1.609268 32,750 210 392 1536
2022-06-29 15:52:24 GMT 50.810760 -1.606231 32,625 210 392 1664
2022-06-29 15:52:22 GMT 50.813141 -1.604078 32,700 210 394 1792
2022-06-29 15:52:20 GMT 50.818039 -1.599773 32,525 210 395 1600
2022-06-29 15:52:17 GMT 50.821976 -1.596210 32,475 210 394 1664
2022-06-29 15:52:15 GMT 50.824383 -1.594086 32,475 210 395 1600
2022-06-29 15:52:13 GMT 50.828201 -1.590716 32,375 210 395 1536
2022-06-29 15:52:10 GMT 50.833881 -1.585541 32,300 210 395 1472
2022-06-29 15:52:07 GMT 50.837883 -1.582031 32,275 210 395 1472
2022-06-29 15:52:05 GMT 50.840744 -1.579433 32,175 210 396 1408
2022-06-29 15:52:02 GMT 50.846283 -1.574385 32,175 210 396 1408
2022-06-29 15:52:00 GMT 50.852036 -1.569290 32,075 210 397 1472
2022-06-29 15:51:58 GMT 50.852036 -1.569290 32,025 210 397 1472
2022-06-29 15:51:56 GMT 50.854549 -1.566925 32,025 210 397 1472
2022-06-29 15:51:54 GMT 50.858688 -1.563251 31,950 210 397 1472
2022-06-29 15:51:52 GMT 50.862835 -1.559448 31,875 210 398 1472
2022-06-29 15:51:49 GMT 50.869865 -1.553116 31,725 210 399 1600
2022-06-29 15:51:47 GMT 50.869865 -1.553116 31,775 210 399 1472
2022-06-29 15:51:45 GMT 50.872284 -1.551002 31,750 210 399 1472
2022-06-29 15:51:43 GMT 50.874847 -1.548691 31,700 210 399 1536
2022-06-29 15:51:41 GMT 50.880108 -1.543961 31,625 210 400 1472
2022-06-29 15:51:39 GMT 50.882339 -1.541977 31,325 210 399 1344
2022-06-29 15:51:36 GMT 50.888947 -1.536007 31,350 210 400 1344
2022-06-29 15:51:33 GMT 50.891830 -1.533409 31,425 210 399 1344
2022-06-29 15:51:31 GMT 50.895050 -1.530533 31,400 210 399 1344
2022-06-29 15:51:29 GMT 50.898102 -1.527768 31,325 210 400 1408
2022-06-29 15:51:27 GMT 50.902592 -1.523743 31,300 210 400 1472
2022-06-29 15:51:25 GMT 50.905151 -1.521458 31,250 210 401 1408
2022-06-29 15:51:23 GMT 50.907574 -1.519318 31,100 210 401 1280
2022-06-29 15:51:21 GMT 50.910969 -1.516266 31,175 210 401 1280
2022-06-29 15:51:19 GMT 50.915176 -1.512550 31,050 210 401 1280
2022-06-29 15:51:17 GMT 50.918381 -1.509655 31,075 210 401 1344
2022-06-29 15:51:15 GMT 50.920979 -1.507339 31,050 210 401 1344
2022-06-29 15:51:13 GMT 50.924515 -1.504162 31,000 210 401 1408
2022-06-29 15:51:11 GMT 50.928196 -1.500778 30,925 210 402 1408
2022-06-29 15:51:09 GMT 50.932243 -1.497192 30,875 210 402 1344
2022-06-29 15:51:06 GMT 50.935181 -1.494586 30,575 210 402 1344
2022-06-29 15:51:03 GMT 50.941452 -1.488944 30,750 210 402 1280
2022-06-29 15:51:00 GMT 50.946442 -1.484416 30,625 210 402 1344
2022-06-29 15:50:57 GMT 50.949829 -1.481373 30,625 210 402 1344
2022-06-29 15:50:55 GMT 50.954033 -1.477585 30,575 210 402 1280
2022-06-29 15:50:53 GMT 50.956310 -1.475601 30,550 210 402 1280
2022-06-29 15:50:51 GMT 50.965019 -1.467743 30,450 210 402 1280
2022-06-29 15:50:48 GMT 50.965019 -1.467743 30,450 210 402 1280
2022-06-29 15:50:46 GMT 50.973404 -1.460142 30,350 210 402 1280
2022-06-29 15:50:43 GMT 50.973404 -1.460142 30,300 210 403 1344
2022-06-29 15:50:40 GMT 50.981682 -1.452713 30,250 210 403 1344
2022-06-29 15:50:38 GMT 50.981682 -1.452713 30,175 210 403 1344
2022-06-29 15:50:35 GMT 50.987503 -1.447449 30,075 210 403 1344
2022-06-29 15:50:32 GMT 50.994625 -1.441040 30,075 210 403 1408
2022-06-29 15:50:30 GMT 50.994625 -1.441040 30,050 210 403 1408
2022-06-29 15:50:27 GMT 50.998676 -1.437378 29,975 210 403 1344
2022-06-29 15:50:25 GMT 51.002060 -1.434310 29,925 210 403 1344
2022-06-29 15:50:22 GMT 51.006264 -1.430511 29,825 210 403 1408
2022-06-29 15:50:19 GMT 51.011444 -1.425773 29,750 210 403 1344
2022-06-29 15:50:17 GMT 51.014549 -1.423035 29,650 210 404 1408
2022-06-29 15:50:15 GMT 51.018585 -1.419389 29,675 210 404 1408
2022-06-29 15:50:13 GMT 51.026699 -1.412048 29,600 210 405 1472
2022-06-29 15:50:10 GMT 51.026699 -1.412048 29,550 210 405 1472
2022-06-29 15:50:08 GMT 51.028976 -1.409962 29,475 210 405 1536
2022-06-29 15:50:06 GMT 51.033051 -1.406250 29,475 210 405 1536
2022-06-29 15:50:04 GMT 51.035614 -1.403949 29,300 210 406 1536
2022-06-29 15:50:01 GMT 51.042480 -1.397713 29,250 210 406 1472
2022-06-29 15:49:58 GMT 51.044769 -1.395709 29,275 210 406 1472
2022-06-29 15:49:56 GMT 51.049648 -1.391220 29,200 210 406 1408
2022-06-29 15:49:54 GMT 51.051929 -1.389160 29,150 210 406 1472
2022-06-29 15:49:51 GMT 51.056808 -1.384797 29,050 210 407 1600
2022-06-29 15:49:49 GMT 51.060242 -1.381679 29,025 210 407 1600
2022-06-29 15:49:47 GMT 51.067432 -1.375198 28,950 210 407 1600
2022-06-29 15:49:45 GMT 51.067432 -1.375198 28,925 210 407 1600
2022-06-29 15:49:43 GMT 51.070553 -1.372375 28,775 210 408 1600
2022-06-29 15:49:40 GMT 51.074799 -1.368540 28,825 210 408 1536
2022-06-29 15:49:38 GMT 51.079395 -1.364441 28,750 210 409 1536
2022-06-29 15:49:35 GMT 51.082855 -1.361340 28,650 210 409 1536
2022-06-29 15:49:32 GMT 51.091690 -1.353323 28,550 210 410 1600
2022-06-29 15:49:30 GMT 51.091690 -1.353323 28,525 210 410 1600
2022-06-29 15:49:27 GMT 51.096497 -1.349017 28,475 210 410 1536
2022-06-29 15:49:25 GMT 51.099785 -1.346054 28,425 210 410 1536
2022-06-29 15:49:23 GMT 51.103226 -1.342930 28,375 210 410 1472
2022-06-29 15:49:21 GMT 51.110184 -1.336695 28,300 210 410 1472
2022-06-29 15:49:17 GMT 51.112473 -1.334616 28,250 210 410 1536
2022-06-29 15:49:14 GMT 51.121719 -1.326302 28,075 210 412 1472
2022-06-29 15:49:11 GMT 51.121719 -1.326302 28,075 210 412 1472
2022-06-29 15:49:09 GMT 51.125996 -1.322403 28,000 210 412 1472
2022-06-29 15:49:07 GMT 51.133942 -1.315242 27,800 210 412 1600
2022-06-29 15:49:04 GMT 51.133942 -1.315242 27,850 210 412 1600
2022-06-29 15:49:01 GMT 51.138889 -1.310730 27,850 210 412 1600
2022-06-29 15:48:59 GMT 51.142384 -1.307602 27,725 210 413 1600
2022-06-29 15:48:56 GMT 51.146667 -1.303661 27,700 210 413 1600
2022-06-29 15:48:54 GMT 51.153275 -1.297607 27,625 211 413 1600
2022-06-29 15:48:50 GMT 51.158203 -1.293046 27,500 211 413 1600
2022-06-29 15:48:47 GMT 51.162003 -1.289483 27,450 211 414 1600
2022-06-29 15:48:45 GMT 51.166168 -1.285697 27,350 211 414 1600
2022-06-29 15:48:43 GMT 51.168457 -1.283470 27,325 211 414 1664
2022-06-29 15:48:40 GMT 51.174038 -1.278229 27,250 211 415 1664
2022-06-29 15:48:38 GMT 51.182236 -1.270851 27,150 207 414 1472
2022-06-29 15:48:35 GMT 51.185490 -1.268311 27,000 206 414 1280
2022-06-29 15:48:30 GMT 51.191681 -1.263504 27,000 204 414 1152
2022-06-29 15:48:28 GMT 51.195740 -1.260681 26,900 201 413 1088
2022-06-29 15:48:25 GMT 51.199593 -1.258087 26,875 197 412 1024
2022-06-29 15:48:23 GMT 51.202991 -1.256027 26,875 200 413 1024
2022-06-29 15:48:21 GMT 51.205505 -1.254501 26,850 199 413 1024
2022-06-29 15:48:19 GMT 51.209278 -1.252441 26,825 198 412 960
2022-06-29 15:48:17 GMT 51.213840 -1.250153 26,700 196 411 1088
2022-06-29 15:48:15 GMT 51.218216 -1.248062 26,750 195 411 1152
2022-06-29 15:48:13 GMT 51.222839 -1.246132 26,600 192 412 1216
2022-06-29 15:48:10 GMT 51.227665 -1.244354 26,650 191 412 1216
2022-06-29 15:48:08 GMT 51.231018 -1.243210 26,600 185 411 1024
2022-06-29 15:48:05 GMT 51.240376 -1.240845 26,550 187 411 960
2022-06-29 15:48:03 GMT 51.240376 -1.240845 26,425 184 411 1088
2022-06-29 15:48:00 GMT 51.250614 -1.239319 26,450 184 411 1088
2022-06-29 15:47:58 GMT 51.250614 -1.239319 26,425 184 411 1088
2022-06-29 15:47:55 GMT 51.254974 -1.238931 26,400 183 411 1088
2022-06-29 15:47:53 GMT 51.258762 -1.238632 26,350 183 411 1024
2022-06-29 15:47:49 GMT 51.267887 -1.237946 26,275 183 410 1024
2022-06-29 15:47:46 GMT 51.273750 -1.237488 26,175 183 409 1088
2022-06-29 15:47:43 GMT 51.283947 -1.236649 26,125 183 408 1088
2022-06-29 15:47:40 GMT 51.283947 -1.236649 26,125 183 409 1152
2022-06-29 15:47:38 GMT 51.287704 -1.236333 26,075 183 408 960
2022-06-29 15:47:35 GMT 51.293564 -1.235888 26,025 183 407 960
2022-06-29 15:47:33 GMT 51.297318 -1.235591 26,000 183 407 960
2022-06-29 15:47:30 GMT 51.307846 -1.234774 25,925 183 406 1024
2022-06-29 15:47:28 GMT 51.307846 -1.234774 25,875 183 406 1280
2022-06-29 15:47:25 GMT 51.315182 -1.234131 25,825 183 406 1216
2022-06-29 15:47:23 GMT 51.315182 -1.234131 25,825 183 406 1280
2022-06-29 15:47:19 GMT 51.328686 -1.233063 25,725 183 405 1088
2022-06-29 15:47:16 GMT 51.328686 -1.233063 25,700 183 405 1024
2022-06-29 15:47:14 GMT 51.335571 -1.232452 25,625 183 403 896
2022-06-29 15:47:09 GMT 51.344509 -1.231766 25,550 183 403 1216
2022-06-29 15:47:06 GMT 51.347305 -1.231508 25,525 183 403 1216
2022-06-29 15:47:03 GMT 51.355133 -1.230914 25,450 183 402 1152
2022-06-29 15:47:00 GMT 51.357918 -1.230698 25,375 183 401 1024
2022-06-29 15:46:58 GMT 51.362366 -1.230320 25,400 183 402 1088
2022-06-29 15:46:56 GMT 51.366810 -1.229935 25,325 183 401 1024
2022-06-29 15:46:54 GMT 51.370720 -1.229630 25,300 183 400 1088
2022-06-29 15:46:51 GMT 51.374954 -1.229281 25,225 183 400 1152
2022-06-29 15:46:49 GMT 51.384567 -1.228539 25,175 183 400 1152
2022-06-29 15:46:46 GMT 51.384567 -1.228539 25,125 183 399 1152
2022-06-29 15:46:44 GMT 51.388412 -1.228242 25,100 183 399 1088
2022-06-29 15:46:42 GMT 51.392136 -1.227951 24,975 183 397 1152
2022-06-29 15:46:39 GMT 51.397980 -1.227499 25,025 183 397 1088
2022-06-29 15:46:36 GMT 51.407356 -1.226730 24,900 183 397 1344
2022-06-29 15:46:34 GMT 51.407356 -1.226730 24,875 183 396 1408
2022-06-29 15:46:31 GMT 51.417786 -1.225891 24,700 183 396 1344
2022-06-29 15:46:28 GMT 51.417786 -1.225891 24,750 183 396 1344
2022-06-29 15:46:26 GMT 51.421463 -1.225644 24,725 183 396 1344
2022-06-29 15:46:24 GMT 51.425282 -1.225281 24,675 183 395 1344
2022-06-29 15:46:21 GMT 51.429844 -1.224976 24,600 183 395 1472
2022-06-29 15:46:18 GMT 51.436432 -1.224456 24,525 183 395 1792
2022-06-29 15:46:15 GMT 51.440964 -1.224085 24,450 183 395 1792
2022-06-29 15:46:13 GMT 51.448425 -1.223417 24,350 183 395 1856
2022-06-29 15:46:11 GMT 51.448425 -1.223417 24,200 183 394 1728
2022-06-29 15:46:08 GMT 51.453003 -1.223120 24,275 183 394 1792
2022-06-29 15:46:06 GMT 51.458633 -1.222600 24,175 183 394 1728
2022-06-29 15:46:04 GMT 51.461544 -1.222382 24,125 183 394 1792
2022-06-29 15:46:02 GMT 51.470482 -1.221695 23,975 183 394 1728
2022-06-29 15:45:59 GMT 51.470482 -1.221695 23,975 183 394 1728
2022-06-29 15:45:57 GMT 51.474106 -1.221412 23,925 183 394 1728
2022-06-29 15:45:55 GMT 51.477745 -1.221085 23,875 183 393 1728
2022-06-29 15:45:53 GMT 51.486820 -1.220322 23,750 183 393 1792
2022-06-29 15:45:50 GMT 51.486820 -1.220322 23,700 183 393 1856
2022-06-29 15:45:48 GMT 51.490265 -1.220076 23,475 183 393 1984
2022-06-29 15:45:46 GMT 51.494270 -1.219711 23,550 183 393 1920
2022-06-29 15:45:44 GMT 51.498459 -1.219406 23,500 183 393 1984
2022-06-29 15:45:42 GMT 51.501347 -1.219177 23,450 183 393 1984
2022-06-29 15:45:40 GMT 51.503540 -1.218963 22,725 183 393 1984
2022-06-29 15:45:38 GMT 51.509354 -1.218491 23,300 183 394 2112
2022-06-29 15:45:35 GMT 51.512787 -1.218220 23,250 183 393 1920
2022-06-29 15:45:33 GMT 51.517685 -1.217849 23,175 183 393 1984
2022-06-29 15:45:31 GMT 51.522583 -1.217478 23,025 183 393 1984
2022-06-29 15:45:28 GMT 51.528214 -1.217033 22,900 183 393 2048
2022-06-29 15:45:25 GMT 51.532955 -1.216583 22,875 183 393 2048
2022-06-29 15:45:23 GMT 51.535515 -1.216431 22,825 183 393 2048
2022-06-29 15:45:21 GMT 51.539841 -1.216068 22,750 183 393 2048
2022-06-29 15:45:18 GMT 51.546223 -1.215515 22,675 183 393 2176
2022-06-29 15:45:15 GMT 51.550049 -1.215251 22,550 183 394 2240
2022-06-29 15:45:12 GMT 51.556961 -1.214657 22,375 183 394 1920
2022-06-29 15:45:09 GMT 51.564056 -1.214063 22,275 183 394 1920
2022-06-29 15:45:07 GMT 51.564056 -1.214063 22,275 183 394 1856
2022-06-29 15:45:05 GMT 51.567673 -1.213767 22,225 183 394 1856
2022-06-29 15:45:03 GMT 51.572758 -1.213379 22,150 183 393 1856
2022-06-29 15:45:01 GMT 51.577148 -1.213024 22,025 183 393 1728
2022-06-29 15:44:58 GMT 51.586395 -1.212282 21,925 183 393 1728
2022-06-29 15:44:55 GMT 51.586395 -1.212282 21,925 183 393 1728
2022-06-29 15:44:53 GMT 51.591099 -1.211853 21,850 183 392 1664
2022-06-29 15:44:50 GMT 51.595287 -1.211548 21,775 183 392 1664
2022-06-29 15:44:48 GMT 51.599625 -1.211168 21,675 183 387 1600
2022-06-29 15:44:46 GMT 51.606461 -1.210632 21,625 183 391 1792
2022-06-29 15:44:44 GMT 51.612793 -1.210098 21,550 183 390 1728
2022-06-29 15:44:41 GMT 51.612793 -1.210098 21,500 183 390 1728
2022-06-29 15:44:39 GMT 51.616238 -1.209869 21,425 183 390 1792
2022-06-29 15:44:35 GMT 51.623428 -1.209313 21,325 183 389 1792
2022-06-29 15:44:32 GMT 51.631878 -1.208649 21,225 183 388 1600
2022-06-29 15:44:30 GMT 51.631878 -1.208649 21,150 183 388 1536
2022-06-29 15:44:27 GMT 51.636520 -1.208273 21,125 183 388 1536
2022-06-29 15:44:25 GMT 51.640091 -1.207976 21,050 183 387 1664
2022-06-29 15:44:23 GMT 51.644402 -1.207657 20,975 183 386 1728
2022-06-29 15:44:21 GMT 51.648869 -1.207275 20,925 183 386 1792
2022-06-29 15:44:18 GMT 51.652596 -1.206970 20,825 183 386 1728
2022-06-29 15:44:16 GMT 51.657257 -1.206640 20,800 183 385 1600
2022-06-29 15:44:14 GMT 51.659904 -1.206436 20,750 183 385 1536
2022-06-29 15:44:12 GMT 51.669167 -1.205673 20,600 183 383 1536
2022-06-29 15:44:10 GMT 51.671448 -1.205527 20,600 183 383 1536
2022-06-29 15:44:07 GMT 51.671448 -1.205527 20,575 183 381 1728
2022-06-29 15:44:05 GMT 51.680805 -1.204758 20,450 183 382 1600
2022-06-29 15:44:00 GMT 51.686462 -1.204339 20,325 183 381 1728
2022-06-29 15:43:57 GMT 51.690674 -1.204071 20,300 183 381 1728
2022-06-29 15:43:55 GMT 51.694199 -1.203745 20,225 183 380 1728
2022-06-29 15:43:53 GMT 51.700169 -1.203308 20,200 183 380 1792
2022-06-29 15:43:50 GMT 51.704727 -1.202929 20,000 183 379 1920
2022-06-29 15:43:47 GMT 51.713673 -1.202316 19,950 183 379 1920
2022-06-29 15:43:44 GMT 51.718231 -1.201935 19,800 183 378 1536
2022-06-29 15:43:41 GMT 51.718231 -1.201935 19,850 183 379 1728
2022-06-29 15:43:38 GMT 51.724190 -1.201553 19,725 183 377 1344
2022-06-29 15:43:35 GMT 51.730453 -1.201073 19,625 183 376 1984
2022-06-29 15:43:32 GMT 51.735855 -1.200628 19,575 183 376 1920
2022-06-29 15:43:29 GMT 51.740204 -1.200331 19,450 183 376 2048
2022-06-29 15:43:27 GMT 51.748028 -1.199722 19,375 183 376 1984
2022-06-29 15:43:24 GMT 51.748028 -1.199722 19,325 183 375 1472
2022-06-29 15:43:22 GMT 51.753204 -1.199366 19,225 183 375 1472
2022-06-29 15:43:19 GMT 51.756172 -1.199188 19,200 183 373 1088
2022-06-29 15:43:17 GMT 51.760456 -1.198883 19,150 183 373 1088
2022-06-29 15:43:14 GMT 51.769272 -1.198252 19,075 183 371 896
2022-06-29 15:43:12 GMT 51.772522 -1.197955 19,050 183 370 768
2022-06-29 15:43:07 GMT 51.779480 -1.197436 18,975 183 364 960
2022-06-29 15:43:04 GMT 51.781174 -1.197287 18,975 183 365 832
2022-06-29 15:43:02 GMT 51.786198 -1.196899 18,925 183 363 1216
2022-06-29 15:43:00 GMT 51.788910 -1.196693 18,850 184 360 1152
2022-06-29 15:42:57 GMT 51.794769 -1.196174 18,825 184 361 1344
2022-06-29 15:42:54 GMT 51.798935 -1.195802 18,700 184 360 1024
2022-06-29 15:42:52 GMT 51.801956 -1.195580 18,700 184 357 768
2022-06-29 15:42:50 GMT 51.810883 -1.194689 18,675 185 349 832
2022-06-29 15:42:47 GMT 51.810883 -1.194689 18,675 185 354 512
2022-06-29 15:42:45 GMT 51.814781 -1.194229 18,575 185 350 704
2022-06-29 15:42:42 GMT 51.819031 -1.193724 18,625 185 351 576
2022-06-29 15:42:40 GMT 51.821320 -1.193427 18,625 185 351 640
2022-06-29 15:42:38 GMT 51.826309 -1.192833 18,550 186 347 896
2022-06-29 15:42:35 GMT 51.830292 -1.192239 18,525 186 345 768
2022-06-29 15:42:32 GMT 51.835236 -1.191497 18,475 187 343 512
2022-06-29 15:42:30 GMT 51.838394 -1.190977 18,475 187 341 448
2022-06-29 15:42:27 GMT 51.843132 -1.190109 18,450 188 338 448
2022-06-29 15:42:24 GMT 51.847916 -1.189122 18,425 185 333 896
2022-06-29 15:42:22 GMT 51.851746 -1.188278 18,375 186 333 896
2022-06-29 15:42:19 GMT 51.859268 -1.187192 18,250 178 331 704
2022-06-29 15:42:16 GMT 51.859268 -1.187192 18,325 175 329 576
2022-06-29 15:42:14 GMT 51.864498 -1.187134 18,300 172 328 640
2022-06-29 15:42:11 GMT 51.872772 -1.188750 18,250 159 328 896
2022-06-29 15:42:08 GMT 51.872772 -1.188750 18,225 165 328 832
2022-06-29 15:42:05 GMT 51.876652 -1.190109 18,225 159 328 896
2022-06-29 15:42:03 GMT 51.878929 -1.191406 18,175 158 328 896
2022-06-29 15:42:01 GMT 51.881630 -1.193008 18,125 152 328 832
2022-06-29 15:41:58 GMT 51.888149 -1.198349 18,100 137 319 640
2022-06-29 15:41:54 GMT 51.892136 -1.202854 18,050 140 328 640
2022-06-29 15:41:51 GMT 51.899227 -1.212420 17,925 137 318 704
2022-06-29 15:41:48 GMT 51.899227 -1.212420 17,975 137 324 640
2022-06-29 15:41:45 GMT 51.901974 -1.216500 17,975 137 322 576
2022-06-29 15:41:43 GMT 51.904404 -1.220093 17,925 137 320 576
2022-06-29 15:41:41 GMT 51.906784 -1.223679 17,900 137 314 1024
2022-06-29 15:41:38 GMT 51.909393 -1.227570 17,900 137 314 1024
2022-06-29 15:41:35 GMT 51.915802 -1.237183 17,825 137 312 960
2022-06-29 15:41:32 GMT 51.915802 -1.237183 17,800 137 311 896
2022-06-29 15:41:30 GMT 51.918228 -1.240768 17,775 137 307 512
2022-06-29 15:41:27 GMT 51.921295 -1.245346 17,600 137 301 320
2022-06-29 15:41:24 GMT 51.927429 -1.254578 17,600 137 299 832
2022-06-29 15:41:21 GMT 51.927429 -1.254578 17,700 137 297 1088
2022-06-29 15:41:18 GMT 51.932465 -1.262172 17,575 137 294 2304
2022-06-29 15:41:16 GMT 51.932465 -1.262172 17,550 137 295 2240
2022-06-29 15:41:13 GMT 51.936005 -1.267430 17,375 137 295 2304
2022-06-29 15:41:10 GMT 51.938099 -1.270569 17,275 137 295 2304
2022-06-29 15:41:07 GMT 51.942123 -1.276550 17,150 137 294 2304
2022-06-29 15:41:04 GMT 51.943634 -1.278763 17,125 137 294 2304
2022-06-29 15:41:02 GMT 51.946335 -1.282806 17,025 137 294 2304
2022-06-29 15:40:59 GMT 51.949448 -1.287384 16,850 138 291 2368
2022-06-29 15:40:56 GMT 51.952854 -1.292463 16,500 137 292 2368
2022-06-29 15:40:53 GMT 51.955372 -1.296073 16,675 138 290 2496
2022-06-29 15:40:51 GMT 51.957367 -1.299057 16,600 137 292 2432
2022-06-29 15:40:49 GMT 51.959290 -1.301804 16,500 138 291 2368
2022-06-29 15:40:46 GMT 51.963890 -1.308550 16,350 138 291 2304
2022-06-29 15:40:44 GMT 51.967392 -1.313629 16,200 138 291 2304
2022-06-29 15:40:41 GMT 51.967392 -1.313629 15,900 138 290 2368
2022-06-29 15:40:39 GMT 51.969177 -1.316223 16,000 138 290 2560
2022-06-29 15:40:37 GMT 51.971478 -1.319615 16,025 138 290 2560
2022-06-29 15:40:34 GMT 51.974594 -1.324088 15,900 138 290 2432
2022-06-29 15:40:31 GMT 51.977715 -1.328561 15,825 138 290 2368
2022-06-29 15:40:29 GMT 51.979065 -1.330601 15,700 138 288 1920
2022-06-29 15:40:26 GMT 51.982368 -1.335388 15,625 138 286 1856
2022-06-29 15:40:23 GMT 51.986931 -1.341980 15,500 138 286 1856
2022-06-29 15:40:19 GMT 51.989262 -1.345433 15,425 138 286 1920
2022-06-29 15:40:17 GMT 51.993896 -1.352158 15,250 138 284 2304
2022-06-29 15:40:14 GMT 51.996616 -1.356105 15,200 138 282 2496
2022-06-29 15:40:11 GMT 51.996616 -1.356105 14,975 138 282 2368
2022-06-29 15:40:09 GMT 52.001225 -1.362697 14,975 138 282 2432
2022-06-29 15:40:07 GMT 52.001225 -1.362697 14,925 138 282 2432
2022-06-29 15:40:04 GMT 52.004250 -1.367013 14,775 138 281 2624
2022-06-29 15:40:01 GMT 52.006210 -1.369781 14,650 139 282 2752
2022-06-29 15:39:59 GMT 52.009048 -1.373825 14,625 139 282 2752
2022-06-29 15:39:57 GMT 52.011703 -1.377563 14,400 139 282 2880
2022-06-29 15:39:54 GMT 52.014771 -1.381836 14,325 139 282 2944
2022-06-29 15:39:51 GMT 52.016235 -1.383896 13,925 139 282 2624
2022-06-29 15:39:49 GMT 52.018822 -1.387495 14,100 139 282 2624
2022-06-29 15:39:46 GMT 52.022266 -1.392360 13,900 139 282 2496
2022-06-29 15:39:43 GMT 52.025620 -1.397018 13,700 139 282 2624
2022-06-29 15:39:40 GMT 52.027679 -1.399918 13,575 139 282 2624
2022-06-29 15:39:37 GMT 52.030746 -1.404190 13,575 139 281 2496
2022-06-29 15:39:34 GMT 52.033218 -1.407623 13,500 139 280 2432
2022-06-29 15:39:32 GMT 52.038235 -1.414647 13,275 139 280 2880
2022-06-29 15:39:29 GMT 52.038235 -1.414647 13,275 139 280 2496
2022-06-29 15:39:27 GMT 52.042282 -1.420218 13,150 139 280 2880
2022-06-29 15:39:25 GMT 52.042282 -1.420218 13,075 139 280 2880
2022-06-29 15:39:21 GMT 52.046101 -1.425555 12,900 139 280 3008
2022-06-29 15:39:19 GMT 52.050198 -1.431362 12,775 139 280 2816
2022-06-29 15:39:17 GMT 52.050198 -1.431362 12,525 139 280 2880
2022-06-29 15:39:14 GMT 52.053642 -1.436149 12,525 139 280 2816
2022-06-29 15:39:11 GMT 52.055737 -1.439052 12,425 139 280 2944
2022-06-29 15:39:09 GMT 52.058853 -1.443405 12,300 139 281 3392
2022-06-29 15:39:06 GMT 52.061920 -1.447678 11,800 139 282 3520
2022-06-29 15:39:03 GMT 52.065994 -1.453247 11,825 139 283 3776
2022-06-29 15:39:00 GMT 52.067001 -1.454668 11,675 140 288 3136
2022-06-29 15:38:57 GMT 52.070496 -1.459455 11,575 139 285 3712
2022-06-29 15:38:54 GMT 52.073318 -1.463394 11,375 139 288 3264
2022-06-29 15:38:51 GMT 52.075745 -1.466751 11,250 139 288 3200
2022-06-29 15:38:49 GMT 52.077896 -1.469650 11,150 140 287 2944
2022-06-29 15:38:47 GMT 52.081238 -1.474228 10,850 145 285 2688
2022-06-29 15:38:44 GMT 52.082924 -1.476327 10,850 145 285 2688
2022-06-29 15:38:41 GMT 52.087578 -1.481663 10,725 148 284 2496
2022-06-29 15:38:38 GMT 52.090420 -1.484410 10,500 151 282 2688
2022-06-29 15:38:34 GMT 52.094978 -1.488491 10,500 151 282 2688
2022-06-29 15:38:31 GMT 52.097820 -1.491080 10,325 151 282 2752
2022-06-29 15:38:28 GMT 52.101517 -1.494293 10,175 152 281 2752
2022-06-29 15:38:26 GMT 52.103806 -1.496277 10,100 152 281 2688
2022-06-29 15:38:23 GMT 52.107605 -1.499481 9,950 152 280 2688
2022-06-29 15:38:20 GMT 52.110214 -1.501770 9,825 152 280 2688
2022-06-29 15:38:17 GMT 52.115295 -1.506119 9,300 151 278 2496
2022-06-29 15:38:14 GMT 52.117558 -1.508109 9,425 151 276 2432
2022-06-29 15:38:11 GMT 52.120972 -1.511002 9,475 151 278 2432
2022-06-29 15:38:09 GMT 52.123032 -1.512833 9,350 151 276 2496
2022-06-29 15:38:07 GMT 52.124725 -1.514282 9,325 151 276 2432
2022-06-29 15:38:04 GMT 52.132141 -1.520767 9,100 151 276 2560
2022-06-29 15:38:01 GMT 52.132141 -1.520767 9,050 151 274 2688
2022-06-29 15:37:59 GMT 52.134411 -1.522705 8,850 151 266 640
2022-06-29 15:37:56 GMT 52.137947 -1.525844 8,750 151 274 2688
2022-06-29 15:37:53 GMT 52.141438 -1.528905 8,675 151 273 2432
2022-06-29 15:37:50 GMT 52.147568 -1.534195 8,500 151 271 1856
2022-06-29 15:37:47 GMT 52.147568 -1.534195 8,475 151 271 1920
2022-06-29 15:37:44 GMT 52.151123 -1.537301 8,250 151 271 1792
2022-06-29 15:37:41 GMT 52.154617 -1.540451 8,275 151 270 1536
2022-06-29 15:37:37 GMT 52.159058 -1.544266 8,175 151 269 1152
2022-06-29 15:37:34 GMT 52.165375 -1.549911 8,100 151 267 768
2022-06-29 15:37:31 GMT 52.165375 -1.549911 8,100 151 267 768
2022-06-29 15:37:29 GMT 52.167984 -1.552200 8,075 154 264 320
2022-06-29 15:37:26 GMT 52.173328 -1.556763 8,050 154 264 320
2022-06-29 15:37:23 GMT 52.173328 -1.556763 8,025 153 265 448
2022-06-29 15:37:21 GMT 52.176495 -1.559352 8,000 156 264 256
2022-06-29 15:37:19 GMT 52.178925 -1.561203 8,000 157 264 128
2022-06-29 15:37:16 GMT 52.181568 -1.562884 8,000 161 264 -64
2022-06-29 15:37:14 GMT 52.184452 -1.564532 8,000 162 264 0
2022-06-29 15:37:11 GMT 52.188038 -1.566415 8,000 162 264 0
2022-06-29 15:37:09 GMT 52.190369 -1.567535 8,000 162 265 64
2022-06-29 15:37:06 GMT 52.194717 -1.569748 8,000 162 265 64
2022-06-29 15:37:03 GMT 52.196835 -1.570731 8,000 163 266 0
2022-06-29 15:37:00 GMT 52.200466 -1.572536 8,000 163 266 0
2022-06-29 15:36:57 GMT 52.203911 -1.574262 8,000 163 267 -64
2022-06-29 15:36:54 GMT 52.208008 -1.576303 8,000 163 267 0
2022-06-29 15:36:52 GMT 52.210522 -1.577558 8,000 163 267 -64
2022-06-29 15:36:49 GMT 52.213577 -1.579056 8,000 163 268 -64
2022-06-29 15:36:46 GMT 52.220718 -1.582565 8,000 162 269 0
2022-06-29 15:36:43 GMT 52.220718 -1.582565 8,000 162 269 0
2022-06-29 15:36:40 GMT 52.223465 -1.583939 8,000 162 269 0
2022-06-29 15:36:38 GMT 52.225700 -1.585013 8,000 162 269 128
2022-06-29 15:36:35 GMT 52.232483 -1.588440 8,000 162 269 -192
2022-06-29 15:36:33 GMT 52.232483 -1.588440 8,000 162 269 -192
2022-06-29 15:36:30 GMT 52.235382 -1.589879 8,000 157 266 1344
2022-06-29 15:36:27 GMT 52.240128 -1.592255 8,000 162 269 448
2022-06-29 15:36:24 GMT 52.244522 -1.594543 7,950 159 267 1024
2022-06-29 15:36:21 GMT 52.247532 -1.596313 7,900 158 267 1408
2022-06-29 15:36:18 GMT 52.250519 -1.598206 7,850 157 266 1344
2022-06-29 15:36:15 GMT 52.253860 -1.600418 7,775 157 266 1280
2022-06-29 15:36:12 GMT 52.257496 -1.602827 7,700 157 267 1472
2022-06-29 15:36:09 GMT 52.260799 -1.605024 7,625 157 265 1536
2022-06-29 15:36:06 GMT 52.263565 -1.606903 7,575 157 265 1536
2022-06-29 15:36:03 GMT 52.268005 -1.609802 7,475 158 265 1536
2022-06-29 15:35:59 GMT 52.271645 -1.612244 7,425 158 265 1472
2022-06-29 15:35:56 GMT 52.275055 -1.614456 7,300 158 265 1408
2022-06-29 15:35:53 GMT 52.277893 -1.616364 7,175 157 264 1408
2022-06-29 15:35:50 GMT 52.281281 -1.618522 7,225 158 263 1408
2022-06-29 15:35:47 GMT 52.285843 -1.621504 7,000 157 263 1344
2022-06-29 15:35:44 GMT 52.291103 -1.625035 7,025 157 262 2112
2022-06-29 15:35:42 GMT 52.291103 -1.625035 7,000 157 263 1408
2022-06-29 15:35:39 GMT 52.294411 -1.627154 6,875 157 263 1728
2022-06-29 15:35:36 GMT 52.298134 -1.629665 6,775 158 262 2368
2022-06-29 15:35:33 GMT 52.301514 -1.631927 6,675 158 261 3072
2022-06-29 15:35:30 GMT 52.307213 -1.635629 6,525 158 261 3200
2022-06-29 15:35:28 GMT 52.307213 -1.635629 6,375 158 260 2624
2022-06-29 15:35:25 GMT 52.310051 -1.637434 6,325 158 259 2560
2022-06-29 15:35:22 GMT 52.313728 -1.639866 6,125 158 259 2496
2022-06-29 15:35:19 GMT 52.317764 -1.642456 5,925 158 257 2112
2022-06-29 15:35:16 GMT 52.321270 -1.644810 5,925 158 255 1856
2022-06-29 15:35:13 GMT 52.323597 -1.646301 5,825 158 251 1472
2022-06-29 15:35:10 GMT 52.326950 -1.648499 5,775 158 245 1088
2022-06-29 15:35:07 GMT 52.334198 -1.653214 5,725 158 238 960
2022-06-29 15:35:03 GMT 52.334198 -1.653214 5,700 158 235 896
2022-06-29 15:35:01 GMT 52.335754 -1.654205 5,650 158 230 896
2022-06-29 15:34:58 GMT 52.339874 -1.656799 5,525 158 224 1088
2022-06-29 15:34:55 GMT 52.342220 -1.658386 5,525 157 221 1536
2022-06-29 15:34:51 GMT 52.345642 -1.660614 5,375 156 218 2496
2022-06-29 15:34:48 GMT 52.348877 -1.662702 5,250 155 217 2752
2022-06-29 15:34:45 GMT 52.351715 -1.664743 5,000 154 216 3008
2022-06-29 15:34:42 GMT 52.354881 -1.667254 5,000 153 217 3072
2022-06-29 15:34:39 GMT 52.359192 -1.670685 4,850 153 216 3136
2022-06-29 15:34:36 GMT 52.359192 -1.670685 4,775 153 216 3200
2022-06-29 15:34:33 GMT 52.364960 -1.675415 4,400 152 216 3200
2022-06-29 15:34:30 GMT 52.364960 -1.675415 4,300 152 217 3200
2022-06-29 15:34:27 GMT 52.370850 -1.680437 4,175 152 217 3200
2022-06-29 15:34:24 GMT 52.370850 -1.680437 3,675 154 217 3264
2022-06-29 15:34:20 GMT 52.374153 -1.683262 3,800 155 218 3200
2022-06-29 15:34:17 GMT 52.376293 -1.684989 3,600 157 218 3008
2022-06-29 15:34:14 GMT 52.378811 -1.686794 3,475 159 215 2624
2022-06-29 15:34:11 GMT 52.382858 -1.689383 3,400 160 213 2880
2022-06-29 15:34:08 GMT 52.388493 -1.692444 3,250 162 212 3200
2022-06-29 15:34:05 GMT 52.390274 -1.693268 3,050 163 212 3136
2022-06-29 15:34:02 GMT 52.390274 -1.693268 2,925 163 213 3072
2022-06-29 15:33:59 GMT 52.394073 -1.695023 2,625 164 212 2880
2022-06-29 15:33:56 GMT 52.396500 -1.696211 2,575 165 211 2496
2022-06-29 15:33:53 GMT 52.398781 -1.697231 2,450 164 207 2048
2022-06-29 15:33:50 GMT 52.401627 -1.698456 2,450 162 206 1984
2022-06-29 15:33:48 GMT 52.403481 -1.699271 2,325 158 203 2496
2022-06-29 15:33:45 GMT 52.406277 -1.700762 2,225 158 203 2496
2022-06-29 15:33:42 GMT 52.409019 -1.702332 2,075 157 203 2304
2022-06-29 15:33:39 GMT 52.412094 -1.704293 2,000 156 201 1984
2022-06-29 15:33:37 GMT 52.413208 -1.705093 1,975 155 201 1728
2022-06-29 15:33:36 GMT 52.414673 -1.706161 1,925 153 197 1344
2022-06-29 15:33:35 GMT 52.415497 -1.706772 1,925 152 197 1280
2022-06-29 15:33:31 GMT 52.420715 -1.711502 1,850 148 191 960
2022-06-29 15:33:28 GMT 52.420715 -1.711502 1,800 146 188 832
2022-06-29 15:33:26 GMT 52.422195 -1.713082 1,775 146 185 896
2022-06-29 15:33:24 GMT 52.423637 -1.714652 1,725 146 181 1152
2022-06-29 15:33:23 GMT 52.425201 -1.716309 1,700 146 179 1280
2022-06-29 15:33:21 GMT 52.426758 -1.718026 1,650 146 177 1472
2022-06-29 15:33:18 GMT 52.427490 -1.718826 1,625 146 176 1536
2022-06-29 15:33:16 GMT 52.428909 -1.720352 1,550 146 174 1728
2022-06-29 15:33:15 GMT 52.429871 -1.721420 1,500 146 173 2048
2022-06-29 15:33:14 GMT 52.430557 -1.722183 1,475 146 173 2112
2022-06-29 15:33:13 GMT 52.432018 -1.723755 1,400 146 173 2432
2022-06-29 15:33:11 GMT 52.432663 -1.724472 1,350 146 172 2496
2022-06-29 15:33:10 GMT 52.434067 -1.726031 1,275 145 172 2624
2022-06-29 15:33:07 GMT 52.435638 -1.727753 1,200 145 172 2560
2022-06-29 15:33:05 GMT 52.436253 -1.728385 1,125 145 172 2304
2022-06-29 15:33:04 GMT 52.437000 -1.729248 1,100 145 171 2112
2022-06-29 15:33:03 GMT 52.439072 -1.731567 1,000 145 171 2048
2022-06-29 15:33:01 GMT 52.439072 -1.731567 975 146 170 2048
2022-06-29 15:32:59 GMT 52.440262 -1.732864 925 145 169 2112
2022-06-29 15:32:58 GMT 52.440994 -1.733704 875 145 169 2112
2022-06-29 15:32:56 GMT 52.442352 -1.735134 800 145 168 2048
2022-06-29 15:32:55 GMT 52.443050 -1.735918 775 145 167 2048
2022-06-29 15:32:53 GMT 52.443935 -1.736938 725 145 166 2048
2022-06-29 15:32:52 GMT 52.444820 -1.737959 675 145 166 1984
2022-06-29 15:32:51 GMT 52.445480 -1.738663 625 145 166 2048
2022-06-29 15:32:50 GMT 52.447475 -1.740941 525 145 166 1984
2022-06-29 15:32:48 GMT 52.447475 -1.740941 525 145 164 1792
2022-06-29 15:32:46 GMT 52.448685 -1.742325 475 145 162 1216
2022-06-29 15:32:45 GMT 52.449417 -1.743088 450 145 160 960
2022-06-29 15:32:43 GMT 52.450916 -1.744707 425 145 155 384
2022-06-29 15:32:40 GMT 52.452362 -1.746355 400 145 143 0
2022-06-29 15:32:36 GMT 52.454590 -1.748810 400 145 133 64
2022-06-29 15:32:31 GMT 52.457481 -1.752005 400 145 116 128
2022-06-29 15:32:27 GMT 52.459393 -1.754203 400 145 102 64
2022-06-29 15:32:20 GMT 52.462017 -1.757069 400 146 45 0
2022-06-29 15:32:12 GMT 52.463860 -1.759109 0 146 45 0
2022-06-29 15:32:10 GMT 52.464211 -1.759519 0 146 35 0
2022-06-29 15:32:08 GMT 52.464592 -1.759931 0 146 22 0
2022-06-29 15:32:02 GMT 52.464977 -1.760383 0 143 16 0
2022-06-29 15:32:01 GMT 52.465034 -1.760461 0 143 15 0
2022-06-29 15:31:53 GMT 52.465523 -1.760775 0 205 14 0
2022-06-29 15:31:49 GMT 52.465736 -1.760578 0 230 14 0
2022-06-29 15:31:40 GMT 52.466061 -1.759833 0 236 12 0
2022-06-29 15:31:32 GMT 52.466255 -1.759323 0 250 11 0
2022-06-29 15:31:23 GMT 52.466248 -1.758558 0 312 13 0
2022-06-29 15:31:04 GMT 52.464943 -1.757047 0 323 24 0
2022-06-29 15:30:51 GMT 52.463734 -1.755695 0 323 24
2022-06-29 15:30:34 GMT 52.462185 -1.753987 0 323 24
2022-06-29 15:30:25 GMT 52.461220 -1.752908 0 323 24
2022-06-29 15:30:13 GMT 52.460255 -1.751823 0 323 24
2022-06-29 15:29:58 GMT 52.458893 -1.750317 0 323 22
2022-06-29 15:29:54 GMT 52.458565 -1.749965 0 323 22
2022-06-29 15:29:43 GMT 52.457703 -1.748984 0 323 21
2022-06-29 15:29:34 GMT 52.456924 -1.748121 0 326 20
2022-06-29 15:29:06 GMT 52.455086 -1.746081 0 320 17
2022-06-29 15:29:02 GMT 52.454819 -1.745669 0 306 17
2022-06-29 15:29:01 GMT 52.454773 -1.745567 0 306 17
2022-06-29 15:28:53 GMT 52.454453 -1.744709 0 295 18
2022-06-29 15:28:43 GMT 52.454098 -1.743546 0 295 18
2022-06-29 15:28:22 GMT 52.453350 -1.741176 0 295 16
2022-06-29 15:28:16 GMT 52.453148 -1.740475 0 298 15
2022-06-29 15:27:52 GMT 52.452118 -1.738959 0 326 11

Making use of Plane Finder data

You are free to use the raw flight data, aircraft information and images provided in this report for your own purposes provided the data is correctly attributed to Plane Finder. We ask that you please credit Plane Finder and link to planefinder.net in close proximity to the content.

Optionally one of the following logos (no smaller then 150x24px) can be used and must link to planefinder.net

Embedding the Plane Finder map

You are welcome to embed the Plane Finder playback map on your website to offer visitors a more interactive experience. We suggest using the following HTML code:

<iframe src="//planefinder.net/data/report/BY7314-G-FDZY-7700-squawk-2022-06-29/map" width="800" height="600" seamless="seamless"></iframe>

Where our data comes from

Plane Finder has a global network of data feeds and antenna radars that receive data broadcast directly from aircraft. The primary technologies used are ADS-B and MLAT. We also show feeds from the FAA and a FLARM glider feed.

Click here to find out more about the Plane Finder network.

How we collect our data